[[{"header":{"parameterUnit":"m.s-1","parameterCategory":1,"la1":30.6,"la2":29.2853,"lo1":-89.7004,"lo2":-87.6739,"dy":0.0162,"dx":0.0183,"nx":112,"ny":82,"refTime":"2026-03-29T00:00:00:Z","depth":0,"parameterNumber":2,"parameterNumberName":"U-component_of_WINDS"},"data":[0.0,0.0,0.0,0.0,0.0,0.0,0.0,0.0,0.0,0.0,0.0,0.0,0.0,0.0,0.0,0.0,0.0,0.0,0.0,0.0,0.0,0.0,0.0,0.0,0.0,0.0,0.0,0.0,0.0,0.0,0.0,0.0,0.0,0.0,0.0,0.0,0.0,0.0,0.0,0.0,0.0,0.0,0.0,0.0,0.0,0.0,0.0,0.0,0.0,0.0,0.0,0.0,0.0,0.0,0.0,0.0,0.0,0.0,0.0,0.0,0.0,0.0,0.0,0.0,0.0,0.0,0.0,0.0,0.0,0.0,0.0,0.0,0.0,0.0,0.0,0.0,0.0,0.0,0.0,0.0,0.0,0.0,0.0,0.0,0.0,0.0,0.0,0.0,0.0,0.0,-5.1094,-5.4155,-5.9598,-6.2502,-6.1077,-6.0397,-5.8518,-5.4956,0.0,0.0,0.0,0.0,0.0,0.0,0.0,0.0,0.0,0.0,0.0,0.0,0.0,0.0,0.0,0.0,0.0,0.0,0.0,0.0,0.0,0.0,0.0,0.0,0.0,0.0,0.0,0.0,0.0,0.0,0.0,0.0,0.0,0.0,0.0,0.0,0.0,0.0,0.0,0.0,0.0,0.0,0.0,0.0,0.0,0.0,0.0,0.0,0.0,0.0,0.0,0.0,0.0,0.0,0.0,0.0,0.0,0.0,0.0,0.0,0.0,0.0,0.0,0.0,0.0,0.0,0.0,0.0,0.0,0.0,0.0,0.0,0.0,0.0,0.0,0.0,0.0,0.0,0.0,0.0,0.0,0.0,0.0,0.0,0.0,0.0,0.0,0.0,0.0,0.0,0.0,0.0,0.0,0.0,0.0,0.0,0.0,0.0,0.0,0.0,0.0,0.0,0.0,0.0,-5.3132,-5.865,-6.1995,-6.3246,-6.1789,-6.1562,-5.9976,-5.6413,0.0,0.0,0.0,0.0,0.0,0.0,0.0,0.0,0.0,0.0,0.0,0.0,0.0,0.0,0.0,0.0,0.0,0.0,0.0,0.0,0.0,0.0,0.0,0.0,0.0,0.0,0.0,0.0,0.0,0.0,0.0,0.0,0.0,0.0,0.0,0.0,0.0,0.0,0.0,0.0,0.0,0.0,0.0,0.0,0.0,0.0,0.0,0.0,0.0,0.0,0.0,0.0,0.0,0.0,0.0,0.0,0.0,0.0,0.0,0.0,0.0,0.0,0.0,0.0,0.0,0.0,0.0,0.0,0.0,0.0,0.0,0.0,0.0,0.0,0.0,0.0,0.0,0.0,0.0,0.0,0.0,0.0,0.0,0.0,0.0,0.0,0.0,0.0,0.0,0.0,0.0,0.0,0.0,0.0,0.0,0.0,0.0,0.0,0.0,0.0,0.0,0.0,0.0,-5.3766,-5.7576,-6.1292,-6.3761,-6.4412,-6.2534,-6.1692,-5.9555,-5.5604,-5.1361,0.0,0.0,0.0,0.0,0.0,0.0,0.0,0.0,0.0,0.0,0.0,0.0,0.0,0.0,0.0,0.0,0.0,0.0,0.0,0.0,0.0,0.0,0.0,0.0,0.0,0.0,0.0,0.0,0.0,0.0,0.0,0.0,0.0,0.0,0.0,0.0,0.0,0.0,0.0,0.0,0.0,0.0,0.0,0.0,0.0,0.0,0.0,0.0,0.0,0.0,0.0,0.0,0.0,0.0,0.0,0.0,0.0,0.0,0.0,0.0,0.0,0.0,0.0,0.0,0.0,0.0,0.0,0.0,0.0,0.0,0.0,0.0,0.0,0.0,0.0,0.0,0.0,0.0,0.0,0.0,0.0,0.0,0.0,0.0,0.0,0.0,0.0,0.0,0.0,0.0,0.0,0.0,0.0,0.0,0.0,0.0,0.0,0.0,0.0,0.0,0.0,0.0,-5.8521,-6.1422,-6.3001,-6.4768,-6.4963,-6.2825,-6.1044,-5.8356,-5.4405,-5.0617,0.0,0.0,0.0,0.0,0.0,0.0,0.0,0.0,0.0,0.0,0.0,0.0,0.0,0.0,0.0,0.0,0.0,0.0,0.0,0.0,0.0,0.0,0.0,0.0,0.0,0.0,0.0,0.0,0.0,0.0,0.0,0.0,0.0,0.0,0.0,0.0,0.0,0.0,0.0,0.0,0.0,0.0,0.0,0.0,0.0,0.0,0.0,0.0,0.0,0.0,0.0,0.0,0.0,0.0,0.0,0.0,0.0,0.0,0.0,0.0,0.0,0.0,0.0,0.0,0.0,0.0,0.0,0.0,0.0,0.0,0.0,0.0,0.0,0.0,0.0,0.0,0.0,0.0,0.0,0.0,0.0,0.0,0.0,0.0,0.0,0.0,0.0,0.0,0.0,0.0,0.0,0.0,0.0,0.0,0.0,0.0,0.0,0.0,0.0,0.0,0.0,0.0,-6.0084,-6.3034,-6.3862,-6.4639,-6.4218,-6.2081,-5.936,-5.6543,-5.3596,-4.9386,0.0,0.0,0.0,0.0,0.0,0.0,0.0,0.0,0.0,0.0,0.0,0.0,0.0,0.0,0.0,0.0,0.0,0.0,0.0,0.0,0.0,0.0,0.0,0.0,0.0,0.0,0.0,0.0,0.0,0.0,0.0,0.0,0.0,0.0,0.0,0.0,0.0,0.0,0.0,0.0,0.0,0.0,0.0,0.0,0.0,0.0,0.0,0.0,0.0,0.0,0.0,0.0,0.0,0.0,0.0,0.0,0.0,0.0,0.0,0.0,0.0,0.0,0.0,0.0,0.0,0.0,0.0,0.0,0.0,0.0,0.0,0.0,0.0,0.0,0.0,0.0,0.0,0.0,0.0,0.0,0.0,0.0,0.0,0.0,0.0,0.0,0.0,0.0,0.0,0.0,0.0,0.0,0.0,0.0,0.0,0.0,0.0,0.0,0.0,0.0,0.0,0.0,-6.1303,-6.4509,-6.5254,-6.5546,-6.4833,-6.2663,-5.9878,-5.664,-5.2851,0.0,0.0,0.0,0.0,0.0,0.0,0.0,0.0,0.0,0.0,0.0,0.0,0.0,0.0,0.0,0.0,0.0,0.0,0.0,0.0,0.0,0.0,0.0,0.0,0.0,0.0,0.0,0.0,0.0,0.0,0.0,0.0,0.0,0.0,0.0,0.0,0.0,0.0,0.0,0.0,0.0,0.0,0.0,0.0,0.0,0.0,0.0,0.0,0.0,0.0,0.0,0.0,0.0,0.0,0.0,0.0,0.0,0.0,0.0,0.0,0.0,0.0,0.0,0.0,0.0,0.0,0.0,0.0,0.0,0.0,0.0,0.0,0.0,0.0,0.0,0.0,0.0,0.0,0.0,0.0,0.0,0.0,0.0,0.0,0.0,0.0,0.0,0.0,0.0,0.0,0.0,0.0,0.0,0.0,0.0,0.0,0.0,0.0,0.0,0.0,0.0,0.0,-5.6964,-6.2145,-6.5546,-6.6064,-6.6096,-6.5157,-6.2761,-6.0137,-5.6663,-5.2171,0.0,0.0,0.0,0.0,0.0,0.0,0.0,0.0,0.0,0.0,0.0,0.0,0.0,0.0,0.0,0.0,0.0,0.0,0.0,0.0,0.0,0.0,0.0,0.0,0.0,0.0,0.0,0.0,0.0,0.0,0.0,0.0,0.0,0.0,0.0,0.0,0.0,0.0,0.0,0.0,0.0,0.0,0.0,0.0,0.0,0.0,0.0,0.0,0.0,0.0,0.0,0.0,0.0,0.0,0.0,0.0,0.0,0.0,0.0,0.0,0.0,0.0,0.0,0.0,0.0,0.0,0.0,0.0,0.0,0.0,0.0,0.0,0.0,0.0,0.0,0.0,0.0,0.0,0.0,0.0,0.0,0.0,0.0,0.0,0.0,0.0,0.0,0.0,0.0,0.0,0.0,0.0,0.0,0.0,0.0,0.0,0.0,0.0,0.0,0.0,0.0,0.0,-5.7029,-6.2566,-6.6096,-6.6096,-6.6129,-6.4963,-6.2081,-5.9834,-5.6501,0.0,0.0,0.0,0.0,0.0,0.0,0.0,0.0,0.0,0.0,0.0,0.0,0.0,0.0,0.0,0.0,0.0,0.0,0.0,0.0,0.0,0.0,0.0,0.0,0.0,0.0,0.0,0.0,0.0,0.0,0.0,0.0,0.0,0.0,0.0,0.0,0.0,0.0,0.0,0.0,0.0,0.0,0.0,0.0,0.0,0.0,0.0,0.0,0.0,0.0,0.0,0.0,0.0,0.0,0.0,0.0,0.0,0.0,0.0,0.0,0.0,0.0,0.0,0.0,0.0,0.0,0.0,0.0,0.0,0.0,0.0,0.0,0.0,0.0,0.0,0.0,0.0,0.0,0.0,0.0,0.0,0.0,0.0,0.0,0.0,0.0,0.0,0.0,0.0,0.0,0.0,0.0,0.0,0.0,0.0,0.0,0.0,0.0,0.0,0.0,0.0,0.0,0.0,-5.6563,-6.2055,-6.5556,-6.5556,-6.5924,-6.5282,-6.2971,-6.0821,-5.7708,-5.3246,0.0,0.0,0.0,0.0,0.0,0.0,0.0,0.0,0.0,0.0,0.0,0.0,0.0,0.0,0.0,0.0,0.0,0.0,0.0,0.0,0.0,0.0,0.0,0.0,0.0,0.0,0.0,0.0,0.0,0.0,0.0,0.0,0.0,0.0,0.0,0.0,0.0,0.0,0.0,0.0,0.0,0.0,0.0,0.0,0.0,0.0,0.0,0.0,0.0,0.0,0.0,0.0,0.0,0.0,0.0,0.0,0.0,0.0,0.0,0.0,0.0,0.0,0.0,0.0,0.0,0.0,0.0,0.0,0.0,0.0,0.0,0.0,0.0,0.0,0.0,0.0,0.0,0.0,0.0,0.0,0.0,0.0,0.0,0.0,0.0,0.0,0.0,0.0,0.0,0.0,0.0,0.0,0.0,0.0,0.0,0.0,0.0,0.0,0.0,0.0,0.0,0.0,-5.6187,-6.1551,-6.4975,-6.4975,-6.5562,-6.5243,-6.3429,-6.1838,-5.886,-5.3879,0.0,0.0,0.0,0.0,0.0,0.0,0.0,0.0,0.0,0.0,0.0,0.0,0.0,0.0,0.0,0.0,0.0,0.0,0.0,0.0,0.0,0.0,0.0,0.0,0.0,0.0,0.0,0.0,0.0,0.0,0.0,0.0,0.0,0.0,0.0,0.0,0.0,0.0,0.0,0.0,0.0,0.0,0.0,0.0,0.0,0.0,0.0,0.0,0.0,0.0,0.0,0.0,0.0,0.0,0.0,0.0,0.0,0.0,0.0,0.0,0.0,0.0,0.0,0.0,0.0,0.0,0.0,0.0,0.0,0.0,0.0,0.0,0.0,0.0,0.0,0.0,0.0,0.0,0.0,0.0,0.0,0.0,0.0,0.0,0.0,0.0,0.0,0.0,0.0,0.0,0.0,0.0,0.0,0.0,0.0,0.0,0.0,0.0,0.0,0.0,0.0,0.0,-5.582,-6.1072,-6.4417,-6.4417,-6.5112,-6.4934,-6.3546,-6.2838,-5.9934,-5.3999,0.0,0.0,0.0,0.0,0.0,0.0,0.0,0.0,0.0,0.0,0.0,0.0,0.0,0.0,0.0,0.0,0.0,0.0,0.0,0.0,0.0,0.0,0.0,0.0,0.0,0.0,0.0,0.0,0.0,0.0,0.0,0.0,0.0,0.0,0.0,0.0,0.0,0.0,0.0,0.0,0.0,0.0,0.0,0.0,0.0,0.0,0.0,0.0,0.0,0.0,0.0,0.0,0.0,0.0,0.0,0.0,0.0,0.0,0.0,0.0,-4.5561,-4.443,0.0,0.0,0.0,0.0,0.0,0.0,0.0,0.0,0.0,0.0,0.0,0.0,0.0,0.0,0.0,0.0,0.0,0.0,0.0,0.0,0.0,0.0,0.0,0.0,0.0,0.0,0.0,0.0,0.0,0.0,0.0,0.0,0.0,0.0,0.0,0.0,0.0,0.0,0.0,0.0,-5.543,-6.0568,-6.3881,-6.3881,-6.4924,-6.508,-6.3735,-6.2953,-6.0707,-5.6329,-5.2408,0.0,0.0,0.0,0.0,0.0,0.0,0.0,0.0,0.0,0.0,0.0,0.0,0.0,0.0,0.0,0.0,0.0,0.0,0.0,0.0,0.0,0.0,0.0,0.0,0.0,0.0,0.0,0.0,0.0,0.0,0.0,0.0,0.0,0.0,0.0,0.0,0.0,0.0,0.0,0.0,0.0,0.0,0.0,0.0,0.0,0.0,0.0,0.0,0.0,0.0,0.0,0.0,0.0,0.0,0.0,0.0,0.0,0.0,0.0,-4.8115,-4.6667,0.0,0.0,0.0,0.0,0.0,0.0,0.0,0.0,0.0,0.0,0.0,0.0,0.0,0.0,0.0,0.0,0.0,0.0,0.0,0.0,0.0,0.0,0.0,0.0,0.0,0.0,0.0,0.0,0.0,0.0,0.0,0.0,0.0,0.0,0.0,0.0,0.0,0.0,0.0,0.0,-5.4906,-6.0023,-6.3251,-6.3251,-6.4491,-6.4739,-6.3375,-6.26,-6.0408,-5.6201,-5.2496,0.0,0.0,0.0,0.0,0.0,0.0,0.0,0.0,0.0,0.0,0.0,0.0,0.0,0.0,0.0,0.0,0.0,0.0,0.0,0.0,0.0,0.0,0.0,0.0,0.0,0.0,0.0,0.0,0.0,0.0,0.0,0.0,0.0,0.0,0.0,0.0,0.0,0.0,0.0,0.0,0.0,0.0,0.0,0.0,0.0,0.0,0.0,0.0,0.0,0.0,0.0,0.0,0.0,-5.3324,-5.3806,-5.4791,-5.5037,-5.513,-5.4961,-5.2271,-5.0707,-5.005,-4.9955,0.0,0.0,0.0,0.0,0.0,0.0,0.0,0.0,0.0,0.0,0.0,0.0,0.0,0.0,0.0,0.0,0.0,0.0,0.0,0.0,0.0,0.0,-4.9774,-5.0112,-5.159,-5.2144,-4.9343,0.0,0.0,0.0,0.0,0.0,0.0,0.0,0.0,0.0,0.0,0.0,-5.4512,-5.9622,-6.2825,-6.2825,-6.4057,-6.4334,-6.2948,-6.2302,-6.0168,-5.5998,-5.2714,-4.9584,0.0,0.0,0.0,0.0,0.0,0.0,0.0,0.0,0.0,0.0,0.0,0.0,0.0,0.0,0.0,0.0,0.0,0.0,0.0,0.0,0.0,0.0,0.0,0.0,0.0,0.0,0.0,0.0,0.0,0.0,0.0,0.0,-4.3159,-4.3742,0.0,0.0,0.0,0.0,0.0,0.0,0.0,0.0,0.0,0.0,0.0,0.0,0.0,-5.194,-5.5162,-5.6464,-5.7208,-5.7363,-5.8912,-5.9378,-5.9039,-6.0209,-6.0732,-6.064,-5.9066,0.0,-5.3076,-5.2489,0.0,0.0,0.0,0.0,0.0,0.0,0.0,0.0,0.0,0.0,0.0,0.0,0.0,0.0,0.0,0.0,0.0,0.0,0.0,0.0,0.0,0.0,-5.436,-5.6146,-5.7223,-5.7715,-5.7285,-5.4453,-5.1634,-5.0368,-4.8986,-4.7012,0.0,0.0,0.0,0.0,0.0,0.0,-5.4636,-5.9622,-6.2825,-6.2825,-6.4057,-6.4334,-6.2948,-6.2733,-6.1462,-5.8721,-5.5875,-5.3472,-5.1452,-4.6408,0.0,0.0,0.0,0.0,0.0,0.0,0.0,0.0,0.0,0.0,0.0,0.0,0.0,0.0,0.0,0.0,0.0,0.0,0.0,0.0,0.0,0.0,0.0,0.0,0.0,0.0,0.0,0.0,0.0,-4.2417,-4.4664,-4.5125,-4.5172,-4.5203,0.0,0.0,0.0,0.0,0.0,0.0,0.0,0.0,0.0,-5.1499,-5.319,-5.5468,-5.8447,-6.0043,-6.1169,-6.1936,-6.3125,-6.3718,-6.381,-6.4395,-6.4672,-6.4641,-6.4057,-6.2579,-6.0301,-5.6946,-5.473,-5.3221,0.0,0.0,0.0,0.0,-5.0636,-5.2298,-5.4052,-5.3529,-5.1946,-5.1713,0.0,0.0,0.0,0.0,0.0,0.0,0.0,-4.9127,-5.2082,-5.436,-5.6176,-5.7469,-5.83,-5.8885,-5.9255,-5.7962,-5.6101,-5.399,-5.2479,-5.0425,-4.6708,-4.3747,0.0,0.0,0.0,-5.1166,-5.4931,-5.9397,-6.224,-6.224,-6.3133,-6.3318,-6.2333,-6.224,-6.1462,-5.9622,-5.7647,-5.5779,-5.4068,-4.8993,-4.597,0.0,0.0,0.0,0.0,0.0,0.0,0.0,0.0,0.0,0.0,0.0,0.0,0.0,0.0,0.0,0.0,0.0,0.0,0.0,0.0,0.0,0.0,0.0,0.0,0.0,0.0,0.0,0.0,-4.4287,-4.6749,-4.7353,-4.7576,-4.7502,0.0,0.0,0.0,0.0,0.0,0.0,-5.032,-5.1061,-5.2486,-5.477,-5.6415,-5.8503,-6.1065,-6.2677,-6.4178,-6.5411,-6.6088,-6.6673,-6.7165,-6.735,-6.7412,-6.7412,-6.7258,-6.6888,-6.6057,-6.1286,-5.8516,-5.7038,-5.4668,-5.396,-5.4237,-5.4083,-5.4976,-5.6546,-5.8423,-5.7962,-5.6436,-5.605,-5.3484,-5.0205,-4.8642,0.0,0.0,0.0,0.0,-5.2362,-5.4437,-5.6269,-5.7765,-5.8393,-5.8947,-5.9439,-5.9932,-6.0055,-5.9285,-5.673,-5.5284,-5.3252,-4.9343,-4.6142,0.0,-4.7281,-4.9251,-5.1775,-5.5499,-5.9378,-6.1809,-6.1809,-6.2425,-6.2548,-6.1871,-6.1809,-6.1317,-6.0116,-5.8793,-5.7463,-5.6158,-5.1515,-4.864,-4.7956,0.0,0.0,0.0,0.0,0.0,0.0,0.0,0.0,0.0,0.0,0.0,0.0,0.0,0.0,0.0,0.0,0.0,0.0,0.0,0.0,0.0,0.0,0.0,0.0,0.0,0.0,0.0,0.0,0.0,-5.1194,-5.206,0.0,0.0,0.0,0.0,-5.0682,-5.3061,-5.4546,-5.4577,-5.5262,-5.6113,-5.7299,-5.8633,-6.0482,-6.2834,-6.4232,-6.5551,-6.6827,-6.7504,-6.7843,-6.7904,-6.852,-6.8797,-6.8735,-6.815,-6.7843,-6.7596,-6.4703,-6.2733,-6.1163,-5.7919,-5.7395,-5.8393,-5.7795,-5.8793,-6.0701,-6.2086,-6.2086,-6.1172,-5.9655,-5.6256,-5.235,-5.0304,-5.0092,0.0,0.0,-5.4032,-5.5625,-5.7943,-5.907,-5.9809,-6.0486,-6.0671,-6.0701,-6.0732,-6.0763,-6.0147,-5.8054,-5.7148,-5.5577,-5.2082,0.0,-4.882,-5.0266,-5.1682,-5.356,-5.6409,-5.9686,-6.1809,-6.1809,-6.2425,-6.2548,-6.1871,-6.1809,-6.1502,-6.0794,-5.947,-5.86,-5.8287,-5.4835,-5.2085,-5.0283,-4.6289,0.0,0.0,0.0,0.0,0.0,0.0,0.0,0.0,0.0,0.0,0.0,0.0,0.0,0.0,0.0,0.0,0.0,0.0,0.0,0.0,0.0,0.0,0.0,0.0,0.0,0.0,0.0,0.0,-5.4578,-5.5008,0.0,-5.4789,-5.3923,-5.3857,-5.5028,-5.6705,-5.7805,-5.8226,-5.8467,-5.9345,-6.1061,-6.1601,-6.2819,-6.4931,-6.5814,-6.6742,-6.7566,-6.8212,-6.8551,-6.8551,-6.8766,-6.8889,-6.8858,-6.8212,-6.7935,-6.7781,-6.5934,-6.4364,-6.2856,-6.0332,-5.9655,-6.0055,-5.9809,-6.0455,-6.1656,-6.301,-6.2733,-6.1541,-5.9848,-5.8187,-5.6475,-5.4849,-5.4516,-5.4777,-5.4934,-5.6103,-5.7473,-5.8327,-5.9491,-6.0486,-6.0732,-6.0794,-6.0671,-6.024,-6.0147,-5.9686,-5.8085,-5.798,-5.7303,-5.4699,-5.2606,-5.1713,-5.3098,-5.3714,-5.5007,-5.7715,-5.987,-6.1163,-6.1163,-6.1379,-6.1409,-6.1194,-6.1163,-6.104,-6.0824,-6.0332,-5.988,-5.9444,-5.6308,-5.3853,-5.226,-4.7153,-4.35,0.0,0.0,0.0,0.0,0.0,0.0,0.0,0.0,0.0,0.0,0.0,0.0,0.0,0.0,0.0,0.0,0.0,0.0,0.0,0.0,0.0,0.0,0.0,0.0,0.0,-5.2606,-5.6068,-5.7543,-5.7926,-5.8,-5.7652,-5.6967,-5.6925,-5.7986,-5.9147,-5.9967,-6.0416,-6.0446,-6.1134,-6.269,-6.3169,-6.4266,-6.5966,-6.6877,-6.7657,-6.8243,-6.8674,-6.8889,-6.8889,-6.8889,-6.8889,-6.8858,-6.8427,-6.8243,-6.815,-6.6796,-6.5688,-6.4703,-6.2887,-6.2179,-6.2179,-6.2179,-6.2456,-6.2979,-6.3872,-6.3278,-6.2043,-6.0913,-6.0168,-5.9485,-5.8557,-5.8187,-5.7915,-5.7565,-5.8083,-5.8805,-5.8908,-5.9735,-6.0564,-6.0638,-6.0638,-6.0506,-5.9932,-5.9439,-5.8854,-5.798,-5.83,-5.8208,-5.6361,-5.4945,-5.4453,-5.5592,-5.5776,-5.6577,-5.8824,-6.0116,-6.0794,-6.0794,-6.0794,-6.0794,-6.0794,-6.0794,-6.0701,-6.0486,-6.0352,-5.9949,-5.9055,-5.6578,-5.434,-5.2468,-4.6907,-4.2893,-4.0531,0.0,0.0,0.0,0.0,0.0,0.0,0.0,0.0,0.0,0.0,0.0,0.0,0.0,0.0,0.0,0.0,0.0,0.0,0.0,0.0,0.0,0.0,0.0,-5.099,-5.5299,-5.871,-6.0057,-6.0997,-6.0962,-5.9398,-6.009,-6.018,-5.9308,-6.0446,-6.1164,-6.1134,-6.1104,-6.1403,-6.2061,-6.3288,-6.4569,-6.5966,-6.7361,-6.8329,-6.8889,-6.8889,-6.8889,-6.8889,-6.8889,-6.8889,-6.8889,-6.8889,-6.8889,-6.8797,-6.7442,-6.6919,-6.6796,-6.5411,-6.4888,-6.4888,-6.4888,-6.4888,-6.4888,-6.4888,-6.407,-6.3022,-6.3022,-6.2208,-6.1164,-6.1134,-6.0625,-6.0141,-6.0355,-5.9982,-5.9523,-5.9849,-5.9986,-6.0039,-6.0324,-6.0377,-6.0298,-5.985,-5.8701,-5.7777,-5.7795,-5.83,-5.8381,-5.7056,-5.6871,-5.7118,-5.7795,-5.7888,0.0,-5.9655,-6.0393,-6.0794,-6.0794,-6.0794,-6.0794,-6.0763,-6.0763,-6.0455,-5.9809,-5.9461,-5.8611,-5.7146,-5.5653,-5.3579,-5.091,-4.5674,-4.1349,-3.8158,0.0,0.0,0.0,0.0,0.0,0.0,0.0,0.0,0.0,0.0,0.0,0.0,0.0,0.0,0.0,0.0,0.0,0.0,0.0,0.0,0.0,-4.8743,-5.1869,-5.3813,-5.7663,-6.0954,-6.272,-6.3137,-6.3316,-6.3378,-6.2777,-6.2475,-6.263,-6.257,-6.2331,-6.1852,-6.0894,-6.0894,-6.2061,-6.245,-6.3697,-6.5966,-6.7361,-6.8329,-6.8889,-6.8889,-6.8889,-6.8889,-6.8889,-6.8889,-6.8889,-6.8889,-6.8889,-6.8797,-6.7442,-6.6919,-6.6796,-6.5411,-6.4888,-6.4888,-6.4888,-6.4888,-6.4888,-6.4888,-6.4376,-6.372,-6.372,-6.3203,-6.2361,-6.1403,-6.0625,-5.9877,-5.9027,-5.8467,-5.8286,-5.8821,-5.91,-5.9431,-5.997,-6.025,-6.0123,-5.9012,-5.8293,-5.7672,-5.7179,-5.7641,-5.798,-5.7611,-5.7949,-5.8454,-5.9131,-5.9224,-5.9562,-6.0424,-6.0701,-6.0794,-6.0794,-6.0794,-6.0609,-6.0116,-5.9624,-5.9204,-5.8817,-5.7466,-5.6485,-5.6169,-5.4475,-5.1799,-4.7878,-4.4975,-4.2072,0.0,0.0,0.0,0.0,0.0,0.0,0.0,0.0,0.0,0.0,0.0,0.0,0.0,0.0,0.0,0.0,0.0,0.0,0.0,0.0,0.0,0.0,-5.1984,-5.4867,-5.7088,-6.0013,-6.2435,-6.3832,-6.4011,-6.404,-6.4189,-6.3535,-6.3119,-6.3178,-6.2851,-6.2257,-6.1335,-6.0377,-6.0343,-6.1473,-6.1885,-6.3279,-6.5791,-6.7242,-6.8238,-6.8713,-6.883,-6.8889,-6.8889,-6.8889,-6.8889,-6.8889,-6.8889,-6.8889,-6.8797,-6.7442,-6.6919,-6.6796,0.0,0.0,0.0,0.0,-6.4888,-6.4888,-6.4888,-6.4499,-6.3993,-6.3993,-6.3595,-6.2839,-6.1523,-6.0446,-5.9398,-5.8052,-5.7139,-5.6723,-5.7415,-5.788,-5.8398,-5.9199,-5.972,-5.9757,-5.8796,-5.8003,-5.7358,-5.7058,-5.7303,0.0,-5.8146,-5.9008,-5.9747,-6.0147,-6.0209,-6.0363,-6.0763,-6.0794,-6.0794,-6.0794,-6.0794,-6.064,-6.024,-5.9593,0.0,0.0,0.0,-5.5547,-5.4498,-5.2751,0.0,0.0,0.0,0.0,0.0,-4.2677,0.0,0.0,-4.1964,-4.3573,0.0,0.0,0.0,0.0,0.0,0.0,0.0,0.0,0.0,0.0,0.0,0.0,0.0,0.0,0.0,0.0,-5.4584,-5.688,-5.9772,-6.1655,-6.2961,-6.3667,-6.3754,-6.352,-6.2904,-6.2787,-6.2494,-6.1938,-6.1761,-6.1263,-6.0118,-5.9637,0.0,0.0,0.0,-6.3222,-6.5498,-6.7123,-6.8059,-6.8386,-6.8713,-6.8889,-6.8889,-6.8889,-6.8889,-6.8889,-6.8889,-6.8889,-6.8797,-6.7442,-6.6827,-6.6581,-6.5349,-6.4888,-6.4888,-6.4888,-6.4888,-6.4888,-6.4832,0.0,0.0,-6.3993,-6.3538,-6.2839,-6.1523,-6.0176,-5.883,-5.7483,-5.6166,-5.5359,-5.6077,-5.6735,-5.7476,-5.852,-5.9175,-5.9492,-5.9039,-5.7961,-5.7072,-5.7323,-5.7423,-5.7737,-5.8662,-5.9963,-6.0794,-6.0794,-6.0794,-6.0794,-6.0794,-6.0794,-6.0794,-6.0794,-6.0794,0.0,-6.0701,-6.0055,-5.9276,-5.8349,-5.7011,-5.5064,-5.2484,-5.0814,-4.9228,-4.7862,-4.7215,-4.6089,-4.4351,-4.5538,-4.6205,-4.6426,-4.5543,-4.6242,0.0,0.0,0.0,0.0,0.0,0.0,0.0,0.0,0.0,0.0,0.0,0.0,0.0,0.0,0.0,-5.3169,-5.4586,-5.622,-5.8609,-5.9858,-6.1039,-6.2174,-6.2295,-6.204,-6.1443,-6.0961,-6.062,-6.0506,-5.9995,-5.9554,-5.9322,-5.8726,-5.9214,-6.0935,-6.1717,-6.3222,-6.5498,-6.6884,-6.7879,-6.8386,-6.8446,0.0,-6.8889,-6.8889,-6.8889,-6.8889,-6.8889,-6.8889,-6.8797,-6.7442,-6.6273,-6.5257,-6.5011,-6.4888,-6.4888,-6.4888,-6.4888,-6.4832,-6.4579,-6.43,-6.3993,-6.3709,-6.3367,-6.2839,-6.1523,-6.0176,0.0,-5.7483,-5.6166,-5.5448,-5.6615,-5.7423,-5.8231,-5.9483,-6.006,-6.0132,-5.9523,-5.8503,-5.7719,-5.777,-5.8024,-5.844,-5.9165,-6.0116,-6.0794,-6.0794,-6.0794,-6.0794,-6.0794,-6.0794,-6.0794,-6.0794,-6.0794,-6.0578,-6.0024,-5.9378,-5.857,-5.7645,-5.533,-5.3195,-5.1214,-4.9957,-4.89,-4.8145,-4.7307,-4.6634,-4.6015,-4.7205,-4.7999,-4.849,-4.8162,-4.9429,0.0,0.0,0.0,0.0,0.0,0.0,0.0,0.0,0.0,0.0,0.0,-4.7566,-4.8981,0.0,-5.2067,-5.3666,-5.4676,-5.5839,-5.7432,-5.8058,-5.9031,-6.0756,-6.0914,-6.0691,-6.0105,-5.9771,-5.9464,-5.9157,-5.8759,-5.8625,-5.8677,-5.8457,-5.9132,-6.0881,-6.1989,-6.3436,-6.5261,-6.6764,-6.7638,-6.7939,-6.8298,-6.8505,-6.8654,-6.883,-6.8889,-6.8889,-6.8889,-6.8889,-6.8797,-6.7812,-6.6827,-6.5873,-6.5534,-6.5195,-6.4888,-6.4888,-6.4777,-6.4635,-6.4437,-6.4132,-6.3709,-6.3508,-6.3309,-6.2839,-6.1523,-6.0416,-5.9308,-5.7992,-5.6915,-5.6376,-5.7363,-5.8112,-5.886,-5.9847,-6.0196,-6.0216,-5.9885,-5.9152,-5.8535,-5.8692,-5.8849,-5.9127,-5.9618,-6.0089,-6.0512,-6.0742,-6.0794,-6.0794,-6.0794,-6.0794,-6.0794,-6.0794,-6.0794,-6.0671,-6.0332,-5.943,-5.8349,-5.7092,-5.5202,-5.3431,-5.1793,-5.092,-5.0078,-4.938,-4.9042,-4.8512,-4.7823,-4.927,-5.0167,-5.0434,-5.1274,-5.2392,0.0,0.0,0.0,0.0,0.0,0.0,0.0,-4.4534,-4.5114,-4.7022,-4.8457,-4.9753,-5.0995,-5.2056,-5.2967,-5.3821,-5.4485,-5.5159,-5.6187,-5.641,-5.7085,-5.8669,-5.9057,-5.8975,-5.8362,-5.8308,-5.8089,-5.7569,-5.7542,-5.7641,-5.7951,-5.8459,-5.9385,-6.091,-6.2437,-6.3887,-6.5203,-6.6523,-6.7276,-6.7487,-6.7999,-6.8298,-6.8358,-6.8595,-6.8772,-6.883,-6.8889,-6.8828,-6.8643,-6.815,-6.7535,-6.6858,-6.6304,-6.5632,-6.4961,-6.4838,-6.4635,-6.4382,-6.427,-6.3906,-6.3481,-6.3424,-6.3309,-6.2839,-6.1672,-6.0835,-6.0027,-5.883,-5.8022,-5.7633,-5.8321,-5.9009,-5.9668,-6.0326,-6.0475,-6.0446,-6.0326,-5.9757,-5.9303,-5.9399,-5.9476,-5.9583,-5.988,-5.9963,-6.0144,-6.0586,-6.0638,-6.0638,-6.0638,-6.0638,-6.0638,-6.0638,-6.0638,-6.0638,-6.0638,-5.961,-5.8395,-5.7079,-5.5909,-5.4638,-5.321,-5.2556,-5.1846,-5.0933,-5.109,-5.0577,-4.9404,-5.12,-5.2081,-5.2154,-5.4033,-5.489,-3.7913,-3.9881,-4.323,-4.5323,-4.677,-4.7744,0.0,-4.8638,-4.9191,-4.956,-5.1379,-5.2641,-5.2072,-5.2349,-5.2862,-5.3479,-5.3376,-5.361,-5.4743,-5.5129,-5.5165,-5.4879,-5.5761,-5.6182,-5.5563,-5.5577,-5.5484,-5.5432,-5.5405,-5.5947,-5.7167,-5.8362,-5.992,-6.1861,-6.3209,-6.4545,-6.5892,-6.6041,-6.6582,-6.7487,-6.7608,-6.7789,-6.803,-6.809,-6.8238,-6.8446,-6.8772,-6.8551,-6.8027,-6.7966,-6.7535,-6.6919,-6.6827,-6.6195,-6.5264,-6.4682,-6.4437,-6.4326,-6.3793,-6.3565,-6.3481,-6.3252,-6.3137,-6.2929,-6.2211,-6.1523,-6.0835,-6.0086,-5.9398,-5.9039,-5.9697,-6.0386,-6.1074,-6.1702,-6.1882,-6.1702,-6.1134,-6.0446,-5.9817,-5.9273,-5.9315,-5.9529,-5.9529,-5.9827,-6.0016,-6.0039,-6.0122,-6.0122,-6.0122,-6.0122,-6.0122,-6.0122,-6.0122,-6.0122,-6.0122,-5.9348,-5.8737,-5.8384,-5.7438,-5.6314,-5.5155,-5.4227,-5.3369,-5.2462,-5.2184,-5.1567,-5.0628,-5.2256,-5.316,-5.3388,-5.5302,-5.6475,-4.1107,-4.321,-4.6202,-4.8596,-5.075,-5.2318,-5.2218,-5.2338,-5.2552,-5.2955,-5.322,-5.3389,-5.3157,-5.256,-5.2124,-5.2359,-5.2571,-5.2991,-5.3842,-5.459,-5.4759,-5.3844,-5.3844,-5.3975,-5.4105,-5.4393,-5.4576,-5.4576,-5.4916,-5.5604,-5.6758,-5.8115,-5.9482,-6.0933,-6.2823,-6.401,-6.4576,-6.5502,-6.6012,-6.6042,-6.6673,-6.6763,-6.6579,-6.6757,-6.7206,-6.7895,-6.8043,-6.8221,-6.8489,-6.8489,-6.8335,-6.7997,-6.7024,-6.6361,-6.588,-6.5207,-6.4493,-6.3849,-6.3565,-6.3424,-6.3252,-6.3137,-6.3079,-6.3019,-6.275,-6.248,-6.2211,-6.1912,-6.1613,-6.1463,-6.1762,-6.2032,-6.2331,-6.26,-6.2361,-6.2032,-6.1732,-6.0835,-5.9997,-5.9727,-5.9477,-5.9261,-5.9261,-5.9369,-5.9506,-5.9506,-5.9773,-6.0016,-6.0016,-6.0016,-6.0016,-6.0016,-6.0016,-6.0016,-6.0016,-5.9554,-5.9063,-5.8625,-5.7842,-5.6954,-5.5957,-5.5425,-5.4873,-5.4354,-5.4174,-5.3726,-5.2984,-5.4228,-5.4911,-5.5169,-5.6528,-5.7647,-4.3648,-4.5963,-4.8716,-5.1139,-5.3743,-5.5616,-5.5226,-5.5166,-5.514,-5.4827,-5.3982,-5.3341,-5.3313,-5.2139,-5.1282,-5.1779,-5.2354,-5.2955,-5.353,-5.4471,-5.468,-5.353,-5.2877,-5.2537,-5.2668,-5.3321,-5.387,-5.4184,-5.4759,-5.5472,-5.6432,-5.7542,-5.8683,-5.9858,-6.1901,-6.3091,-6.3446,-6.4815,-6.5323,-6.5024,-6.5742,-6.5831,-6.538,-6.5674,-6.6239,-6.693,-6.7047,-6.7497,-6.8102,-6.8102,-6.8102,-6.801,-6.6797,-6.6104,-6.5833,-6.5346,-6.4452,-6.3481,-6.3424,-6.3252,-6.3079,-6.3079,-6.3079,-6.3079,-6.3079,-6.3079,-6.3079,-6.3079,-6.3079,-6.3079,-6.3079,-6.3079,-6.3079,-6.3079,-6.272,-6.2331,-6.2121,-6.1343,-6.0535,-6.0146,-5.9697,-5.9308,-5.9021,-5.8991,-5.8936,-5.8882,-5.9207,-5.956,-5.972,-5.972,-5.972,-5.972,-5.972,-5.972,-5.972,-5.9529,-5.9212,-5.879,-5.8327,-5.7767,-5.7108,-5.6716,-5.6412,-5.6221,-5.6113,-5.5733,-5.4998,-5.6023,-5.6509,-5.6594,-5.7443,-5.8335,-4.4556,-4.7638,-5.0584,-5.2606,-5.5089,-5.6877,-5.6379,-5.695,-5.6841,-5.4177,-5.343,-5.2934,-5.1944,-5.0767,-5.0498,-5.2197,-5.2981,-5.3556,-5.4105,-5.4707,-5.468,-5.353,-5.2877,-5.2067,-5.0969,-5.1884,-5.3008,-5.4131,-5.4759,-5.5432,-5.6066,-5.6796,-5.777,-5.9121,-6.0442,-6.1815,-6.3119,-6.3742,-6.4395,-6.5024,-6.5054,-6.5054,-6.5024,-6.538,-6.5498,-6.5587,-6.588,-6.6085,-6.6085,-6.6085,-6.6085,-6.6085,-6.6055,-6.5456,-6.4561,-6.4531,-6.4051,-6.3481,-6.3194,-6.3137,-6.3079,-6.3079,-6.3079,-6.3079,-6.3079,-6.3079,-6.3079,-6.3079,-6.3079,-6.3079,-6.3079,-6.3079,-6.3079,-6.3079,-6.3049,-6.2869,-6.2241,-6.2061,-6.1642,-6.0326,-6.0057,-5.9792,-5.8838,-5.8719,-5.8609,-5.825,-5.825,-5.847,-5.9045,-5.9099,-5.9099,-5.9099,-5.9099,-5.9099,-5.9099,-5.9099,-5.9099,-5.9069,-5.9069,-5.9069,-5.8985,-5.8387,-5.8028,-5.8028,-5.7737,-5.7197,-5.6261,-5.7263,-5.7555,-5.7216,-5.7889,-5.8555,-4.6322,-4.9673,-5.2755,-5.5179,-5.7782,-5.9648,-5.9232,-5.9266,-5.8755,-5.6421,-5.4352,-5.2761,-5.2071,-5.1152,-5.0917,-5.2276,-5.3295,-5.4131,-5.4707,-5.4968,-5.468,-5.353,-5.2511,-5.1596,-5.0864,-5.1152,-5.1675,-5.2406,-5.34,-5.4302,-5.5101,-5.6191,-5.7285,-5.8487,-5.9986,-6.1193,-6.2114,-6.3357,-6.3917,-6.3737,-6.3737,-6.3737,-6.3737,-6.3854,-6.4238,-6.4804,-6.4921,-6.5367,-6.5966,-6.5966,-6.5966,-6.5936,-6.5276,-6.48,-6.4412,-6.3817,-6.3432,-6.3252,-6.3137,-6.3079,-6.3079,-6.3079,-6.3079,-6.3079,-6.3079,-6.3079,-6.3079,-6.3079,-6.3079,-6.3079,-6.3079,-6.3079,-6.3079,-6.3079,-6.3079,-6.3019,-6.278,-6.2391,-6.1972,-6.1493,-6.0685,-5.9972,-5.9487,-5.846,-5.7414,-5.6509,-5.7387,-5.839,-5.8773,-5.8828,-5.8882,-5.9099,-5.9099,-5.9099,-5.9099,-5.9099,-5.9099,-5.9099,-5.9099,-5.9099,-5.9099,-5.889,-5.877,-5.877,-5.85,-5.8119,-5.7566,-5.7941,-5.7974,-5.7889,-5.8305,-5.8719,-4.8327,-5.1558,-5.4401,-5.6555,-5.9129,-6.0872,-6.0086,-6.0231,-5.9655,-5.6651,-5.395,-5.1916,-5.1278,-5.0425,-5.0427,-5.236,-5.3517,-5.4471,-5.5282,-5.5229,-5.4759,-5.3792,-5.2825,-5.1936,-5.1152,-5.0707,-5.0707,-5.1256,-5.2197,-5.3214,-5.4169,-5.5418,-5.6628,-5.7788,-5.9307,-6.0534,-6.1405,-6.2912,-6.3468,-6.3079,-6.3079,-6.3079,-6.3079,-6.3079,-6.3404,-6.4026,-6.4026,-6.4382,-6.4979,-6.4979,-6.4979,-6.486,-6.4264,-6.4026,-6.3908,-6.3344,-6.3079,-6.3079,-6.3079,-6.3079,-6.3079,-6.3079,-6.3079,-6.3079,-6.3079,-6.3079,-6.3079,-6.3079,-6.3079,-6.3079,-6.3079,-6.3079,-6.3079,-6.3079,-6.3079,-6.3079,-6.3079,-6.275,-6.2361,-6.2007,-6.1204,-6.038,-5.9524,-5.7915,-5.642,-5.5544,-5.6365,-5.733,-5.8085,-5.836,-5.8664,-5.9045,-5.9099,-5.9099,-5.9099,-5.9099,-5.9099,-5.9099,-5.9099,-5.9099,-5.9099,-5.9099,-5.9099,-5.9099,-5.8936,-5.8719,-5.8525,-5.8525,-5.8525,-5.8555,-5.8719,-5.8966,-5.0541,-5.3354,-5.5688,-5.6974,-5.9249,-6.0779,-5.922,-6.007,-5.9822,-5.5076,-5.2427,-5.0612,-4.9638,-4.8644,-4.9054,-5.2253,-5.3567,-5.4576,-5.5674,-5.5412,-5.4889,-5.4314,-5.3766,-5.2981,-5.1805,-5.0629,-5.0185,-5.0786,-5.1309,-5.2119,-5.3347,-5.4471,-5.5736,-5.7082,-5.8404,-5.9773,-6.1106,-6.2438,-6.3079,-6.3079,-6.3079,-6.3079,-6.3079,-6.3079,-6.3079,-6.3079,-6.3079,-6.3079,-6.3079,-6.3079,-6.3079,-6.3079,-6.3079,-6.3079,-6.3079,-6.3079,-6.3079,-6.3079,-6.3079,-6.3079,-6.3079,-6.3079,-6.3079,-6.3079,-6.3079,-6.3079,-6.3079,-6.3079,-6.3079,-6.3079,-6.3079,-6.3079,-6.3079,-6.3079,-6.3079,-6.3079,-6.3079,-6.3079,-6.2812,-6.184,-6.1547,-6.0849,-5.8838,-5.6996,-5.5705,-5.5287,-5.5091,-5.544,-5.6991,-5.7722,-5.839,-5.8991,-5.9045,-5.9099,-5.9099,-5.9099,-5.9099,-5.9099,-5.9099,-5.9099,-5.9099,-5.9099,-5.9099,-5.9099,-5.9099,-5.9099,-5.9099,-5.9099,-5.9099,-5.9099,-5.9129,-5.9159,-5.3264,-5.6107,-5.8411,-5.9757,-6.0984,-6.1762,-6.1291,-6.1562,-6.0588,-5.6208,-5.3267,-5.096,-4.928,-4.8375,-4.8527,-5.0602,-5.2807,-5.4314,-5.4602,-5.4916,-5.5046,-5.4889,-5.4367,-5.3713,-5.3008,-5.1492,-5.0786,-5.1335,-5.1518,-5.2119,-5.3347,-5.4471,-5.5736,-5.7082,-5.8404,-5.9773,-6.1106,-6.2438,-6.3079,-6.3079,-6.3079,-6.3079,-6.3079,-6.3079,-6.3079,-6.3079,-6.3079,-6.3079,-6.3079,-6.3079,-6.3079,-6.3079,-6.3079,-6.3079,-6.3079,-6.3079,-6.3079,-6.3079,-6.3079,-6.3079,-6.3079,-6.3079,-6.3079,-6.3079,-6.3079,-6.3079,-6.3079,-6.3079,-6.3079,-6.3079,-6.3079,-6.3079,-6.3079,-6.3079,-6.3079,-6.3079,-6.3079,-6.3079,-6.2961,-6.2435,-6.097,-5.9025,-5.6559,-5.5566,-5.4637,-5.3422,-5.361,-5.4539,-5.6365,-5.6964,-5.7613,-5.8664,-5.8773,-5.8882,-5.9099,-5.9099,-5.9099,-5.9099,-5.9099,-5.9099,-5.9099,-5.9099,-5.9099,-5.9099,-5.9099,-5.9099,-5.9099,-5.9099,-5.9099,-5.9129,-5.9608,-5.9847,-5.5209,-5.7752,-5.9638,-6.0116,-6.1403,-6.2061,-6.0296,-6.0356,-5.9434,-5.4556,-5.1591,-4.9562,-4.8353,-4.7466,-4.789,-5.0628,-5.2642,-5.3997,-5.4328,-5.4354,-5.4367,-5.4367,-5.4053,-5.3778,-5.362,-5.2865,-5.2543,-5.3022,-5.2135,-5.2119,-5.3347,-5.4471,-5.5736,-5.7082,-5.8404,-6.0018,-6.1969,-6.2701,-6.3079,-6.3079,-6.3079,-6.3079,-6.3079,-6.3079,-6.3079,-6.3079,-6.3079,-6.3079,-6.3079,-6.3079,-6.3079,-6.3079,-6.3079,-6.3079,-6.3079,-6.3079,-6.3258,-6.3468,-6.3468,-6.3677,-6.3827,-6.3258,-6.3079,-6.3079,-6.3079,-6.3079,-6.3079,-6.3079,-6.3079,-6.3079,-6.3079,-6.3079,-6.3079,-6.3079,-6.3079,-6.3079,-6.2905,-6.2905,-6.2615,-6.1673,-5.9912,-5.7945,-5.6142,-5.5391,-5.4741,-5.3783,-5.3927,-5.4608,-5.5926,-5.6186,-5.6708,-5.7889,-5.8305,-5.8664,-5.9045,-5.9099,-5.9099,-5.9099,-5.9099,-5.9099,-5.9099,-5.9099,-5.9099,-5.9099,-5.9099,-5.9099,-5.9099,-5.9099,-5.9099,-5.9129,-5.9787,-6.0086,-5.6735,-5.889,-6.0296,-5.9548,-6.1164,-6.1912,-5.7992,-5.7812,-5.6952,-5.1572,-4.8771,-4.7227,-4.7166,-4.6613,-4.7471,-5.1371,-5.2863,-5.3724,-5.4387,-5.371,-5.3164,-5.3164,-5.3217,-5.3424,-5.3953,-5.4469,-5.4905,-5.5285,-5.3627,-5.2965,-5.3775,-5.4787,-5.6039,-5.7441,-5.878,-6.0627,-6.3079,-6.3079,-6.3079,-6.3079,-6.3079,-6.3079,-6.3079,-6.3079,-6.3079,-6.3079,-6.3079,-6.3079,-6.3079,-6.3079,-6.3079,-6.3079,-6.3079,-6.3079,-6.3079,-6.3079,-6.3468,-6.4006,-6.4006,-6.4455,-6.4844,-6.3707,-6.3348,-6.3318,-6.3228,-6.3199,-6.3169,-6.3109,-6.3079,-6.3079,-6.3079,-6.3079,-6.3079,-6.3079,-6.3079,-6.3021,-6.2673,-6.2439,-6.1732,-6.0047,-5.8522,-5.7275,-5.6536,-5.5874,-5.5397,-5.5328,-5.522,-5.5311,-5.5702,-5.5599,-5.5932,-5.7163,-5.7751,-5.8445,-5.9045,-5.9099,-5.9099,-5.9099,-5.9099,-5.9099,-5.9099,-5.9189,-5.9249,-5.9249,-5.9308,-5.9368,-5.9368,-5.9368,-5.9368,-5.9398,-6.0057,-6.0356,-5.8471,-6.0625,-6.2271,-6.1074,-6.1523,-6.1343,-5.7872,-5.6047,-5.3862,-4.9598,-4.7103,-4.5781,-4.6077,-4.7085,-4.8681,-5.1205,-5.2966,-5.3893,-5.3439,-5.2526,-5.191,-5.191,-5.2354,-5.308,-5.4219,-5.574,-5.6922,-5.7468,-5.7688,-5.7189,-5.5861,-5.6381,-5.7606,-5.9527,-6.0595,-6.1762,-6.3079,-6.3079,-6.3079,-6.3079,-6.3079,-6.3079,-6.3079,-6.3079,-6.3079,-6.3079,-6.3079,-6.3079,-6.3079,-6.3079,-6.3079,-6.3079,-6.3079,-6.3079,-6.3079,-6.3079,-6.3468,-6.4006,-6.4006,-6.4455,-6.4934,-6.4755,-6.4695,-6.4575,-6.4006,-6.3827,-6.3737,-6.3228,-6.3079,-6.3079,-6.3079,-6.3079,-6.3079,-6.3079,-6.3079,-6.3021,-6.2673,-6.1494,-5.9924,-5.7961,-5.7157,-5.6471,-5.5538,-5.5723,-5.5981,-5.5996,-5.6305,-5.6213,-5.557,-5.5712,-5.6286,-5.7456,-5.7792,-5.8225,-5.9045,-5.9099,-5.9099,-5.9099,-5.9099,-5.9099,-5.9099,-5.9638,-5.9907,-5.9907,-6.0475,-6.0775,-6.0775,-6.0775,-6.0775,-6.0775,-6.1433,-6.1762,-5.9428,-6.1553,-6.2989,-6.0655,-6.0835,-6.0356,-5.5628,-5.3294,-5.102,-4.704,-4.4915,-4.4037,-4.4763,-4.5698,-4.7282,-5.0239,-5.2128,-5.3151,-5.2852,-5.1868,-5.1336,-5.1629,-5.1922,-5.2807,-5.4758,-5.6828,-5.8431,-5.9149,-5.9801,-5.9447,-5.7862,-5.8328,-5.9279,-6.0595,-6.1405,-6.2292,-6.3079,-6.3079,-6.3079,-6.3079,-6.3079,-6.3079,-6.3079,-6.3079,-6.3079,-6.3079,-6.3079,-6.3079,-6.3079,-6.3079,-6.3079,-6.3079,-6.3079,-6.3079,-6.3079,-6.3079,-6.3707,-6.4545,-6.4545,-6.5203,-6.6041,-6.6041,-6.5592,-6.4964,-6.4635,-6.4276,-6.3947,-6.3647,-6.3318,-6.3079,-6.3079,-6.3079,-6.3079,-6.2905,-6.2292,-6.1732,-6.1375,-6.0014,-5.8459,-5.7092,-5.6405,-5.5842,-5.5232,-5.567,-5.626,-5.6813,-5.6941,-5.6859,-5.6595,-5.6576,-5.6675,-5.6927,-5.7542,-5.83,-5.9021,-5.9099,-5.9099,-5.9099,-5.9099,-5.9099,-5.9099,-5.9727,-6.0086,-6.0086,-6.0775,-6.1104,-6.1104,-6.1104,-6.1104,-6.1134,-6.1792,-6.2091,-6.0176,-6.2121,-6.3199,-5.9937,-5.9787,-5.8919,-5.2935,-5.0212,-4.7924,-4.4407,-4.2641,-4.2094,-4.3209,-4.3885,-4.5419,-4.8943,-5.0872,-5.2069,-5.2435,-5.1343,-5.0865,-5.1632,-5.1765,-5.2849,-5.5381,-5.8001,-5.9801,-6.0531,-6.1195,-6.0957,-5.956,-6.0079,-6.0716,-6.1286,-6.191,-6.2468,-6.3079,-6.3079,-6.3079,-6.3079,-6.3079,-6.3079,-6.3079,-6.3079,-6.3079,-6.3079,-6.3079,-6.3079,-6.3079,-6.3079,-6.3079,-6.3079,-6.3079,-6.3079,-6.3079,-6.3079,-6.3827,-6.4844,-6.4934,-6.5802,-6.6819,-6.6939,-6.6281,-6.5413,-6.5293,-6.4874,-6.4395,-6.4246,-6.3857,-6.3468,-6.3318,-6.3258,-6.3113,-6.2439,-6.1375,-6.032,-5.9617,-5.8396,-5.7211,-5.6405,-5.5842,-5.5432,-5.5165,-5.567,-5.6432,-5.735,-5.7377,-5.734,-5.7478,-5.7567,-5.7348,-5.6669,-5.7682,-5.8717,-5.9469,-5.9548,-5.9548,-5.9548,-5.9548,-5.9548,-5.9548,-6.0176,-6.0505,-6.0505,-6.1194,-6.1523,-6.1523,-6.1523,-6.1523,-6.1553,-6.2061,-6.2301,-6.1014,-6.248,-6.3199,-5.9937,-5.874,-5.6855,-5.09,-4.71,-4.4257,-4.2102,-4.0606,-4.0098,-4.1414,-4.2662,-4.4512,-4.7525,-4.9407,-5.0867,-5.1895,-5.0759,-5.0283,-5.1567,-5.2128,-5.3445,-5.6079,-5.9096,-6.1226,-6.185,-6.2526,-6.2321,-6.0957,-6.1286,-6.1613,-6.1969,-6.2351,-6.2731,-6.3079,-6.3079,-6.3079,-6.3079,-6.3079,-6.3079,-6.3079,-6.3079,-6.3079,-6.3079,-6.3079,-6.3079,-6.3079,-6.3079,-6.3079,-6.3079,-6.3079,-6.3079,-6.3079,-6.3079,-6.3498,-6.4186,-6.4814,-6.5503,-6.6191,-6.6789,-6.6909,-6.67,-6.6101,-6.5892,-6.5712,-6.5114,-6.4904,-6.4695,-6.4066,-6.3917,-6.3445,-6.1671,-6.0684,-5.9617,-5.777,-5.7028,-5.6405,-5.5405,-5.5165,-5.5165,-5.5099,-5.567,-5.6367,-5.7028,-5.7414,-5.7478,-5.7157,-5.7988,-5.8404,-5.7992,-5.8658,-5.9623,-6.0813,-6.0924,-6.0924,-6.0924,-6.0924,-6.0924,-6.0924,-6.1553,-6.1912,-6.1912,-6.257,-6.2899,-6.2899,-6.2899,-6.2899,-6.2899,-6.2959,-6.2989,-5.9787,-6.1642,-6.254,-5.883,-5.7423,-5.5388,-4.9434,-4.5813,-4.318,-4.1205,-4.0068,-3.9709,-4.0636,-4.1534,-4.3041,-4.5611,-4.743,-4.9076,-5.0569,-5.0119,-5.0103,-5.1413,-5.21,-5.3407,-5.5829,-5.8722,-6.1115,-6.2584,-6.2963,-6.2875,-6.2321,-6.2468,-6.2585,-6.2701,-6.2847,-6.2963,-6.3079,-6.3079,-6.3079,-6.3079,-6.3079,-6.3079,-6.3079,-6.3079,-6.3079,-6.3079,-6.3079,-6.3079,-6.3079,-6.3079,-6.3079,-6.3079,-6.3079,-6.3079,-6.3079,-6.3079,-6.3468,-6.4036,-6.4306,-6.5114,-6.6041,-6.6311,-6.667,-6.6939,-6.667,-6.6311,-6.5951,-6.5682,-6.5323,-6.4964,-6.4695,-6.401,-6.3002,-6.1222,-5.9986,-5.8746,-5.7157,-5.6405,-5.5842,-5.5232,-5.5099,-5.5099,-5.5099,-5.5472,-5.6039,-5.6704,-5.6731,-5.6731,-5.6769,-5.7597,-5.825,-5.8665,-5.9345,-6.0092,-6.1022,-6.1104,-6.1104,-6.1104,-6.1104,-6.1104,-6.1104,-6.1732,-6.2091,-6.2091,-6.275,-6.3079,-6.3079,-6.3079,-6.3079,-6.3079,-6.3079,-6.3021,-5.853,-6.0625,-6.1583,-5.7782,-5.5897,-5.3533,-4.7967,-4.4496,-4.2013,-4.0427,-3.9738,-3.9523,-4.0038,-4.0487,-4.1496,-4.3537,-4.5348,-4.7125,-4.8963,-4.9509,-5.0174,-5.1257,-5.2009,-5.3282,-5.5377,-5.8512,-6.1159,-6.2959,-6.3079,-6.3079,-6.3079,-6.3079,-6.3079,-6.3079,-6.3079,-6.3079,-6.3079,-6.3079,-6.3079,-6.3079,-6.3079,-6.3079,-6.3079,-6.3079,-6.3079,-6.3079,-6.3079,-6.3079,-6.3079,-6.3079,-6.3079,-6.3079,-6.3079,-6.3079,-6.3079,-6.3079,-6.3348,-6.3767,-6.3947,-6.4635,-6.5473,-6.5892,-6.6311,-6.6729,-6.6939,-6.667,-6.6311,-6.6311,-6.5832,-6.5323,-6.5323,-6.4189,-6.2642,-6.0847,-5.942,-5.7961,-5.6313,-5.571,-5.5365,-5.5006,-5.5032,-5.5099,-5.5099,-5.5299,-5.5604,-5.6078,-5.5973,-5.5908,-5.6144,-5.6952,-5.7952,-5.9002,-5.9861,-6.0735,-6.1619,-6.1702,-6.1702,-6.1702,-6.1702,-6.1702,-6.1702,-6.2151,-6.2391,-6.2391,-6.2839,-6.3079,-6.3079,-6.3079,-6.3079,-6.3079,-6.3079,-6.2847,-5.7603,-5.9608,-6.0326,-5.7004,-5.4192,-5.102,-4.6381,-4.2791,-4.0247,-3.9559,-3.9373,-3.9373,-3.9403,-3.9439,-3.9858,-4.1205,-4.306,-4.5024,-4.707,-4.897,-5.0435,-5.1122,-5.178,-5.2995,-5.5029,-5.88,-6.1672,-6.2989,-6.3079,-6.3079,-6.3079,-6.3079,-6.3079,-6.3079,-6.3079,-6.3079,-6.3079,-6.3079,-6.3079,-6.3079,-6.3079,-6.3079,-6.3079,-6.3079,-6.3079,-6.3079,-6.3079,-6.3079,-6.3079,-6.3079,-6.3079,-6.3079,-6.3079,-6.3079,-6.3079,-6.3079,-6.3079,-6.3169,-6.3797,-6.4006,-6.4246,-6.5562,-6.6011,-6.6131,-6.6789,-6.6999,-6.6969,-6.6969,-6.652,-6.6011,-6.6011,-6.4545,-6.2549,-6.0495,-5.901,-5.7451,-5.502,-5.4805,-5.5032,-5.4578,-5.4805,-5.5099,-5.5099,-5.5099,-5.5099,-5.5099,-5.5099,-5.5099,-5.5099,-5.6301,-5.7606,-5.894,-6.0262,-6.1643,-6.2991,-6.3049,-6.3049,-6.3049,-6.3049,-6.3049,-6.3049,-6.3079,-6.3079,-6.3079,-6.3079,-6.3079,-6.3079,-6.3079,-6.3079,-6.3079,-6.3079,-6.2701,-5.3653,-5.5867,-5.7034,-5.4162,-5.1828,-4.9224,-4.5484,-4.2432,-4.0217,-3.9559,-3.9373,-3.9373,-3.9373,-3.9373,-3.9709,-4.0576,-4.1983,-4.3838,-4.6292,-4.8327,-5.0152,-5.1708,-5.3683,-5.5508,-5.7034,-5.9578,-6.1672,-6.2989,-6.3079,-6.3079,-6.3079,-6.3079,-6.3079,-6.3079,-6.3079,-6.3079,-6.3079,-6.3079,-6.3079,-6.3079,-6.3079,-6.3079,-6.3079,-6.3079,-6.3079,-6.3079,-6.3079,-6.3079,-6.3079,-6.3079,-6.3079,-6.3079,-6.3079,-6.3079,-6.3079,-6.3079,-6.3079,-6.3109,-6.3288,-6.3647,-6.4066,-6.4485,-6.5263,-6.6041,-6.6251,-6.664,-6.6999,-6.6999,-6.6665,-6.6213,-6.5766,-6.4526,-6.2794,-6.0252,-5.8861,-5.752,-5.558,-5.5377,-5.5643,-5.5692,-5.5637,-5.5647,-5.5647,-5.5334,-5.5099,-5.5099,-5.5099,-5.5099,-5.5099,-5.6236,-5.7606,-5.894,-6.0323,-6.1643,-6.3021,-6.3079,-6.3079,-6.3079,-6.3079,-6.3079,-6.3079,-6.3079,-6.3079,-6.3079,-6.3079,-6.3079,-6.3079,-6.3079,-6.3079,-6.3079,-6.2643,-6.2292,-4.9733,-5.1917,-5.3103,-5.09,-4.882,-4.6625,-4.4046,-4.156,-3.9668,-3.9281,-3.9228,-3.9301,-3.9301,-3.9337,-3.9559,-3.9948,-4.1145,-4.286,-4.5214,-4.7908,-5.0451,-5.2695,-5.485,-5.6585,-5.7633,-5.9787,-6.1672,-6.2989,-6.3079,-6.3079,-6.3079,-6.3079,-6.3079,-6.3079,-6.3079,-6.3079,-6.3079,-6.3079,-6.3079,-6.3079,-6.3079,-6.3079,-6.3079,-6.3079,-6.3079,-6.3079,-6.3079,-6.3079,0.0,-6.3079,-6.3079,-6.3079,-6.3079,-6.3079,-6.3079,-6.3079,-6.3079,-6.3079,-6.3079,-6.3318,-6.3677,-6.3917,-6.4904,-6.6011,-6.6011,-6.646,-6.6999,-6.6999,-6.6753,-6.6355,-6.5477,-6.428,-6.2672,-6.0218,-5.8871,-5.7638,-5.5907,-5.5907,-5.6217,-5.6029,-5.6167,-5.617,-5.5935,-5.5621,-5.5334,-5.5125,-5.5099,-5.5099,-5.5099,-5.6236,-5.7606,-5.894,-6.0323,-6.1643,-6.3021,-6.3079,-6.3079,-6.3079,-6.3079,-6.3079,-6.3079,-6.3079,-6.3079,-6.3079,-6.3079,-6.3079,-6.3079,-6.3079,-6.3079,-6.3079,-6.2676,-6.2499,0.0,-4.7818,-4.8686,-4.7399,-4.5406,-4.3467,-4.2208,-4.0216,0.0,-3.8649,-3.8796,-3.8971,-3.903,-3.9205,-3.9379,-3.9469,-4.0606,-4.2162,-4.4167,-4.7924,-5.1421,-5.4042,-5.5508,-5.6555,-5.7184,-5.9578,-6.1672,-6.2989,-6.3079,-6.3079,-6.3079,-6.3079,-6.3079,-6.3079,-6.3079,-6.3079,-6.3079,-6.3079,-6.3079,-6.3079,-6.3079,-6.3079,-6.3079,-6.3079,-6.3079,-6.3079,-6.3079,-6.3079,-6.3079,-6.3079,-6.3079,-6.3079,-6.3079,-6.3079,-6.3079,-6.3079,-6.3079,-6.3079,-6.3079,-6.3079,-6.3169,-6.3797,-6.4844,-6.5892,-6.5981,-6.646,-6.6999,-6.6999,-6.6753,-6.6228,-6.5163,-6.3872,-6.2321,-6.0289,-5.9008,-5.7849,-5.6088,-5.6323,-5.6669,-5.5956,-5.6418,-5.6667,-5.6092,-5.5935,-5.5726,-5.5177,-5.5099,-5.5099,-5.5099,-5.6236,-5.7542,-5.894,-6.0262,-6.1584,-6.2963,-6.3079,-6.3079,-6.3079,-6.3079,-6.3079,-6.3079,-6.3079,-6.3079,-6.3079,-6.3079,-6.3079,-6.3079,-6.3079,-6.3109,-6.3169,-6.312,-6.3148,-3.9876,0.0,-4.598,-4.5019,-4.3269,-4.1525,0.0,-3.8782,-3.7358,-3.7358,-3.7499,-3.7818,-3.8323,-3.8525,-3.896,-4.0008,-4.1265,-4.3,-4.5484,-5.0122,-5.3892,-5.5508,-5.6885,-5.7932,-5.856,-6.0146,-6.1672,-6.2989,-6.3079,-6.3079,-6.3079,-6.3079,-6.3079,-6.3079,-6.3079,-6.3079,-6.3079,-6.3079,-6.3079,-6.3079,-6.3079,-6.3079,-6.3079,-6.3079,-6.3079,-6.3079,-6.3079,-6.3079,-6.3079,-6.3079,-6.3079,-6.3079,-6.3079,-6.3079,-6.3079,-6.3079,-6.3079,-6.3079,-6.3079,-6.3079,-6.3169,-6.3797,-6.4216,-6.4665,-6.5712,-6.646,-6.6999,-6.6999,-6.6568,-6.5882,-6.4781,-6.3476,-6.1936,-5.9887,-5.8814,-5.7841,-5.6585,-5.6962,-5.7372,-5.7035,-5.7273,-5.7268,-5.6693,-5.6223,-5.5726,-5.5177,-5.5099,-5.5099,-5.5099,-5.6066,-5.7248,-5.8592,-5.9768,-6.1015,-6.2615,-6.2963,-6.3079,-6.3079,-6.3079,-6.3079,-6.3079,-6.3079,-6.3079,-6.3079,-6.3079,-6.3079,-6.3079,-6.3079,-6.3318,-6.3797,-6.3328,-6.3384,-3.7766,-3.9914,-4.1861,-4.1655,-4.0571,-3.9365,-3.89,-3.7644,-3.6605,-3.6605,-3.6775,-3.7122,-3.7807,-3.8068,-3.8591,-3.9929,-4.1581,-4.4295,-4.8835,-5.2965,-5.6017,-5.7363,-5.8411,-5.9159,-5.9518,-6.0505,-6.1403,-6.2121,-6.2181,-6.2181,-6.2181,-6.2181,-6.2181,-6.2181,-6.2181,-6.248,-6.3079,-6.3079,-6.3079,-6.3079,-6.3079,-6.3079,-6.3079,-6.3079,-6.3079,-6.3079,-6.3079,-6.3079,-6.3079,-6.3079,-6.3079,-6.3079,-6.3079,-6.3079,-6.3079,-6.3079,-6.3079,-6.3079,-6.3079,-6.3079,-6.3139,-6.3468,-6.3767,-6.4186,-6.5233,-6.6011,-6.661,-6.6909,-6.6506,-6.5601,-6.4045,-6.2868,-6.1544,-5.9403,-5.8656,-5.8096,-5.7106,-5.7558,-5.7919,-5.7472,-5.7766,-5.7869,-5.7294,-5.6928,-5.6536,-5.5961,-5.5883,-5.5883,-5.5883,-5.6597,-5.7432,-5.8237,-5.9382,-6.0602,-6.1821,-6.2351,-6.2759,-6.3079,-6.3079,-6.3079,-6.3079,-6.3079,-6.3079,-6.3079,-6.3079,-6.3079,-6.3079,-6.3378,-6.3677,-6.4006,-6.3979,-6.418,-3.7382,-3.77,-3.784,-3.8701,-3.8326,-3.7777,-3.7828,-3.7179,-3.6577,-3.6489,-3.6603,-3.695,-3.7594,-3.7981,-3.8649,-4.0153,-4.2475,-4.6288,-5.2486,-5.5418,-5.7483,-5.8919,-5.9608,-5.9967,-6.0086,-6.0625,-6.1014,-6.1104,-6.1104,-6.1104,-6.1104,-6.1104,-6.1104,-6.1104,-6.1104,-6.1642,-6.278,-6.278,-6.278,-6.278,-6.2869,-6.2929,-6.2929,-6.3019,-6.3079,-6.3079,-6.3079,-6.3079,-6.3079,-6.3079,-6.3079,-6.3079,-6.3079,-6.3079,-6.3079,-6.3079,-6.3079,-6.3079,-6.3079,-6.3079,-6.3079,-6.3079,-6.3438,-6.4006,-6.4784,-6.5413,-6.6011,-6.6789,-6.6506,-6.5538,-6.3394,-6.2298,-6.1247,-5.9061,-5.8523,-5.831,-5.7595,-5.8025,-5.831,-5.7595,-5.8025,-5.834,-5.7765,-5.773,-5.7477,-5.6902,-5.6798,-5.6798,-5.6798,-5.7319,-5.7785,-5.7914,-5.9082,-6.0228,-6.1099,-6.1672,-6.2381,-6.3199,-6.3139,-6.3079,-6.3079,-6.3079,-6.3079,-6.3079,-6.3079,-6.3139,-6.3228,-6.3737,-6.4096,-6.4336,-6.4779,-6.5064,-3.6459,-3.6675,-3.7011,-3.8919,-3.8889,-3.8493,-3.8859,-3.8414,-3.7767,-3.7273,-3.7237,-3.7587,-3.8267,-3.8943,-4.0203,-4.2618,-4.6326,-5.0054,-5.3544,-5.5359,-5.7004,-5.889,-5.9189,-5.9488,-6.0027,-6.0176,-6.0475,-6.1074,-6.1104,-6.1104,-6.1104,-6.1104,-6.1104,-6.1104,-6.1104,-6.1224,-6.1403,-6.1433,-6.1433,-6.1433,-6.1972,-6.2241,-6.2271,-6.281,-6.3079,-6.3079,-6.3079,-6.3079,-6.3079,-6.3079,-6.3079,-6.3079,-6.3079,-6.3079,-6.3079,-6.3079,-6.3079,-6.3079,-6.3079,-6.3079,-6.3079,-6.3079,-6.3139,-6.3438,-6.4665,-6.5114,-6.5443,-6.664,-6.6506,-6.5538,-6.3394,-6.2298,-6.1247,-5.9061,-5.8523,-5.8381,-5.7927,-5.8141,-5.8381,-5.7927,-5.8212,-5.834,-5.7765,-5.773,-5.7477,-5.6902,-5.6798,-5.6798,-5.6798,-5.7141,-5.7633,-5.8174,-5.8773,-5.9766,-6.1188,-6.1517,-6.2322,-6.3768,-6.3378,-6.3079,-6.3079,-6.3079,-6.3079,-6.3079,-6.3079,-6.3318,-6.3857,-6.3947,-6.4575,-6.5712,-6.5223,-6.53,-3.5735,-3.6125,-3.6693,-3.8373,-3.8847,-3.9042,-3.9576,-3.945,-3.9073,-3.8463,-3.8065,-3.8198,-3.9159,-3.9964,-4.1807,-4.5918,-4.911,-5.1984,-5.4433,-5.5939,-5.7321,-5.8709,-5.8882,-5.9056,-5.9518,-5.9548,-5.9697,-5.9997,-6.0027,-6.0027,-6.0027,-6.0027,-6.0027,-6.0027,-6.0027,-6.0027,-6.0027,-6.0027,-6.0386,-6.1104,-6.1433,-6.1762,-6.2121,-6.2421,-6.275,-6.3079,-6.3079,-6.3079,-6.3079,-6.3079,-6.3079,-6.3079,-6.3079,-6.3079,-6.3079,-6.3079,-6.3079,-6.3079,-6.3079,-6.3079,-6.3079,-6.3079,-6.3318,-6.3767,-6.4725,-6.5263,-6.5772,-6.6729,-6.6506,-6.5538,-6.3394,-6.2298,-6.1247,-5.9061,-5.8523,-5.8381,-5.7999,-5.8212,-5.831,-5.7739,-5.8096,-5.8347,-5.7874,-5.7964,-5.8026,-5.7765,-5.7739,-5.7739,-5.7739,-5.7852,-5.7956,-5.7958,-5.8819,-5.9883,-6.1033,-6.1899,-6.2849,-6.3948,-6.4066,-6.4126,-6.4126,-6.4126,-6.4126,-6.4126,-6.4126,-6.4276,-6.4545,-6.4904,-6.5413,-6.6011,-6.5697,-6.5713,-3.531,-3.5741,-3.6402,-3.768,-3.8725,-3.9625,-4.0379,-4.0786,-4.0873,-4.0408,-3.9915,-3.9857,-4.0815,-4.1802,-4.3891,-4.8389,-5.0925,-5.2997,-5.5018,-5.6456,-5.7626,-5.8605,-5.8694,-5.8803,-5.9045,-5.9099,-5.9099,-5.9099,-5.9099,-5.9099,-5.9099,-5.9099,-5.9099,-5.9099,-5.9099,-5.9099,-5.9099,-5.9099,-5.9638,-6.0655,-6.0805,-6.1134,-6.1642,-6.1792,-6.2241,-6.2839,-6.2839,-6.2929,-6.3079,-6.3079,-6.3079,-6.3079,-6.3079,-6.3079,-6.3079,-6.3079,-6.3079,-6.3079,-6.3079,-6.3079,-6.3109,-6.3258,-6.3617,-6.4156,-6.4994,-6.5592,-6.6131,-6.6819,-6.6506,-6.5538,-6.3394,-6.2298,-6.1247,-5.9061,-5.8523,-5.8452,-5.807,-5.8284,-5.831,-5.7739,-5.8096,-5.8355,-5.807,-5.831,-5.8523,-5.8523,-5.8523,-5.8523,-5.8523,-5.8523,-5.834,-5.7895,-5.896,-6.0097,-6.1039,-6.264,-6.3789,-6.4338,-6.4755,-6.5024,-6.5024,-6.5024,-6.5024,-6.5024,-6.5024,-6.5114,-6.5263,-6.5772,-6.6071,-6.6251,-6.6082,-6.6007,-3.5392,-3.5421,-3.577,-3.7041,-3.8725,-4.0379,-4.1657,-4.2876,-4.3689,-4.366,-4.3602,-4.3602,-4.3689,-4.5198,-4.6957,-4.8781,-5.1257,-5.3495,-5.5077,-5.6426,-5.7596,-5.8605,-5.8694,-5.8803,-5.9045,-5.9099,-5.9099,-5.9099,-5.9099,-5.9099,-5.9099,-5.9099,-5.9099,-5.9099,-5.9099,-5.9099,-5.9099,-5.9099,-5.9159,-5.9249,-5.9877,-6.0176,-6.0266,-6.0894,-6.1553,-6.2181,-6.2181,-6.251,-6.3079,-6.3079,-6.3079,-6.3079,-6.3079,-6.3079,-6.3079,-6.3079,-6.3079,-6.3079,-6.3079,-6.3079,-6.3169,-6.3737,-6.3947,-6.4246,-6.5533,-6.5981,-6.6131,-6.6819,-6.6506,-6.5538,-6.3394,-6.2298,-6.1247,-5.9061,-5.8523,-5.8523,-5.8452,-5.8452,-5.8523,-5.8452,-5.8452,-5.8523,-5.8452,-5.8452,-5.8523,-5.8523,-5.8523,-5.8523,-5.8523,-5.8523,-5.8497,-5.8444,-5.8924,-5.9936,-6.1763,-6.4038,-6.5375,-6.5377,-6.5173,-6.5024,-6.5024,-6.5024,-6.5024,-6.5024,-6.5024,-6.5323,-6.5951,-6.5981,-6.6311,-6.6909,-6.629,-6.6007,-3.5392,-3.5392,-3.5625,-3.646,-3.8405,-4.0437,-4.1773,-4.3689,-4.5285,-4.5663,-4.6069,-4.6098,-4.5314,-4.6417,-4.7887,-4.9232,-5.13,-5.336,-5.5129,-5.6151,-5.7078,-5.8055,-5.8114,-5.8225,-5.847,-5.8555,-5.8609,-5.8857,-5.8828,-5.8936,-5.9099,-5.9099,-5.9099,-5.9099,-5.9099,-5.9099,-5.9099,-5.9099,-5.9099,-5.9099,-5.9368,-5.9697,-6.0086,-6.0356,-6.0835,-6.1493,-6.1912,-6.2241,-6.251,-6.2899,-6.3079,-6.3079,-6.3079,-6.3079,-6.3079,-6.3079,-6.3079,-6.3079,-6.3079,-6.3079,-6.3169,-6.3797,-6.4276,-6.4814,-6.5742,-6.6281,-6.667,-6.6909,-6.6506,-6.5538,-6.3394,-6.2298,-6.1247,-5.9061,-5.8523,-5.8523,-5.8523,-5.8523,-5.8452,-5.8141,-5.8284,-5.8452,-5.8141,-5.8284,-5.8523,-5.8523,-5.8523,-5.8523,-5.8523,-5.8523,-5.8523,-5.8523,-5.9451,-6.0754,-6.2351,-6.4098,-6.5316,-6.5811,-6.6066,-6.6251,-6.6251,-6.6251,-6.6251,-6.6251,-6.6251,-6.637,-6.661,-6.661,-6.6637,-6.6691,-6.6195,-6.5882,-3.5508,-3.5392,-3.5537,-3.6141,-3.8086,-4.0321,-4.2266,-4.4647,-4.6708,-4.755,-4.8072,-4.7985,-4.6708,-4.7346,-4.842,-4.9494,-5.1345,-5.3239,-5.5155,-5.5997,-5.6747,-5.7722,-5.7781,-5.7892,-5.814,-5.8195,-5.8335,-5.8694,-5.8694,-5.8828,-5.9099,-5.9099,-5.9099,-5.9099,-5.9099,-5.9099,-5.9099,-5.9099,-5.9099,-5.9099,-5.9099,-5.9338,-5.9787,-5.9787,-6.0146,-6.0805,-6.1253,-6.1702,-6.2121,-6.26,-6.2899,-6.3079,-6.3079,-6.3079,-6.3079,-6.3079,-6.3079,-6.3079,-6.3079,-6.3079,-6.3199,-6.4066,-6.4635,-6.5173,-6.6071,-6.664,-6.6999,-6.6999,-6.6506,-6.5538,-6.3394,-6.2298,-6.1247,-5.9061,-5.8523,-5.8523,-5.8523,-5.8523,-5.8452,-5.8141,-5.8284,-5.8426,-5.8141,-5.8284,-5.8523,-5.8523,-5.8523,-5.8523,-5.8523,-5.8523,-5.8523,-5.8664,-5.9707,-6.0988,-6.2365,-6.385,-6.5036,-6.579,-6.6538,-6.6999,-6.6999,-6.6999,-6.6999,-6.6999,-6.6999,-6.6999,-6.6999,-6.6876,-6.6753,-6.6506,-6.607,-6.5756,-3.577,-3.5421,-3.5566,-3.617,-3.7796,-4.0089,-4.3282,-4.5982,-4.8159,-4.9436,-4.9746,-4.932,-4.8014,-4.8304,-4.8943,-4.9553,-5.1345,-5.3239,-5.5126,-5.5968,-5.6747,-5.7693,-5.7781,-5.7892,-5.814,-5.8195,-5.8335,-5.8694,-5.8694,-5.8773,-5.9045,-5.9099,-5.9099,-5.9099,-5.9099,-5.9099,-5.9099,-5.9099,-5.9099,-5.9099,-5.9099,-5.9099,-5.9099,-5.9099,-5.9458,-6.0086,-6.0086,-6.0835,-6.2061,-6.2091,-6.248,-6.3079,-6.3079,-6.3079,-6.3079,-6.3079,-6.3079,-6.3079,-6.3079,-6.3079,-6.3288,-6.4605,-6.5024,-6.5263,-6.658,-6.6969,-6.6969,-6.6969,-6.6506,-6.5538,-6.3394,-6.2298,-6.1247,-5.9061,-5.8523,-5.8523,-5.8523,-5.8523,-5.8523,-5.8523,-5.8523,-5.8523,-5.8523,-5.8523,-5.8523,-5.8523,-5.8523,-5.8523,-5.8523,-5.8523,-5.8664,-5.9017,-5.9691,-6.0564,-6.1654,-6.3357,-6.4717,-6.5475,-6.6414,-6.6999,-6.6999,-6.6999,-6.6999,-6.6999,-6.6999,-6.6999,-6.6999,-6.6691,-6.6506,-6.6506,-6.579,-6.5475,-3.5996,-3.6025,-3.6402,-3.7941,-4.0466,-4.3166,-4.5459,-4.7259,-4.9175,-5.1817,-5.1672,-5.0511,-4.8769,-4.8972,-4.9301,-4.9059,-5.1004,-5.3094,-5.4575,-5.5707,-5.6461,-5.6776,-5.7154,-5.7472,-5.7584,-5.7584,-5.7696,-5.8059,-5.8059,-5.8169,-5.8415,-5.847,-5.847,-5.847,-5.847,-5.8609,-5.8828,-5.8828,-5.8882,-5.9099,-5.9099,-5.9099,-5.9099,-5.9099,-5.9219,-5.9428,-5.9877,-6.0326,-6.0745,-6.1702,-6.248,-6.3079,-6.3079,-6.3079,-6.3079,-6.3079,-6.3079,-6.3079,-6.3079,-6.3079,-6.3199,-6.4036,-6.4306,-6.4485,-6.5353,-6.5922,-6.6311,-6.6311,-6.6149,-6.5538,-6.3394,-6.2298,-6.1247,-5.9061,-5.8523,-5.8523,-5.8523,-5.8523,-5.8523,-5.8523,-5.8523,-5.8523,-5.8523,-5.8523,-5.8523,-5.8523,-5.8523,-5.8523,-5.8523,-5.8523,-5.8523,-5.8664,-5.885,-5.9552,-6.0906,-6.2403,-6.3785,-6.5031,-6.629,-6.6999,-6.6999,-6.6999,-6.6999,-6.6999,-6.6999,-6.6999,-6.6999,-6.6691,-6.6382,-6.6132,-6.5664,-6.5348,-3.6568,-3.7106,-3.797,-4.0147,-4.2934,-4.5808,-4.8508,-4.9698,-5.0859,-5.3065,-5.2891,-5.1933,-5.0511,-5.0469,-5.0514,-4.996,-5.112,-5.2483,-5.3586,-5.4445,-5.5104,-5.5648,-5.6021,-5.6336,-5.6537,-5.668,-5.6993,-5.7389,-5.7557,-5.7751,-5.8195,-5.8195,-5.8195,-5.8195,-5.8195,-5.839,-5.8694,-5.8694,-5.8828,-5.9099,-5.9099,-5.9099,-5.9099,-5.9099,-5.9099,-5.9129,-5.9787,-6.0086,-6.0176,-6.1553,-6.2331,-6.272,-6.2989,-6.3079,-6.3079,-6.3079,-6.3079,-6.3079,-6.3079,-6.3079,-6.3169,-6.3797,-6.4006,-6.4126,-6.4814,-6.5293,-6.5682,-6.5951,-6.5793,-6.5187,-6.3309,-6.2298,-6.1247,-5.9061,-5.8523,-5.8523,-5.8523,-5.8523,-5.8523,-5.8523,-5.8523,-5.8523,-5.8523,-5.8523,-5.8523,-5.8523,-5.8523,-5.8523,-5.8523,-5.8523,-5.8523,-5.8523,-5.8523,-5.9061,-6.0384,-6.1829,-6.3131,-6.4518,-6.5978,-6.6814,-6.6814,-6.6937,-6.6999,-6.6999,-6.6999,-6.6999,-6.6999,-6.6506,-6.6195,-6.6007,-6.5504,-6.5158,-3.72,-3.846,-4.0002,-4.2615,-4.5314,-4.8304,-5.1991,-5.2775,-5.292,-5.35,-5.3646,-5.35,-5.2862,-5.2486,-5.2115,-5.1742,-5.1477,-5.1553,-5.235,-5.2491,-5.2995,-5.4117,-5.4285,-5.4566,-5.5096,-5.5502,-5.5964,-5.6537,-5.6848,-5.7297,-5.7908,-5.7967,-5.8081,-5.8081,-5.8055,-5.828,-5.8609,-5.8639,-5.8803,-5.9045,-5.9045,-5.9045,-5.9099,-5.9099,-5.9099,-5.9129,-5.9727,-6.0027,-6.0176,-6.1403,-6.2002,-6.2151,-6.275,-6.3019,-6.3079,-6.3079,-6.3079,-6.3079,-6.3079,-6.3079,-6.3169,-6.3737,-6.3917,-6.4036,-6.4665,-6.4904,-6.5084,-6.5742,-6.5466,-6.4689,-6.3289,-6.2365,-6.1315,-5.9131,-5.8594,-5.8523,-5.8523,-5.8523,-5.8523,-5.8523,-5.8523,-5.8523,-5.8523,-5.8523,-5.8523,-5.8523,-5.8523,-5.8523,-5.8523,-5.8523,-5.8523,-5.8523,-5.8523,-5.892,-6.0039,-6.1356,-6.2631,-6.3712,-6.5383,-6.6382,-6.6444,-6.6814,-6.6999,-6.6999,-6.6999,-6.6999,-6.6937,-6.6319,-6.5945,-6.5945,-6.5314,-6.4996,-3.7645,-3.9488,-4.1424,-4.4501,-4.8333,-5.1933,-5.4255,-5.4429,-5.4139,-5.4284,-5.4662,-5.4807,-5.4197,-5.3654,-5.2915,-5.1861,-5.1234,-5.0823,-5.0542,-5.098,-5.1363,-5.1667,-5.2133,-5.2462,-5.2599,-5.3118,-5.3721,-5.4262,-5.4853,-5.5437,-5.5987,-5.6482,-5.6773,-5.6773,-5.7239,-5.764,-5.8003,-5.8003,-5.828,-5.8803,-5.8803,-5.8882,-5.9099,-5.9099,-5.9099,-5.9129,-5.9249,-5.9608,-6.0116,-6.0386,-6.1134,-6.2121,-6.2241,-6.263,-6.3079,-6.3079,-6.3079,-6.3079,-6.3079,-6.3079,-6.3109,-6.3228,-6.3258,-6.3318,-6.3438,-6.3827,-6.4366,-6.5054,-6.511,-6.4813,-6.3873,-6.2934,-6.1694,-5.9804,-5.892,-5.8523,-5.8523,-5.8523,-5.8523,-5.8523,-5.8523,-5.8523,-5.8523,-5.8523,-5.8523,-5.8523,-5.8523,-5.8523,-5.8523,-5.8523,-5.8523,-5.8523,-5.8523,-5.885,-5.9664,-6.051,-6.1599,-6.2962,-6.4461,-6.548,-6.6103,-6.6661,-6.6999,-6.6999,-6.6999,-6.6876,-6.6629,-6.6195,-6.5882,-6.5601,-6.5187,-6.4996,-3.8465,-4.0881,-4.373,-4.841,-5.1759,-5.4197,-5.5184,-5.5155,-5.4952,-5.4952,-5.5076,-5.5057,-5.4576,-5.3886,-5.3023,-5.1904,-5.0761,-4.9759,-4.916,-4.9369,-4.9721,-4.9988,-5.0308,-5.0575,-5.0842,-5.1512,-5.2123,-5.2704,-5.3359,-5.4007,-5.4564,-5.5018,-5.5501,-5.5929,-5.6414,-5.7013,-5.7781,-5.7781,-5.8114,-5.8694,-5.8694,-5.8828,-5.9099,-5.9099,-5.9099,-5.9099,-5.9099,-5.9308,-5.9638,-5.9967,-6.0505,-6.1194,-6.1852,-6.2301,-6.266,-6.2959,-6.3079,-6.3079,-6.3079,-6.3079,-6.3079,-6.3079,-6.3079,-6.3079,-6.3079,-6.3318,-6.3767,-6.4755,-6.4903,-6.4678,-6.4457,-6.3749,-6.2564,-6.0578,-5.9385,-5.8735,-5.8523,-5.8523,-5.8523,-5.8523,-5.8523,-5.8523,-5.8523,-5.8523,-5.8523,-5.8523,-5.8523,-5.8523,-5.8523,-5.8523,-5.8523,-5.8523,-5.8523,-5.8709,-5.9342,-5.9985,-6.092,-6.2259,-6.3785,-6.4973,-6.5727,-6.6414,-6.6753,-6.6753,-6.6629,-6.6444,-6.6257,-6.5945,-6.5664,-6.5475,-6.5158,-6.4996,-3.9165,-4.2519,-4.647,-5.2362,-5.4633,-5.5474,-5.5678,-5.5562,-5.5416,-5.5416,-5.5143,-5.4785,-5.4284,-5.3557,-5.2589,-5.1525,-4.9961,-4.8711,-4.8094,-4.7957,-4.8061,-4.8529,-4.8581,-4.8763,-4.9204,-4.9883,-5.051,-5.113,-5.1768,-5.2427,-5.2995,-5.3445,-5.4092,-5.4996,-5.5476,-5.6295,-5.7374,-5.752,-5.7856,-5.8461,-5.8689,-5.8912,-5.9099,-5.9099,-5.9099,-5.9099,-5.9099,-5.9099,-5.9129,-5.9697,-5.9997,-6.0206,-6.1433,-6.2002,-6.2181,-6.2839,-6.3079,-6.3079,-6.3079,-6.3079,-6.3079,-6.3079,-6.3079,-6.3079,-6.3079,-6.3079,-6.3348,-6.4665,-6.4755,-6.4601,-6.5003,-6.4525,-6.3422,-6.1301,-6.0081,-5.9228,-5.8664,-5.8523,-5.8523,-5.8523,-5.8523,-5.8523,-5.8523,-5.8523,-5.8523,-5.8523,-5.8523,-5.8523,-5.8523,-5.8523,-5.8523,-5.8523,-5.8523,-5.8664,-5.8947,-5.9482,-6.0357,-6.1519,-6.3225,-6.4525,-6.5348,-6.607,-6.6444,-6.6444,-6.6132,-6.5945,-6.5882,-6.5601,-6.5475,-6.5412,-6.5094,-6.4996,-3.8915,-4.3842,-4.9233,-5.3965,-5.5271,-5.5707,-5.681,-5.62,-5.5416,-5.5416,-5.4979,-5.431,-5.3216,-5.2456,-5.1409,-4.9725,-4.8745,-4.8034,-4.7309,-4.6844,-4.6566,-4.6642,-4.6642,-4.6667,-4.6743,-4.7317,-4.7944,-4.8563,-4.9143,-4.9774,-5.0399,-5.1456,-5.2407,-5.3078,-5.42,-5.5097,-5.5732,-5.6313,-5.6851,-5.7483,-5.856,-5.9045,-5.9099,-5.9099,-5.9099,-5.9099,-5.9099,-5.9099,-5.9129,-5.9189,-5.9578,-6.0176,-6.0954,-6.1583,-6.2181,-6.2839,-6.3079,-6.3079,-6.3079,-6.3079,-6.3079,-6.3079,-6.3079,-6.3079,-6.3079,-6.3079,-6.3348,-6.4665,-6.4755,-6.4692,-6.5624,-6.51,-6.385,-6.1975,-6.1016,-6.0108,-5.8806,-5.8523,-5.8523,-5.8523,-5.8523,-5.8523,-5.8523,-5.8523,-5.8523,-5.8523,-5.8523,-5.8523,-5.8523,-5.8523,-5.8523,-5.8523,-5.8523,-5.8523,-5.8594,-5.8638,-5.9342,-6.0797,-6.2203,-6.3655,-6.5031,-6.5694,-6.607,-6.607,-6.6007,-6.5882,-6.5538,-6.5538,-6.5348,-6.506,-6.506,-6.4996,-4.0441,-4.5537,-5.0388,-5.3965,-5.5445,-5.62,-5.71,-5.6607,-5.5968,-5.5968,-5.4675,-5.3189,-5.1988,-5.1468,-5.0617,-4.8815,-4.8111,-4.7653,-4.7191,-4.6652,-4.6301,-4.6301,-4.6301,-4.6301,-4.6301,-4.6721,-4.7172,-4.7534,-4.8003,-4.8469,-4.893,-4.9916,-5.1009,-5.2128,-5.3245,-5.4331,-5.5416,-5.5707,-5.63,-5.7311,-5.853,-5.9099,-5.9099,-5.9099,-5.9099,-5.9099,-5.9099,-5.9099,-5.9099,-5.9099,-5.9279,-5.9638,-6.0715,-6.1283,-6.1672,-6.269,-6.3079,-6.3079,-6.3079,-6.3079,-6.3079,-6.3079,-6.3079,-6.3079,-6.3079,-6.3079,-6.3348,-6.4665,-6.4905,-6.5083,-6.6272,-6.5915,-6.481,-6.2773,-6.1829,-6.077,-5.892,-5.8523,-5.8523,-5.8523,-5.8523,-5.8523,-5.8523,-5.8523,-5.8523,-5.8523,-5.8523,-5.8523,-5.8523,-5.8523,-5.8523,-5.8523,-5.8523,-5.8523,-5.8523,-5.8523,-5.9061,-6.0315,-6.1531,-6.2735,-6.4066,-6.4967,-6.5441,-6.5441,-6.5441,-6.5378,-6.5222,-6.5222,-6.5158,-6.4996,-6.4996,-6.4996,-4.1144,-4.5625,-4.9474,-5.2536,-5.4255,-5.5387,-5.6171,-5.5997,-5.5765,-5.6084,-5.4168,-5.21,-5.0878,-5.0401,-4.9489,-4.7539,-4.7145,-4.7005,-4.6702,-4.6351,-4.61,-4.61,-4.6225,-4.6301,-4.6301,-4.6566,-4.678,-4.6993,-4.7231,-4.7468,-4.7703,-4.8611,-4.9832,-5.1261,-5.235,-5.3511,-5.4923,-5.5205,-5.6025,-5.7311,-5.8351,-5.8949,-5.9099,-5.9099,-5.9099,-5.9099,-5.9099,-5.9099,-5.9099,-5.9099,-5.9099,-5.9219,-6.0386,-6.0954,-6.1253,-6.2391,-6.2929,-6.3079,-6.3079,-6.3079,-6.3079,-6.3079,-6.3079,-6.3079,-6.3079,-6.3079,-6.3348,-6.4665,-6.5024,-6.5323,-6.664,-6.6506,-6.5475,-6.3328,-6.2298,-6.1179,-5.8991,-5.8523,-5.8523,-5.8523,-5.8523,-5.8523,-5.8523,-5.8523,-5.8523,-5.8523,-5.8523,-5.8523,-5.8523,-5.8523,-5.8523,-5.8523,-5.8523,-5.8523,-5.8523,-5.8452,-5.8779,-5.983,-6.0715,-6.1706,-6.2924,-6.3973,-6.4647,-6.4839,-6.4967,-6.4996,-6.4996,-6.4996,-6.4996,-6.4996,-6.4996,-6.4996,-3.9817,-4.2811,-4.594,-4.9165,-5.0917,-5.2194,-5.3442,-5.3675,-5.3994,-5.5213,-5.3511,-5.1486,-5.0266,-4.9098,-4.7561,-4.5153,-4.528,-4.5632,-4.5573,-4.5547,-4.5522,-4.5522,-4.5999,-4.6301,-4.6301,-4.6326,-4.6301,-4.6361,-4.6361,-4.6361,-4.6421,-4.7586,-4.8784,-4.9956,-5.1183,-5.244,-5.3617,-5.4726,-5.596,-5.7281,-5.7904,-5.8501,-5.9099,-5.9099,-5.9099,-5.9099,-5.9099,-5.9099,-5.9099,-5.9099,-5.9099,-5.9189,-5.9877,-6.0535,-6.1194,-6.1882,-6.254,-6.3079,-6.3079,-6.3079,-6.3079,-6.3079,-6.3079,-6.3079,-6.3079,-6.3079,-6.3348,-6.4665,-6.5024,-6.5323,-6.664,-6.6506,-6.5475,-6.3328,-6.2298,-6.1179,-5.8991,-5.8523,-5.8523,-5.8523,-5.8523,-5.8523,-5.8523,-5.8523,-5.8523,-5.8523,-5.8523,-5.8523,-5.8523,-5.8523,-5.8523,-5.8523,-5.8523,-5.8523,-5.8523,-5.8141,-5.8258,-5.9008,-5.9375,-6.0249,-6.1706,-6.284,-6.372,-6.4396,-6.4839,-6.4996,-6.4996,-6.4996,-6.4996,-6.4996,-6.4996,-6.4996,-3.6872,-3.947,-4.2498,-4.5314,-4.7608,-4.9611,-5.1294,-5.263,-5.3878,-5.5155,-5.4111,-5.2603,-5.1413,-4.9813,-4.8073,-4.6002,-4.6175,-4.6552,-4.6552,-4.6552,-4.6401,-4.605,-4.6502,-4.6702,-4.6351,-4.6301,-4.6301,-4.6301,-4.6301,-4.6301,-4.6301,-4.729,-4.8321,-4.9304,-5.06,-5.1896,-5.3213,-5.4615,-5.5542,-5.6043,-5.7457,-5.8261,-5.8501,-5.8919,-5.9099,-5.9099,-5.9099,-5.9099,-5.9099,-5.9099,-5.9099,-5.9159,-5.9817,-6.0236,-6.0595,-6.1702,-6.2241,-6.251,-6.2929,-6.3079,-6.3079,-6.3079,-6.3079,-6.3079,-6.3079,-6.3079,-6.3348,-6.4665,-6.5024,-6.5323,-6.664,-6.6506,-6.5348,-6.2763,-6.0879,-5.9482,-5.8638,-5.8523,-5.8523,-5.8523,-5.8523,-5.8523,-5.8523,-5.8523,-5.8523,-5.8523,-5.8523,-5.8523,-5.8523,-5.8523,-5.8523,-5.8523,-5.8523,-5.8381,-5.8141,-5.7999,-5.7999,-5.8258,-5.8656,-5.9402,-6.0674,-6.1935,-6.3028,-6.3712,-6.4583,-6.4996,-6.4996,-6.4996,-6.4996,-6.4996,-6.4996,-6.4996,-3.4908,-3.707,-3.9683,-4.1831,-4.4153,-4.633,-4.8043,-5.0075,-5.2136,-5.4052,-5.3683,-5.277,-5.2174,-5.0558,-4.8669,-4.6607,-4.6451,-4.6577,-4.6577,-4.6753,-4.6728,-4.6351,-4.6954,-4.7255,-4.6878,-4.6677,-4.6602,-4.6602,-4.6426,-4.6301,-4.6301,-4.7053,-4.8088,-4.9331,-5.0517,-5.1759,-5.2947,-5.42,-5.4943,-5.5148,-5.6614,-5.7534,-5.7952,-5.8507,-5.889,-5.9099,-5.9099,-5.9099,-5.9099,-5.9099,-5.9099,-5.9159,-5.9578,-5.9877,-6.0236,-6.1343,-6.1912,-6.2181,-6.2839,-6.3079,-6.3079,-6.3079,-6.3079,-6.3079,-6.3079,-6.3079,-6.3348,-6.4665,-6.5024,-6.5323,-6.664,-6.5948,-6.4425,-6.2326,-6.0081,-5.8523,-5.8523,-5.8523,-5.8523,-5.8523,-5.8523,-5.8523,-5.8523,-5.8523,-5.8523,-5.8523,-5.8523,-5.8523,-5.8523,-5.8523,-5.8523,-5.8523,-5.8381,-5.8212,-5.7927,-5.7641,-5.7498,-5.7498,-5.7615,-5.8329,-5.9552,-6.1016,-6.2231,-6.3216,-6.439,-6.4996,-6.4996,-6.4996,-6.4996,-6.4996,-6.4996,-6.4996,0.0,0.0,0.0,-3.8725,-4.0495,-4.2295,-4.3544,-4.5837,-4.8595,-5.1868,-5.206,-5.1878,-5.2498,-5.117,-4.9162,-4.6758,-4.5924,-4.5547,-4.5547,-4.5999,-4.6351,-4.6326,-4.728,-4.7933,-4.7908,-4.7431,-4.7068,-4.7068,-4.6627,-4.6301,-4.6301,-4.6874,-4.8061,-4.9899,-5.1044,-5.2002,-5.268,-5.3448,-5.4211,-5.4879,-5.5433,-5.6377,-5.7678,-5.7952,-5.8471,-5.9099,-5.9099,-5.9099,-5.9099,-5.9099,-5.9099,-5.9099,-5.9099,-5.9488,-6.0146,-6.0864,-6.1523,-6.2181,-6.2839,-6.3079,-6.3079,-6.3079,-6.3079,-6.3079,-6.3079,-6.3079,-6.3348,-6.4665,-6.5024,-6.5323,-6.664,-6.488,-6.2669,-6.1991,-6.0081,-5.8523,-5.8523,-5.8523,-5.8523,-5.8523,-5.8523,-5.8523,-5.8523,-5.8523,-5.8523,-5.8523,-5.8523,-5.8523,-5.8523,-5.8523,-5.8523,-5.8523,-5.8141,-5.7927,-5.7856,-5.721,-5.6801,-5.6801,-5.6438,-5.6848,-5.8452,-5.982,-6.1328,-6.2886,-6.426,-6.4996,-6.4996,-6.4996,-6.4996,-6.4996,-6.4996,-6.4996,-3.2433,0.0,0.0,0.0,0.0,0.0,-3.9625,-4.2847,-4.6621,-4.9843,-5.1176,-5.2017,-5.307,-5.2101,-5.0587,-4.8926,-4.7556,-4.6677,-4.6677,-4.7129,-4.733,-4.6892,-4.7883,-4.836,-4.7958,-4.7431,-4.7068,-4.7068,-4.6627,-4.6301,-4.6301,-4.6874,-4.7736,-4.8957,-4.9956,-5.0851,-5.1704,-5.2783,-5.3535,-5.3867,-5.5122,-5.6139,-5.6971,-5.7743,-5.8471,-5.9099,-5.9099,-5.9099,-5.9099,-5.9099,-5.9099,-5.9099,-5.9099,-5.9219,-5.9518,-6.0685,-6.1224,-6.1553,-6.269,-6.3079,-6.3079,-6.3079,-6.3079,-6.3079,-6.3079,-6.3079,-6.3348,-6.4665,-6.5024,-6.5203,-6.6026,-6.4525,-6.2669,-6.1991,-6.0081,-5.8523,-5.8523,-5.8523,-5.8523,-5.8523,-5.8523,-5.8523,-5.8523,-5.8523,-5.8523,-5.8523,-5.8523,-5.8523,-5.8523,-5.8523,-5.8523,-5.8523,-5.8141,-5.7784,-5.7595,-5.7091,-5.6656,-5.6365,-5.6292,-5.6848,-5.8452,-5.982,-6.1328,-6.2886,-6.426,-6.4996,-6.4996,-6.4996,-6.4996,-6.4996,-6.4996,-6.4996,-3.2024,-3.2687,-3.3503,-3.3503,0.0,0.0,-3.6925,-4.006,-4.3805,-4.7027,-4.8688,-4.9948,-5.1338,-5.0586,-4.9367,-4.8059,-4.6945,-4.6522,-4.733,-4.7531,-4.7481,-4.7179,-4.8109,-4.8636,-4.8309,-4.7782,-4.7456,-4.7456,-4.6753,-4.6301,-4.6301,-4.6636,-4.7172,-4.7971,-4.8815,-4.9729,-5.074,-5.1948,-5.273,-5.3131,-5.4322,-5.5417,-5.6385,-5.7036,-5.7827,-5.8719,-5.8882,-5.8936,-5.8936,-5.9045,-5.9099,-5.9099,-5.9099,-5.9099,-5.9279,-6.0625,-6.1104,-6.1313,-6.263,-6.3079,-6.3079,-6.3079,-6.3079,-6.3079,-6.3079,-6.3258,-6.3677,-6.4725,-6.5413,-6.583,-6.5988,-6.4653,-6.3066,-6.2231,-6.0426,-5.892,-5.8806,-5.8594,-5.8523,-5.8523,-5.8523,-5.8523,-5.8523,-5.8523,-5.8523,-5.8523,-5.8523,-5.8523,-5.8523,-5.8523,-5.8523,-5.8523,-5.8025,-5.7595,-5.7451,-5.6874,-5.6438,-5.6219,-5.6219,-5.6848,-5.8452,-5.982,-6.1328,-6.2886,-6.426,-6.4996,-6.4996,-6.4996,-6.4996,-6.4996,-6.4996,-6.4996,-3.2283,-3.289,-3.3387,-3.33,-3.4201,0.0,-3.4985,-3.7389,-4.0554,-4.3631,-4.5201,-4.6525,-4.8166,-4.7541,-4.6394,-4.5243,-4.4922,-4.5446,-4.7392,-4.728,-4.6993,-4.7068,-4.8109,-4.8761,-4.8761,-4.8309,-4.7983,-4.7908,-4.6928,-4.6301,-4.6301,-4.6301,-4.6541,-4.7146,-4.771,-4.8558,-4.9843,-5.0934,-5.1811,-5.2408,-5.3314,-5.4433,-5.5717,-5.5957,-5.6824,-5.8029,-5.8445,-5.8609,-5.8694,-5.8991,-5.9099,-5.9099,-5.9099,-5.9099,-5.9279,-6.0625,-6.1104,-6.1313,-6.263,-6.3079,-6.3079,-6.3079,-6.3079,-6.3079,-6.3169,-6.3558,-6.4156,-6.4934,-6.6041,-6.6876,-6.6195,-6.5065,-6.372,-6.2763,-6.1084,-5.9595,-5.9298,-5.8806,-5.8523,-5.8523,-5.8523,-5.8523,-5.8523,-5.8523,-5.8523,-5.8523,-5.8523,-5.8523,-5.8523,-5.8523,-5.8523,-5.8523,-5.7882,-5.7451,-5.7379,-5.6729,-5.6292,-5.6219,-5.6219,-5.6848,-5.8452,-5.982,-6.1328,-6.2886,-6.426,-6.4996,-6.4996,-6.4996,-6.4996,-6.4996,-6.4996,-6.4996,-3.1702,-3.2162,-3.2571,-3.2048,-3.2483,0.0,-3.2396,-3.4748,-3.768,-3.9857,-4.1736,-4.3545,-4.5323,-4.4757,-4.3879,-4.3228,-4.3156,-4.3894,-4.5707,-4.625,-4.6652,-4.7018,-4.8109,-4.8761,-4.8761,-4.8661,-4.841,-4.7933,-4.6928,-4.6301,-4.6301,-4.6301,-4.6481,-4.684,-4.7205,-4.7854,-4.8842,-4.9843,-5.0628,-5.121,-5.2139,-5.3226,-5.4482,-5.473,-5.5668,-5.7105,-5.7696,-5.8029,-5.8335,-5.8882,-5.9099,-5.9099,-5.9099,-5.9099,-5.9279,-6.0625,-6.1104,-6.1313,-6.263,-6.3079,-6.3079,-6.3079,-6.3079,-6.3169,-6.3677,-6.3917,-6.4246,-6.5473,-6.637,-6.6937,-6.6506,-6.5572,-6.4496,-6.3749,-6.1935,-6.0303,-6.0012,-5.9202,-5.8523,-5.8523,-5.8523,-5.8523,-5.8523,-5.8523,-5.8523,-5.8523,-5.8523,-5.8523,-5.8523,-5.8523,-5.8523,-5.8523,-5.807,-5.7713,-5.7451,-5.6946,-5.6583,-5.6219,-5.6219,-5.6848,-5.8452,-5.982,-6.1328,-6.2886,-6.426,-6.4996,-6.4996,-6.4996,-6.4996,-6.4996,-6.4996,-6.4996,-3.2515,-3.2977,-3.3206,-3.222,-3.2513,0.0,0.0,-3.3499,-3.5822,-3.7418,-3.8927,-4.0456,-4.1874,-4.1412,-4.0684,-4.0065,-4.0563,-4.1465,-4.2744,-4.4352,-4.5874,-4.6943,-4.7606,-4.8058,-4.8309,-4.8335,-4.8209,-4.7933,-4.7405,-4.7004,-4.6728,-4.6728,-4.6663,-4.6566,-4.6661,-4.7112,-4.7912,-4.87,-4.9388,-4.9956,-5.0712,-5.1683,-5.2933,-5.3019,-5.406,-5.5731,-5.6451,-5.7105,-5.7584,-5.839,-5.8664,-5.8664,-5.8991,-5.9308,-5.9727,-6.0745,-6.1313,-6.1732,-6.272,-6.3079,-6.3079,-6.3079,-6.3079,-6.3199,-6.3827,-6.4485,-6.5203,-6.6221,-6.6729,-6.6937,-6.6568,-6.5948,-6.5227,-6.4332,-6.2575,-6.1029,-6.0495,-5.9412,-5.8523,-5.8523,-5.8523,-5.8523,-5.8523,-5.8523,-5.8523,-5.8523,-5.8523,-5.8523,-5.8523,-5.8523,-5.8523,-5.8523,-5.8141,-5.7856,-5.7667,-5.7163,-5.6729,-5.651,-5.6292,-5.6848,-5.8452,-5.982,-6.1666,-6.3936,-6.4647,-6.4996,-6.4996,-6.4996,-6.4996,-6.4996,-6.4996,-6.4996,-3.3329,-3.3645,-3.3761,-3.2597,-3.2716,-3.2806,0.0,0.0,0.0,-3.5183,-3.6172,-3.7143,-3.8102,-3.7839,-3.734,-3.677,-3.7779,-3.8944,-3.9847,-4.2135,-4.4421,-4.6374,-4.6768,-4.7086,-4.7716,-4.7844,-4.7857,-4.7757,-4.7757,-4.7531,-4.6943,-4.7018,-4.6878,-4.6326,-4.6301,-4.6541,-4.7087,-4.7652,-4.821,-4.8758,-4.9412,-5.0317,-5.1341,-5.1476,-5.2479,-5.4199,-5.5119,-5.5963,-5.668,-5.764,-5.8029,-5.8114,-5.8922,-5.9553,-6.0121,-6.1014,-6.1642,-6.2181,-6.2839,-6.3079,-6.3079,-6.3079,-6.3258,-6.3558,-6.4036,-6.5144,-6.6311,-6.6849,-6.6999,-6.6937,-6.6691,-6.6414,-6.5948,-6.4938,-6.3263,-6.1734,-6.1043,-5.9621,-5.8523,-5.8523,-5.8523,-5.8523,-5.8523,-5.8523,-5.8523,-5.8523,-5.8523,-5.8523,-5.8523,-5.8523,-5.8523,-5.8523,-5.8212,-5.7999,-5.7927,-5.7307,-5.6874,-5.6801,-5.6438,-5.6848,-5.8452,-6.0123,-6.227,-6.4932,-6.4996,-6.4996,-6.4996,-6.4996,-6.4996,-6.4996,-6.4996,-6.4996,-3.2629,-3.2655,-3.2542,-3.1785,-3.1669,-3.1555,-3.0859,0.0,-3.1843,-3.2048,0.0,-3.3318,-3.4042,0.0,0.0,-3.4435,-3.5581,-3.7027,-3.872,-3.9714,-4.1403,-4.4502,-4.5572,-4.6315,-4.7095,-4.7601,-4.7707,-4.7255,-4.723,-4.6979,-4.6426,-4.6878,-4.6878,-4.6326,-4.6301,-4.6481,-4.6866,-4.7172,-4.7501,-4.788,-4.8669,-4.9422,-5.0138,-5.0577,-5.1549,-5.2895,-5.3812,-5.4738,-5.5644,-5.6879,-5.7416,-5.753,-5.9011,-5.9696,-5.9934,-6.141,-6.2032,-6.2181,-6.2839,-6.3079,-6.3079,-6.3079,-6.3857,-6.4814,-6.4904,-6.5832,-6.6879,-6.6969,-6.6999,-6.6999,-6.6937,-6.6937,-6.6691,-6.6007,-6.4203,-6.247,-6.1856,-6.0012,-5.8523,-5.8523,-5.8523,-5.8523,-5.8523,-5.8523,-5.8523,-5.8523,-5.8523,-5.8523,-5.8523,-5.8523,-5.8523,-5.8523,-5.8452,-5.831,-5.7927,-5.7595,-5.7163,-5.6801,-5.6438,-5.6848,-5.8452,-6.1179,-6.3385,-6.4996,-6.4996,-6.4996,-6.4996,-6.4996,-6.4996,-6.4996,-6.4996,-6.4996,-3.4835,-3.4719,-3.4574,-3.3906,-3.347,-3.2948,-3.1932,-3.2193,-3.2542,-3.2133,0.0,0.0,0.0,0.0,0.0,0.0,-3.4927,-3.6042,-3.7042,-3.8006,-3.987,-4.3351,-4.4124,-4.4866,-4.602,-4.6929,-4.723,-4.6702,-4.6652,-4.6552,-4.6326,-4.6828,-4.6878,-4.6326,-4.6301,-4.6386,-4.6506,-4.6601,-4.6933,-4.7383,-4.7733,-4.8381,-4.9285,-4.9453,-5.0238,-5.1471,-5.2201,-5.3214,-5.4382,-5.5703,-5.6193,-5.6393,-5.7916,-5.8899,-5.9504,-6.0529,-6.1175,-6.1586,-6.2057,-6.2204,-6.2263,-6.2643,-6.3771,-6.5024,-6.5024,-6.5951,-6.6999,-6.6999,-6.6999,-6.6999,-6.6999,-6.6999,-6.6814,-6.6132,-6.4332,-6.2603,-6.1923,-6.0081,-5.8523,-5.8523,-5.8523,-5.8523,-5.8523,-5.8523,-5.8523,-5.8523,-5.8523,-5.8523,-5.8523,-5.8523,-5.8523,-5.8523,-5.8523,-5.8452,-5.8284,-5.7739,-5.7307,-5.7163,-5.7379,-5.8186,-5.9638,-6.1761,-6.3545,-6.4996,-6.4996,-6.4996,-6.4996,-6.4996,-6.4996,-6.4996,-6.4996,-6.4996,-3.7012,-3.6838,-3.6635,-3.5857,-3.527,-3.4545,-3.3122,-3.3122,-3.3358,-3.2861,-3.3499,0.0,0.0,0.0,-3.4364,-3.402,0.0,-3.548,-3.5787,-3.6589,-3.8308,-4.1462,-4.2747,-4.3756,-4.4716,-4.5806,-4.6153,-4.5565,-4.5607,-4.5698,-4.5849,-4.6527,-4.6728,-4.6326,-4.6301,-4.6301,-4.6301,-4.6301,-4.6602,-4.7068,-4.728,-4.7857,-4.8786,-4.8937,-4.9532,-5.0461,-5.1042,-5.1953,-5.3207,-5.4382,-5.4911,-5.5137,-5.6609,-5.7479,-5.813,-5.9168,-5.9861,-6.0445,-6.0687,-6.1077,-6.1584,-6.2234,-6.3594,-6.5024,-6.5024,-6.5951,-6.6999,-6.6999,-6.6999,-6.6999,-6.6999,-6.6999,-6.6814,-6.6132,-6.4332,-6.2603,-6.1923,-6.0081,-5.8523,-5.8523,-5.8523,-5.8523,-5.8523,-5.8523,-5.8523,-5.8523,-5.8523,-5.8523,-5.8523,-5.8523,-5.8523,-5.8523,-5.8523,-5.8523,-5.8523,-5.7882,-5.7451,-5.7235,-5.7953,-5.8965,-6.0208,-6.1761,-6.3254,-6.4647,-6.4804,-6.4932,-6.4996,-6.4996,-6.4996,-6.4996,-6.4996,-6.4996,-3.8318,-3.8144,-3.7854,-3.6577,-3.6257,-3.5764,-3.391,-3.3474,-3.3503,-3.3474,-3.3503,-3.3736,-3.4283,-3.4922,-3.5125,-3.4482,-3.4951,0.0,0.0,-3.5444,-3.6265,-3.8473,-4.1458,-4.3312,-4.3361,-4.4235,-4.4398,-4.3528,-4.3759,-4.4116,-4.4644,-4.5748,-4.6326,-4.6301,-4.6301,-4.6301,-4.6301,-4.6301,-4.6602,-4.7093,-4.7631,-4.8184,-4.8786,-4.9314,-4.9783,-5.0129,-5.0487,-5.122,-5.2245,-5.3146,-5.3598,-5.3849,-5.5299,-5.5488,-5.5213,-5.7311,-5.8292,-5.8571,-5.8571,-5.9716,-6.1226,-6.191,-6.3417,-6.5024,-6.5024,-6.5951,-6.6999,-6.6999,-6.6999,-6.6999,-6.6999,-6.6999,-6.6814,-6.6132,-6.4332,-6.2603,-6.1923,-6.0081,-5.8523,-5.8523,-5.8523,-5.8523,-5.8523,-5.8523,-5.8523,-5.8523,-5.8523,-5.8523,-5.8523,-5.8523,-5.8523,-5.8523,-5.8523,-5.8523,-5.8523,-5.8141,-5.7569,-5.6874,-5.7498,-5.84,-5.9472,-6.1016,-6.2526,-6.3908,-6.4354,-6.4676,-6.4996,-6.4996,-6.4996,-6.4996,-6.4996,-6.4996,-4.096,-4.0466,-4.0118,-4.0147,-3.916,-3.7941,-3.6838,-3.6606,-3.6373,-3.5532,-3.5706,-3.6083,-3.6286,-3.6141,-3.5793,-3.5189,-3.5247,-3.5247,0.0,-3.4748,-3.5414,-3.7234,-3.966,-4.1159,-4.1105,-4.145,-4.1389,-4.0874,-4.0635,-4.1103,-4.2329,-4.4192,-4.5196,-4.5196,-4.6276,-4.6677,-4.6301,-4.6301,-4.6753,-4.7657,-4.7832,-4.841,-4.9314,-4.9515,-4.9654,-4.9783,-4.9912,-5.0397,-5.1157,-5.1891,-5.2227,-5.2386,-5.3588,-5.3681,-5.3452,-5.5858,-5.6807,-5.7065,-5.7933,-5.9341,-6.0897,-6.1524,-6.3209,-6.5024,-6.5024,-6.5951,-6.6999,-6.6999,-6.6999,-6.6999,-6.6999,-6.6999,-6.6814,-6.6132,-6.4332,-6.2603,-6.1923,-6.0081,-5.8523,-5.8523,-5.8523,-5.8523,-5.8523,-5.8523,-5.8523,-5.8523,-5.8523,-5.8523,-5.8523,-5.8523,-5.8523,-5.8523,-5.8523,-5.8523,-5.8523,-5.8141,-5.7569,-5.6874,-5.7498,-5.8186,-5.8771,-6.0261,-6.1761,-6.3131,-6.3777,-6.439,-6.4996,-6.4996,-6.4996,-6.4996,-6.4996,-6.4996,-4.2934,-4.2615,-4.2498,-4.2731,-4.2005,-4.0931,-3.9828,-3.9596,-3.916,-3.7651,-3.768,-3.7912,-3.768,-3.7273,-3.678,-3.6177,0.0,-3.5386,0.0,-3.4603,-3.5178,-3.6252,-3.8224,-3.9519,-3.9659,-3.9575,-3.9325,-3.8771,-3.826,-3.8894,-4.0874,-4.2936,-4.4317,-4.492,-4.6376,-4.6878,-4.6326,-4.6301,-4.6853,-4.7908,-4.7908,-4.851,-4.959,-4.959,-4.959,-4.959,-4.959,-4.9912,-5.0487,-5.0979,-5.1194,-5.1324,-5.2465,-5.2541,-5.2368,-5.427,-5.502,-5.5353,-5.6834,-5.8467,-5.999,-6.0926,-6.2971,-6.5024,-6.5024,-6.5951,-6.6999,-6.6999,-6.6999,-6.6999,-6.6999,-6.6999,-6.6814,-6.6132,-6.4332,-6.2603,-6.1923,-6.0081,-5.8523,-5.8523,-5.8523,-5.8523,-5.8523,-5.8523,-5.8523,-5.8523,-5.8523,-5.8523,-5.8523,-5.8523,-5.8523,-5.8523,-5.8523,-5.8523,-5.8523,-5.8025,-5.7523,-5.7019,-5.7307,-5.7641,-5.8018,-5.9498,-6.0988,-6.2375,-6.3291,-6.4131,-6.4996,-6.4996,-6.4996,-6.4996,-6.4996,-6.4996]},{"header":{"parameterUnit":"m.s-1","parameterCategory":1,"la1":30.6,"la2":29.2853,"lo1":-89.7004,"lo2":-87.6739,"dy":0.0162,"dx":0.0183,"nx":112,"ny":82,"refTime":"2026-03-29T00:00:00:Z","depth":0,"parameterNumber":3,"parameterNumberName":"V-component_of_WINDS"},"data":[0.0,0.0,0.0,0.0,0.0,0.0,0.0,0.0,0.0,0.0,0.0,0.0,0.0,0.0,0.0,0.0,0.0,0.0,0.0,0.0,0.0,0.0,0.0,0.0,0.0,0.0,0.0,0.0,0.0,0.0,0.0,0.0,0.0,0.0,0.0,0.0,0.0,0.0,0.0,0.0,0.0,0.0,0.0,0.0,0.0,0.0,0.0,0.0,0.0,0.0,0.0,0.0,0.0,0.0,0.0,0.0,0.0,0.0,0.0,0.0,0.0,0.0,0.0,0.0,0.0,0.0,0.0,0.0,0.0,0.0,0.0,0.0,0.0,0.0,0.0,0.0,0.0,0.0,0.0,0.0,0.0,0.0,0.0,0.0,0.0,0.0,0.0,0.0,0.0,0.0,3.1081,3.4004,3.926,4.2158,4.1197,4.0738,3.9471,3.7068,0.0,0.0,0.0,0.0,0.0,0.0,0.0,0.0,0.0,0.0,0.0,0.0,0.0,0.0,0.0,0.0,0.0,0.0,0.0,0.0,0.0,0.0,0.0,0.0,0.0,0.0,0.0,0.0,0.0,0.0,0.0,0.0,0.0,0.0,0.0,0.0,0.0,0.0,0.0,0.0,0.0,0.0,0.0,0.0,0.0,0.0,0.0,0.0,0.0,0.0,0.0,0.0,0.0,0.0,0.0,0.0,0.0,0.0,0.0,0.0,0.0,0.0,0.0,0.0,0.0,0.0,0.0,0.0,0.0,0.0,0.0,0.0,0.0,0.0,0.0,0.0,0.0,0.0,0.0,0.0,0.0,0.0,0.0,0.0,0.0,0.0,0.0,0.0,0.0,0.0,0.0,0.0,0.0,0.0,0.0,0.0,0.0,0.0,0.0,0.0,0.0,0.0,0.0,0.0,3.3281,3.7997,4.1229,4.266,4.1677,4.1524,4.0454,3.8051,0.0,0.0,0.0,0.0,0.0,0.0,0.0,0.0,0.0,0.0,0.0,0.0,0.0,0.0,0.0,0.0,0.0,0.0,0.0,0.0,0.0,0.0,0.0,0.0,0.0,0.0,0.0,0.0,0.0,0.0,0.0,0.0,0.0,0.0,0.0,0.0,0.0,0.0,0.0,0.0,0.0,0.0,0.0,0.0,0.0,0.0,0.0,0.0,0.0,0.0,0.0,0.0,0.0,0.0,0.0,0.0,0.0,0.0,0.0,0.0,0.0,0.0,0.0,0.0,0.0,0.0,0.0,0.0,0.0,0.0,0.0,0.0,0.0,0.0,0.0,0.0,0.0,0.0,0.0,0.0,0.0,0.0,0.0,0.0,0.0,0.0,0.0,0.0,0.0,0.0,0.0,0.0,0.0,0.0,0.0,0.0,0.0,0.0,0.0,0.0,0.0,0.0,0.0,3.4253,3.7212,4.0664,4.2805,4.3447,4.218,4.1612,4.017,3.7505,3.4644,0.0,0.0,0.0,0.0,0.0,0.0,0.0,0.0,0.0,0.0,0.0,0.0,0.0,0.0,0.0,0.0,0.0,0.0,0.0,0.0,0.0,0.0,0.0,0.0,0.0,0.0,0.0,0.0,0.0,0.0,0.0,0.0,0.0,0.0,0.0,0.0,0.0,0.0,0.0,0.0,0.0,0.0,0.0,0.0,0.0,0.0,0.0,0.0,0.0,0.0,0.0,0.0,0.0,0.0,0.0,0.0,0.0,0.0,0.0,0.0,0.0,0.0,0.0,0.0,0.0,0.0,0.0,0.0,0.0,0.0,0.0,0.0,0.0,0.0,0.0,0.0,0.0,0.0,0.0,0.0,0.0,0.0,0.0,0.0,0.0,0.0,0.0,0.0,0.0,0.0,0.0,0.0,0.0,0.0,0.0,0.0,0.0,0.0,0.0,0.0,0.0,0.0,3.8551,4.0751,4.2395,4.3687,4.3818,4.2376,4.1175,3.9362,3.6697,3.4141,0.0,0.0,0.0,0.0,0.0,0.0,0.0,0.0,0.0,0.0,0.0,0.0,0.0,0.0,0.0,0.0,0.0,0.0,0.0,0.0,0.0,0.0,0.0,0.0,0.0,0.0,0.0,0.0,0.0,0.0,0.0,0.0,0.0,0.0,0.0,0.0,0.0,0.0,0.0,0.0,0.0,0.0,0.0,0.0,0.0,0.0,0.0,0.0,0.0,0.0,0.0,0.0,0.0,0.0,0.0,0.0,0.0,0.0,0.0,0.0,0.0,0.0,0.0,0.0,0.0,0.0,0.0,0.0,0.0,0.0,0.0,0.0,0.0,0.0,0.0,0.0,0.0,0.0,0.0,0.0,0.0,0.0,0.0,0.0,0.0,0.0,0.0,0.0,0.0,0.0,0.0,0.0,0.0,0.0,0.0,0.0,0.0,0.0,0.0,0.0,0.0,0.0,4.0432,4.2417,4.3075,4.3599,4.3316,4.1874,4.0039,3.8139,3.6151,3.3311,0.0,0.0,0.0,0.0,0.0,0.0,0.0,0.0,0.0,0.0,0.0,0.0,0.0,0.0,0.0,0.0,0.0,0.0,0.0,0.0,0.0,0.0,0.0,0.0,0.0,0.0,0.0,0.0,0.0,0.0,0.0,0.0,0.0,0.0,0.0,0.0,0.0,0.0,0.0,0.0,0.0,0.0,0.0,0.0,0.0,0.0,0.0,0.0,0.0,0.0,0.0,0.0,0.0,0.0,0.0,0.0,0.0,0.0,0.0,0.0,0.0,0.0,0.0,0.0,0.0,0.0,0.0,0.0,0.0,0.0,0.0,0.0,0.0,0.0,0.0,0.0,0.0,0.0,0.0,0.0,0.0,0.0,0.0,0.0,0.0,0.0,0.0,0.0,0.0,0.0,0.0,0.0,0.0,0.0,0.0,0.0,0.0,0.0,0.0,0.0,0.0,0.0,4.135,4.3512,4.4014,4.4211,4.3731,4.2267,4.0388,3.8204,3.5648,0.0,0.0,0.0,0.0,0.0,0.0,0.0,0.0,0.0,0.0,0.0,0.0,0.0,0.0,0.0,0.0,0.0,0.0,0.0,0.0,0.0,0.0,0.0,0.0,0.0,0.0,0.0,0.0,0.0,0.0,0.0,0.0,0.0,0.0,0.0,0.0,0.0,0.0,0.0,0.0,0.0,0.0,0.0,0.0,0.0,0.0,0.0,0.0,0.0,0.0,0.0,0.0,0.0,0.0,0.0,0.0,0.0,0.0,0.0,0.0,0.0,0.0,0.0,0.0,0.0,0.0,0.0,0.0,0.0,0.0,0.0,0.0,0.0,0.0,0.0,0.0,0.0,0.0,0.0,0.0,0.0,0.0,0.0,0.0,0.0,0.0,0.0,0.0,0.0,0.0,0.0,0.0,0.0,0.0,0.0,0.0,0.0,0.0,0.0,0.0,0.0,0.0,3.8423,4.1918,4.4211,4.4561,4.4582,4.3949,4.2333,4.0563,3.831,3.519,0.0,0.0,0.0,0.0,0.0,0.0,0.0,0.0,0.0,0.0,0.0,0.0,0.0,0.0,0.0,0.0,0.0,0.0,0.0,0.0,0.0,0.0,0.0,0.0,0.0,0.0,0.0,0.0,0.0,0.0,0.0,0.0,0.0,0.0,0.0,0.0,0.0,0.0,0.0,0.0,0.0,0.0,0.0,0.0,0.0,0.0,0.0,0.0,0.0,0.0,0.0,0.0,0.0,0.0,0.0,0.0,0.0,0.0,0.0,0.0,0.0,0.0,0.0,0.0,0.0,0.0,0.0,0.0,0.0,0.0,0.0,0.0,0.0,0.0,0.0,0.0,0.0,0.0,0.0,0.0,0.0,0.0,0.0,0.0,0.0,0.0,0.0,0.0,0.0,0.0,0.0,0.0,0.0,0.0,0.0,0.0,0.0,0.0,0.0,0.0,0.0,0.0,3.8466,4.2201,4.4582,4.4582,4.4604,4.3818,4.1874,4.0454,3.82,0.0,0.0,0.0,0.0,0.0,0.0,0.0,0.0,0.0,0.0,0.0,0.0,0.0,0.0,0.0,0.0,0.0,0.0,0.0,0.0,0.0,0.0,0.0,0.0,0.0,0.0,0.0,0.0,0.0,0.0,0.0,0.0,0.0,0.0,0.0,0.0,0.0,0.0,0.0,0.0,0.0,0.0,0.0,0.0,0.0,0.0,0.0,0.0,0.0,0.0,0.0,0.0,0.0,0.0,0.0,0.0,0.0,0.0,0.0,0.0,0.0,0.0,0.0,0.0,0.0,0.0,0.0,0.0,0.0,0.0,0.0,0.0,0.0,0.0,0.0,0.0,0.0,0.0,0.0,0.0,0.0,0.0,0.0,0.0,0.0,0.0,0.0,0.0,0.0,0.0,0.0,0.0,0.0,0.0,0.0,0.0,0.0,0.0,0.0,0.0,0.0,0.0,0.0,3.9148,4.2949,4.5372,4.5372,4.5733,4.5288,4.3685,4.2193,4.0033,3.6938,0.0,0.0,0.0,0.0,0.0,0.0,0.0,0.0,0.0,0.0,0.0,0.0,0.0,0.0,0.0,0.0,0.0,0.0,0.0,0.0,0.0,0.0,0.0,0.0,0.0,0.0,0.0,0.0,0.0,0.0,0.0,0.0,0.0,0.0,0.0,0.0,0.0,0.0,0.0,0.0,0.0,0.0,0.0,0.0,0.0,0.0,0.0,0.0,0.0,0.0,0.0,0.0,0.0,0.0,0.0,0.0,0.0,0.0,0.0,0.0,0.0,0.0,0.0,0.0,0.0,0.0,0.0,0.0,0.0,0.0,0.0,0.0,0.0,0.0,0.0,0.0,0.0,0.0,0.0,0.0,0.0,0.0,0.0,0.0,0.0,0.0,0.0,0.0,0.0,0.0,0.0,0.0,0.0,0.0,0.0,0.0,0.0,0.0,0.0,0.0,0.0,0.0,3.9617,4.3601,4.6133,4.6133,4.6657,4.643,4.5139,4.4007,4.1791,3.8078,0.0,0.0,0.0,0.0,0.0,0.0,0.0,0.0,0.0,0.0,0.0,0.0,0.0,0.0,0.0,0.0,0.0,0.0,0.0,0.0,0.0,0.0,0.0,0.0,0.0,0.0,0.0,0.0,0.0,0.0,0.0,0.0,0.0,0.0,0.0,0.0,0.0,0.0,0.0,0.0,0.0,0.0,0.0,0.0,0.0,0.0,0.0,0.0,0.0,0.0,0.0,0.0,0.0,0.0,0.0,0.0,0.0,0.0,0.0,0.0,0.0,0.0,0.0,0.0,0.0,0.0,0.0,0.0,0.0,0.0,0.0,0.0,0.0,0.0,0.0,0.0,0.0,0.0,0.0,0.0,0.0,0.0,0.0,0.0,0.0,0.0,0.0,0.0,0.0,0.0,0.0,0.0,0.0,0.0,0.0,0.0,0.0,0.0,0.0,0.0,0.0,0.0,4.0,4.427,4.6909,4.6909,4.7415,4.7394,4.6381,4.576,4.3444,3.8785,0.0,0.0,0.0,0.0,0.0,0.0,0.0,0.0,0.0,0.0,0.0,0.0,0.0,0.0,0.0,0.0,0.0,0.0,0.0,0.0,0.0,0.0,0.0,0.0,0.0,0.0,0.0,0.0,0.0,0.0,0.0,0.0,0.0,0.0,0.0,0.0,0.0,0.0,0.0,0.0,0.0,0.0,0.0,0.0,0.0,0.0,0.0,0.0,0.0,0.0,0.0,0.0,0.0,0.0,0.0,0.0,0.0,0.0,0.0,0.0,3.0948,2.9408,0.0,0.0,0.0,0.0,0.0,0.0,0.0,0.0,0.0,0.0,0.0,0.0,0.0,0.0,0.0,0.0,0.0,0.0,0.0,0.0,0.0,0.0,0.0,0.0,0.0,0.0,0.0,0.0,0.0,0.0,0.0,0.0,0.0,0.0,0.0,0.0,0.0,0.0,0.0,0.0,4.0736,4.5023,4.7702,4.7702,4.8591,4.8708,4.7702,4.7117,4.5229,4.1491,3.8251,0.0,0.0,0.0,0.0,0.0,0.0,0.0,0.0,0.0,0.0,0.0,0.0,0.0,0.0,0.0,0.0,0.0,0.0,0.0,0.0,0.0,0.0,0.0,0.0,0.0,0.0,0.0,0.0,0.0,0.0,0.0,0.0,0.0,0.0,0.0,0.0,0.0,0.0,0.0,0.0,0.0,0.0,0.0,0.0,0.0,0.0,0.0,0.0,0.0,0.0,0.0,0.0,0.0,0.0,0.0,0.0,0.0,0.0,0.0,3.432,3.2374,0.0,0.0,0.0,0.0,0.0,0.0,0.0,0.0,0.0,0.0,0.0,0.0,0.0,0.0,0.0,0.0,0.0,0.0,0.0,0.0,0.0,0.0,0.0,0.0,0.0,0.0,0.0,0.0,0.0,0.0,0.0,0.0,0.0,0.0,0.0,0.0,0.0,0.0,0.0,0.0,4.1375,4.5746,4.8534,4.8534,4.9486,4.9676,4.8629,4.8035,4.6144,4.2447,3.938,0.0,0.0,0.0,0.0,0.0,0.0,0.0,0.0,0.0,0.0,0.0,0.0,0.0,0.0,0.0,0.0,0.0,0.0,0.0,0.0,0.0,0.0,0.0,0.0,0.0,0.0,0.0,0.0,0.0,0.0,0.0,0.0,0.0,0.0,0.0,0.0,0.0,0.0,0.0,0.0,0.0,0.0,0.0,0.0,0.0,0.0,0.0,0.0,0.0,0.0,0.0,0.0,0.0,4.1195,4.2038,4.2808,4.3,4.3072,4.2844,3.8767,3.6672,3.6114,3.6045,0.0,0.0,0.0,0.0,0.0,0.0,0.0,0.0,0.0,0.0,0.0,0.0,0.0,0.0,0.0,0.0,0.0,0.0,0.0,0.0,0.0,0.0,3.8888,3.9152,4.0306,4.0739,3.8551,0.0,0.0,0.0,0.0,0.0,0.0,0.0,0.0,0.0,0.0,0.0,4.1828,4.6268,4.9084,4.9084,5.0046,5.0263,4.9181,4.8676,4.6903,4.3164,4.0449,3.779,0.0,0.0,0.0,0.0,0.0,0.0,0.0,0.0,0.0,0.0,0.0,0.0,0.0,0.0,0.0,0.0,0.0,0.0,0.0,0.0,0.0,0.0,0.0,0.0,0.0,0.0,0.0,0.0,0.0,0.0,0.0,0.0,3.3267,3.2887,0.0,0.0,0.0,0.0,0.0,0.0,0.0,0.0,0.0,0.0,0.0,0.0,0.0,3.9855,4.2136,4.3327,4.3897,4.4016,4.5717,4.6391,4.6126,4.704,4.7449,4.7377,4.5837,0.0,4.1004,4.055,0.0,0.0,0.0,0.0,0.0,0.0,0.0,0.0,0.0,0.0,0.0,0.0,0.0,0.0,0.0,0.0,0.0,0.0,0.0,0.0,0.0,0.0,4.2471,4.3866,4.4708,4.5092,4.4756,4.2543,4.025,3.8823,3.7673,3.6074,0.0,0.0,0.0,0.0,0.0,0.0,4.1924,4.6268,4.9084,4.9084,5.0046,5.0263,4.9181,4.9012,4.7911,4.5262,4.3068,4.0938,3.8948,3.5771,0.0,0.0,0.0,0.0,0.0,0.0,0.0,0.0,0.0,0.0,0.0,0.0,0.0,0.0,0.0,0.0,0.0,0.0,0.0,0.0,0.0,0.0,0.0,0.0,0.0,0.0,0.0,0.0,0.0,3.4579,3.6088,3.5574,3.5451,3.5158,0.0,0.0,0.0,0.0,0.0,0.0,0.0,0.0,0.0,4.124,4.269,4.422,4.5869,4.7441,4.8222,4.8064,4.9208,4.9782,4.9854,5.0311,5.0527,5.0503,5.0046,4.8892,4.7112,4.4491,4.276,4.1581,0.0,0.0,0.0,0.0,3.9561,4.086,4.223,4.1822,4.0676,4.0403,0.0,0.0,0.0,0.0,0.0,0.0,0.0,3.8383,4.0691,4.2471,4.389,4.49,4.5549,4.6006,4.6295,4.5285,4.3732,4.1992,4.0817,3.9132,3.6084,3.372,0.0,0.0,0.0,3.9706,4.2628,4.6302,4.8628,4.8628,4.9325,4.9469,4.87,4.8628,4.7911,4.6268,4.4736,4.3383,4.2147,3.9058,3.7392,0.0,0.0,0.0,0.0,0.0,0.0,0.0,0.0,0.0,0.0,0.0,0.0,0.0,0.0,0.0,0.0,0.0,0.0,0.0,0.0,0.0,0.0,0.0,0.0,0.0,0.0,0.0,0.0,3.7161,3.8967,3.8603,3.8699,3.8295,0.0,0.0,0.0,0.0,0.0,0.0,4.1021,4.1533,4.2692,4.465,4.6402,4.7799,4.8792,5.0528,5.1279,5.1105,5.1634,5.2091,5.2475,5.262,5.2668,5.2668,5.2548,5.2259,5.161,4.7882,4.5718,4.4563,4.2711,4.2158,4.2375,4.2254,4.2952,4.4178,4.5645,4.5285,4.4192,4.3988,4.2069,3.9667,3.8432,0.0,0.0,0.0,0.0,4.1094,4.2627,4.3962,4.5029,4.5621,4.6054,4.6439,4.6824,4.692,4.6319,4.4323,4.3192,4.1605,3.8551,3.605,0.0,3.694,3.8479,4.0451,4.3361,4.6391,4.8291,4.8291,4.8772,4.8868,4.8339,4.8291,4.7906,4.6968,4.5934,4.5098,4.467,4.209,4.0724,4.0868,0.0,0.0,0.0,0.0,0.0,0.0,0.0,0.0,0.0,0.0,0.0,0.0,0.0,0.0,0.0,0.0,0.0,0.0,0.0,0.0,0.0,0.0,0.0,0.0,0.0,0.0,0.0,0.0,0.0,4.2295,4.2535,0.0,0.0,0.0,0.0,4.1133,4.316,4.4368,4.4393,4.485,4.5846,4.7234,4.8441,4.9636,5.0769,5.1898,5.2376,5.2211,5.274,5.3004,5.3053,5.3534,5.375,5.3702,5.3245,5.3004,5.2812,5.0551,4.9012,4.7786,4.5149,4.4741,4.5621,4.5053,4.5934,4.7425,4.8507,4.8507,4.7901,4.7239,4.5049,4.2487,4.0917,4.0745,0.0,0.0,4.3076,4.4148,4.5372,4.615,4.6728,4.7257,4.7401,4.7425,4.7449,4.7473,4.6992,4.5357,4.4549,4.3324,4.0691,0.0,3.8142,3.9272,4.0379,4.1846,4.3973,4.6631,4.8291,4.8291,4.8772,4.8868,4.8339,4.8291,4.805,4.7497,4.6463,4.599,4.626,4.5002,4.4093,4.3614,4.1587,0.0,0.0,0.0,0.0,0.0,0.0,0.0,0.0,0.0,0.0,0.0,0.0,0.0,0.0,0.0,0.0,0.0,0.0,0.0,0.0,0.0,0.0,0.0,0.0,0.0,0.0,0.0,0.0,4.5191,4.5345,0.0,4.4565,4.3959,4.4101,4.526,4.6848,4.797,4.8319,4.8519,4.9357,5.0897,5.1347,5.1899,5.2463,5.3295,5.3327,5.2788,5.3293,5.3558,5.3558,5.3726,5.3822,5.3798,5.3293,5.3077,5.2956,5.1513,5.0287,4.9109,4.7136,4.6607,4.692,4.6728,4.7233,4.8171,4.9229,4.9012,4.819,4.7499,4.67,4.5835,4.4615,4.4343,4.4456,4.4386,4.4927,4.5716,4.6084,4.6689,4.7257,4.7449,4.7497,4.7401,4.7064,4.6992,4.6631,4.5381,4.5197,4.4669,4.2735,4.11,4.0403,4.1485,4.1966,4.2976,4.5092,4.6776,4.7786,4.7786,4.7954,4.7978,4.781,4.7786,4.769,4.7521,4.7136,4.7206,4.7816,4.7143,4.6711,4.6747,4.4454,4.2283,0.0,0.0,0.0,0.0,0.0,0.0,0.0,0.0,0.0,0.0,0.0,0.0,0.0,0.0,0.0,0.0,0.0,0.0,0.0,0.0,0.0,0.0,0.0,0.0,0.0,4.4141,4.6943,4.7858,4.807,4.7918,4.7419,4.696,4.7134,4.8119,4.9411,5.0318,5.0695,5.072,5.1297,5.2603,5.3005,5.3213,5.3418,5.4156,5.4058,5.3317,5.3654,5.3822,5.3822,5.3822,5.3822,5.3798,5.3461,5.3317,5.3245,5.2187,5.1321,5.0551,4.9133,4.8579,4.8579,4.8579,4.8796,4.9205,4.9902,4.9773,4.9131,4.867,4.8723,4.8818,4.8164,4.7753,4.753,4.7033,4.7139,4.7302,4.7173,4.7515,4.7852,4.7696,4.7696,4.7485,4.6824,4.6439,4.5982,4.5197,4.5549,4.5477,4.4034,4.2928,4.2543,4.3433,4.3577,4.4202,4.5958,4.6968,4.7497,4.7497,4.7497,4.7497,4.7497,4.7497,4.7425,4.7257,4.7364,4.7685,4.8358,4.8216,4.8288,4.8607,4.5895,4.3175,4.062,0.0,0.0,0.0,0.0,0.0,0.0,0.0,0.0,0.0,0.0,0.0,0.0,0.0,0.0,0.0,0.0,0.0,0.0,0.0,0.0,0.0,0.0,0.0,4.2785,4.6401,4.9264,5.0393,5.073,5.0589,4.9841,4.9866,4.994,4.9766,5.072,5.1322,5.1297,5.1272,5.1523,5.2076,5.3105,5.3582,5.3418,5.4427,5.4595,5.3822,5.3822,5.3822,5.3822,5.3822,5.3822,5.3822,5.3822,5.3822,5.375,5.2692,5.2283,5.2187,5.1105,5.0696,5.0696,5.0696,5.0696,5.0696,5.0696,5.085,5.1034,5.1034,5.1166,5.1322,5.1297,5.087,5.0353,4.9974,4.9445,4.8958,4.8682,4.8576,4.851,4.8092,4.8026,4.7749,4.6865,4.5862,4.514,4.5053,4.5549,4.551,4.4477,4.4333,4.4525,4.5053,4.5125,0.0,4.6607,4.7185,4.7497,4.7497,4.7497,4.7497,4.7473,4.7473,4.7233,4.6728,4.698,4.7356,4.7845,4.8272,4.8668,4.8949,4.5973,4.2446,3.8408,0.0,0.0,0.0,0.0,0.0,0.0,0.0,0.0,0.0,0.0,0.0,0.0,0.0,0.0,0.0,0.0,0.0,0.0,0.0,0.0,0.0,4.1631,4.4105,4.5255,4.8385,5.1147,5.2628,5.2861,5.3011,5.3181,5.256,5.2191,5.2553,5.2503,5.2302,5.19,5.1096,5.1096,5.2076,5.2402,5.2859,5.3418,5.4427,5.4595,5.3822,5.3822,5.3822,5.3822,5.3822,5.3822,5.3822,5.3822,5.3822,5.375,5.2692,5.2283,5.2187,5.1105,5.0696,5.0696,5.0696,5.0696,5.0696,5.0696,5.1093,5.1599,5.1599,5.1985,5.2327,5.1523,5.087,5.0243,4.9311,4.8519,4.794,4.8273,4.8179,4.8019,4.8347,4.8248,4.7717,4.673,4.5749,4.4957,4.4573,4.4933,4.5197,4.4909,4.5173,4.5669,4.6199,4.6271,4.6535,4.7209,4.7425,4.7497,4.7497,4.7497,4.7353,4.6968,4.6583,4.6359,4.6472,4.6224,4.6563,4.7551,4.8195,4.8409,4.8298,4.6168,4.3758,0.0,0.0,0.0,0.0,0.0,0.0,0.0,0.0,0.0,0.0,0.0,0.0,0.0,0.0,0.0,0.0,0.0,0.0,0.0,0.0,0.0,0.0,4.5289,4.8223,4.9955,5.1711,5.3207,5.4398,5.455,5.4575,5.4702,5.4144,5.379,5.384,5.3562,5.3055,5.2269,5.1226,5.1084,5.1926,5.2043,5.2629,5.3634,5.4573,5.4645,5.4047,5.3897,5.3822,5.3822,5.3822,5.3822,5.3822,5.3822,5.3822,5.375,5.2692,5.2283,5.2187,0.0,0.0,0.0,0.0,5.0696,5.0696,5.0696,5.119,5.182,5.182,5.2308,5.2729,5.1624,5.072,4.9841,4.8711,4.7733,4.7072,4.7645,4.7819,4.7926,4.8367,4.8469,4.8175,4.7189,4.6241,4.5421,4.4981,4.5174,0.0,4.5429,4.6102,4.668,4.6992,4.704,4.7161,4.7473,4.7497,4.7497,4.7497,4.7497,4.7377,4.7064,4.6559,0.0,0.0,0.0,4.6713,4.811,4.8762,0.0,0.0,0.0,0.0,0.0,4.4097,0.0,0.0,3.8621,3.9233,0.0,0.0,0.0,0.0,0.0,0.0,0.0,0.0,0.0,0.0,0.0,0.0,0.0,0.0,0.0,0.0,4.8718,5.2235,5.5495,5.5636,5.5581,5.608,5.6158,5.5951,5.5409,5.5306,5.5047,5.4438,5.4402,5.3845,5.2722,5.1728,0.0,0.0,0.0,5.2698,5.3992,5.472,5.4868,5.4397,5.4047,5.3822,5.3822,5.3822,5.3822,5.3822,5.3822,5.3822,5.375,5.2692,5.2211,5.2018,5.1056,5.0696,5.0696,5.0696,5.0696,5.0696,5.0767,0.0,0.0,5.182,5.2377,5.2729,5.1624,5.0494,4.9364,4.8234,4.7129,4.6451,4.7054,4.7606,4.8121,4.8455,4.8888,4.8933,4.813,4.7041,4.6216,4.5904,4.5778,4.5823,4.6038,4.6848,4.7497,4.7497,4.7497,4.7497,4.7497,4.7497,4.7497,4.7497,4.7497,0.0,4.7425,4.692,4.652,4.6309,4.6476,4.7341,4.9049,4.9609,5.0095,5.0436,4.9972,4.8887,4.725,4.7362,4.6712,4.5325,4.3598,4.3027,0.0,0.0,0.0,0.0,0.0,0.0,0.0,0.0,0.0,0.0,0.0,0.0,0.0,0.0,0.0,4.8189,5.0459,5.3002,5.6722,5.8184,5.8816,5.8872,5.8858,5.8617,5.8053,5.7597,5.7275,5.7168,5.6685,5.59,5.4717,5.311,5.2388,5.2854,5.2363,5.2698,5.3992,5.5012,5.509,5.4397,5.4322,0.0,5.3822,5.3822,5.3822,5.3822,5.3822,5.3822,5.375,5.2692,5.1778,5.0984,5.0792,5.0696,5.0696,5.0696,5.0696,5.0767,5.1025,5.1376,5.182,5.2169,5.2585,5.2729,5.1624,5.0494,0.0,4.8234,4.7129,4.6527,4.7506,4.8184,4.8862,4.9801,4.9841,4.9569,4.8958,4.7799,4.6844,4.6781,4.6465,4.6382,4.6851,4.7285,4.7497,4.7497,4.7497,4.7497,4.7497,4.7497,4.7497,4.7497,4.7497,4.7329,4.6896,4.6391,4.5966,4.575,4.612,4.7166,4.9027,4.92,4.9978,5.1404,5.1064,5.0781,5.0659,5.0732,5.036,4.956,4.6509,4.5392,0.0,0.0,0.0,0.0,0.0,0.0,0.0,0.0,0.0,0.0,0.0,4.2268,4.3909,0.0,4.8236,5.0927,5.3147,5.5474,5.8189,6.0252,6.0995,5.9835,5.973,5.9511,5.8937,5.8608,5.8308,5.8007,5.7743,5.6986,5.5805,5.4156,5.3243,5.3391,5.2827,5.3111,5.4277,5.5158,5.5386,5.5016,5.457,5.4248,5.4122,5.3897,5.3822,5.3822,5.3822,5.3822,5.375,5.298,5.2211,5.1465,5.1201,5.0936,5.0696,5.0696,5.0837,5.0954,5.1141,5.1586,5.2169,5.2352,5.2654,5.2729,5.1624,5.0695,4.9766,4.8661,4.7757,4.7305,4.8134,4.8761,4.9389,5.0218,5.0287,5.0081,4.9806,4.8978,4.8252,4.8061,4.7868,4.7774,4.7849,4.8011,4.7918,4.7563,4.7497,4.7497,4.7497,4.7497,4.7497,4.7497,4.7497,4.7401,4.7136,4.6956,4.6621,4.6129,4.6939,4.7899,4.9042,4.9388,5.0187,5.1471,5.1793,5.2023,5.2076,5.2491,5.2177,5.121,4.9191,4.8114,0.0,0.0,0.0,0.0,0.0,0.0,0.0,3.7535,3.8361,4.0875,4.344,4.579,4.7553,4.9616,5.1598,5.3237,5.5444,5.762,5.9338,6.1426,6.2026,6.0094,6.0097,6.0013,5.952,5.9464,5.9241,5.8711,5.8683,5.8146,5.6949,5.5354,5.4417,5.4126,5.3445,5.3607,5.4712,5.5326,5.5581,5.5632,5.4942,5.457,5.4496,5.4197,5.3972,5.3897,5.3822,5.3774,5.363,5.3245,5.2764,5.2235,5.1802,5.1393,5.0982,5.0885,5.0954,5.1211,5.1352,5.1866,5.2446,5.2515,5.2654,5.2729,5.1749,5.1046,5.0368,4.9364,4.8686,4.836,4.8937,4.9515,5.0067,5.0619,5.0745,5.072,5.0619,5.0142,4.9651,4.9292,4.9137,4.9007,4.8706,4.8666,4.8379,4.7762,4.7696,4.7696,4.7696,4.7696,4.7696,4.7696,4.7696,4.7696,4.7696,4.7735,4.7499,4.6948,4.7856,4.8659,4.9186,4.9657,5.0286,5.1155,5.1989,5.2488,5.2633,5.3135,5.2767,5.1701,5.1052,5.0187,3.1813,3.3539,3.6355,3.8114,3.9245,4.0151,0.0,4.1633,4.2667,4.5017,4.7599,4.9737,5.0726,5.1781,5.3093,5.4898,5.5757,5.6989,5.935,6.0692,6.1133,6.0285,6.112,6.1582,6.1036,6.0918,6.095,6.0892,6.0863,6.0259,5.894,5.7478,5.6367,5.57,5.4345,5.416,5.529,5.5415,5.5499,5.5632,5.5485,5.5263,5.4967,5.4892,5.4645,5.4322,5.3972,5.3558,5.3149,5.3101,5.2764,5.2283,5.2211,5.2067,5.1797,5.1335,5.1141,5.1282,5.2005,5.2283,5.2446,5.2723,5.2861,5.2804,5.2201,5.1624,5.1046,5.0419,4.9841,4.954,5.0092,5.067,5.1247,5.1774,5.1925,5.1774,5.1297,5.072,5.0193,4.9626,4.9332,4.9072,4.9072,4.8772,4.86,4.851,4.8469,4.8469,4.8469,4.8469,4.8469,4.8469,4.8469,4.8469,4.8469,4.8059,4.7883,4.8128,4.7983,4.8523,4.9662,4.9581,4.9876,5.0773,5.117,5.1792,5.2656,5.2484,5.2127,5.1669,5.1009,5.0296,3.457,3.6257,3.8768,4.0777,4.2585,4.3998,4.4599,4.5597,4.7007,4.9059,5.1506,5.3505,5.4448,5.5025,5.5652,5.6394,5.6996,5.783,5.9275,6.0495,6.0816,5.98,5.98,5.9945,6.009,6.0409,6.0613,6.0613,6.099,6.0681,5.955,5.8115,5.6942,5.608,5.4731,5.4309,5.4789,5.5207,5.5268,5.5049,5.5083,5.4913,5.4398,5.418,5.4059,5.3885,5.3761,5.3661,5.351,5.351,5.3389,5.3125,5.2719,5.255,5.2403,5.1868,5.1761,5.1935,5.2283,5.2515,5.2723,5.2861,5.2929,5.2879,5.2653,5.2427,5.2201,5.195,5.1699,5.1574,5.1825,5.2051,5.2302,5.2528,5.2327,5.2051,5.18,5.1046,5.0343,5.0117,4.9686,4.9396,4.9396,4.9267,4.9162,4.9162,4.8837,4.86,4.86,4.86,4.86,4.86,4.86,4.86,4.86,4.8549,4.8471,4.8327,4.8535,4.8858,4.929,4.936,4.9625,5.0135,5.1073,5.1882,5.2639,5.2711,5.2566,5.2125,5.1347,5.0444,3.6707,3.8567,4.0877,4.2911,4.5095,4.6874,4.7272,4.8593,5.0086,5.1576,5.363,5.5357,5.6303,5.6651,5.6955,5.7507,5.8145,5.8813,5.9451,6.0496,6.0729,5.9451,5.8726,5.8348,5.8493,5.9219,5.9829,6.0177,6.0816,6.0802,5.9858,5.8683,5.7542,5.6432,5.5128,5.4482,5.4428,5.4749,5.4813,5.4561,5.4677,5.4508,5.4135,5.3777,5.364,5.3717,5.3571,5.357,5.3687,5.3687,5.3687,5.3614,5.3132,5.2936,5.2837,5.2445,5.2309,5.2446,5.2515,5.2723,5.2929,5.2929,5.2929,5.2929,5.2929,5.2929,5.2929,5.2929,5.2929,5.2929,5.2929,5.2929,5.2929,5.2929,5.2628,5.2302,5.2126,5.1473,5.0795,5.0469,5.0092,4.9766,4.9744,4.9719,4.9783,4.9847,4.9461,4.9097,4.8902,4.8902,4.8902,4.8902,4.8902,4.8902,4.8902,4.9072,4.9028,4.8679,4.9051,4.9229,4.9099,4.9194,4.9364,4.9522,5.0524,5.1406,5.2077,5.2356,5.2465,5.2201,5.1382,5.0487,3.7387,3.9973,4.2539,4.4141,4.6225,4.8044,4.8687,5.0054,5.1292,5.175,5.2966,5.4338,5.5339,5.5524,5.6084,5.7971,5.8842,5.948,6.009,6.0758,6.0729,5.9451,5.8726,5.7826,5.6607,5.7623,5.8871,6.0119,6.0816,6.0892,6.0255,5.9459,5.8404,5.7092,5.5749,5.493,5.4748,5.4081,5.4034,5.4561,5.4587,5.4587,5.4561,5.4135,5.3992,5.3945,5.3587,5.3395,5.3395,5.3395,5.3395,5.3395,5.3371,5.3242,5.3102,5.3077,5.2799,5.2446,5.2792,5.2861,5.2929,5.2929,5.2929,5.2929,5.2929,5.2929,5.2929,5.2929,5.2929,5.2929,5.2929,5.2929,5.2929,5.2929,5.2904,5.2754,5.2226,5.2076,5.1724,5.0619,5.0393,5.0283,5.0141,5.004,5.0168,5.0525,5.0525,5.027,4.9654,4.959,4.959,4.959,4.959,4.959,4.959,4.959,4.959,4.9565,4.9565,4.9565,4.9604,4.9101,4.88,4.88,4.9204,4.9831,5.0769,5.0997,5.1257,5.1518,5.0879,5.0232,3.8868,4.1681,4.4267,4.6301,4.8485,5.0273,5.0701,5.1975,5.3019,5.296,5.3645,5.4397,5.5112,5.5701,5.6549,5.8058,5.919,6.0119,6.0758,6.1048,6.0729,5.9451,5.8319,5.7303,5.649,5.681,5.739,5.8203,5.9306,5.9913,5.987,5.9602,5.8933,5.7852,5.6183,5.5099,5.4592,5.3992,5.3632,5.3482,5.3482,5.3482,5.3482,5.3343,5.3308,5.3421,5.3279,5.3288,5.3418,5.3418,5.3418,5.3394,5.3214,5.318,5.3097,5.2959,5.2873,5.2723,5.2861,5.2929,5.2929,5.2929,5.2929,5.2929,5.2929,5.2929,5.2929,5.2929,5.2929,5.2929,5.2929,5.2929,5.2929,5.2929,5.2929,5.2879,5.2678,5.2352,5.2,5.1599,5.0921,5.0434,5.0583,5.0819,5.1356,5.235,5.1445,5.0423,4.9976,4.9912,4.9847,4.959,4.959,4.959,4.959,4.959,4.959,4.959,4.959,4.959,4.959,4.9414,4.9314,4.9314,4.9634,5.0079,5.0595,5.0701,5.0842,5.0879,5.0461,5.004,4.0551,4.3263,4.5648,4.7456,4.9615,5.1305,5.1205,5.2473,5.3362,5.2253,5.2212,5.26,5.3332,5.4192,5.5516,5.7771,5.9306,6.0496,6.1396,6.1338,6.0816,5.9742,5.8668,5.7681,5.681,5.6316,5.6316,5.6926,5.7971,5.8842,5.9505,5.995,5.9673,5.855,5.6898,5.5591,5.4686,5.3851,5.3256,5.2929,5.2929,5.2929,5.2929,5.2929,5.2967,5.3014,5.3014,5.3073,5.3208,5.3208,5.3208,5.3229,5.3093,5.3014,5.3034,5.2917,5.2929,5.2929,5.2929,5.2929,5.2929,5.2929,5.2929,5.2929,5.2929,5.2929,5.2929,5.2929,5.2929,5.2929,5.2929,5.2929,5.2929,5.2929,5.2929,5.2929,5.2929,5.2653,5.2327,5.2261,5.1699,5.1342,5.1858,5.2376,5.3075,5.3991,5.2791,5.1507,5.0715,5.0397,5.0104,4.9654,4.959,4.959,4.959,4.959,4.959,4.959,4.959,4.959,4.959,4.959,4.959,4.959,4.9783,5.004,5.0206,5.0206,5.0206,5.0232,5.004,4.9808,4.2409,4.4769,4.6728,4.7807,4.9715,5.1113,5.0355,5.1645,5.2347,4.9808,4.8996,4.9089,5.0073,5.1148,5.3066,5.7024,5.9102,6.0613,6.1832,6.1542,6.0961,6.0322,5.9713,5.8842,5.7536,5.6229,5.5736,5.6403,5.6984,5.7884,5.9248,6.0496,6.056,5.9239,5.777,5.6352,5.502,5.3563,5.2929,5.2929,5.2929,5.2929,5.2929,5.2929,5.2929,5.2929,5.2929,5.2929,5.2929,5.2929,5.2929,5.2929,5.2929,5.2929,5.2929,5.2929,5.2929,5.2929,5.2929,5.2929,5.2929,5.2929,5.2929,5.2929,5.2929,5.2929,5.2929,5.2929,5.2929,5.2929,5.2929,5.2929,5.2929,5.2929,5.2929,5.2929,5.2929,5.2929,5.2822,5.27,5.2682,5.3012,5.3915,5.4681,5.5221,5.5529,5.4731,5.3537,5.1767,5.1068,5.0423,4.9719,4.9654,4.959,4.959,4.959,4.959,4.959,4.959,4.959,4.959,4.959,4.959,4.959,4.959,4.959,4.959,4.959,4.959,4.959,4.9615,4.964,4.4694,4.7079,4.9012,5.0142,5.1172,5.1825,5.1657,5.2001,5.1519,4.8646,4.7438,4.6901,4.6867,4.8906,5.1474,5.4027,5.7628,6.0322,6.0642,6.099,6.1135,6.0961,6.038,5.9655,5.8871,5.7187,5.6403,5.7013,5.7216,5.7884,5.9248,6.0496,6.056,5.9239,5.777,5.6352,5.502,5.3563,5.2929,5.2929,5.2929,5.2929,5.2929,5.2929,5.2929,5.2929,5.2929,5.2929,5.2929,5.2929,5.2929,5.2929,5.2929,5.2929,5.2929,5.2929,5.2929,5.2929,5.2929,5.2929,5.2929,5.2929,5.2929,5.2929,5.2929,5.2929,5.2929,5.2929,5.2929,5.2929,5.2929,5.2929,5.2929,5.2929,5.2929,5.2929,5.2929,5.2929,5.2948,5.3207,5.3941,5.4922,5.619,5.6791,5.72,5.7539,5.6989,5.55,5.2677,5.197,5.1309,5.0104,4.9976,4.9847,4.959,4.959,4.959,4.959,4.959,4.959,4.959,4.959,4.959,4.959,4.959,4.959,4.959,4.959,4.959,4.9615,5.0017,5.0218,4.6326,4.846,5.0042,5.0444,5.1523,5.2076,5.0594,5.0645,4.9981,4.6493,4.4848,4.4139,4.46,4.6441,4.9054,5.2656,5.6451,5.9186,5.9942,6.0234,6.038,6.038,6.0032,5.9596,5.916,5.7946,5.734,5.7484,5.7396,5.7884,5.9248,6.0496,6.056,5.9239,5.777,5.609,5.4106,5.3316,5.2929,5.2929,5.2929,5.2929,5.2929,5.2929,5.2929,5.2929,5.2929,5.2929,5.2929,5.2929,5.2929,5.2929,5.2929,5.2929,5.2929,5.2929,5.308,5.3256,5.3256,5.3432,5.3557,5.308,5.2929,5.2929,5.2929,5.2929,5.2929,5.2929,5.2929,5.2929,5.2929,5.2929,5.2929,5.2929,5.2929,5.2929,5.3136,5.3136,5.3478,5.4443,5.5747,5.7067,5.8137,5.837,5.8446,5.8694,5.8083,5.6795,5.4719,5.3436,5.2192,5.0879,5.0461,5.0104,4.9654,4.959,4.959,4.959,4.959,4.959,4.959,4.959,4.959,4.959,4.959,4.959,4.959,4.959,4.959,4.9615,5.0167,5.0419,4.7606,4.9414,5.0594,4.9967,5.1322,5.195,4.8661,4.851,4.7894,4.3852,4.1839,4.1235,4.2655,4.3945,4.6548,5.1821,5.5221,5.7738,5.9094,5.9131,5.9045,5.9045,5.9103,5.9074,5.875,5.8539,5.8238,5.7878,5.7508,5.7801,5.9072,6.0316,6.0226,5.8836,5.7386,5.5432,5.2929,5.2929,5.2929,5.2929,5.2929,5.2929,5.2929,5.2929,5.2929,5.2929,5.2929,5.2929,5.2929,5.2929,5.2929,5.2929,5.2929,5.2929,5.2929,5.2929,5.3256,5.3708,5.3708,5.4084,5.4411,5.3457,5.3155,5.313,5.3055,5.303,5.3005,5.2955,5.2929,5.2929,5.2929,5.2929,5.2929,5.2929,5.2929,5.2998,5.341,5.3682,5.4376,5.6117,5.7761,5.9052,5.9707,5.9526,5.9276,5.9073,5.8317,5.7527,5.6931,5.4995,5.3193,5.181,5.1094,5.0359,4.9654,4.959,4.959,4.959,4.959,4.959,4.959,4.9665,4.9715,4.9715,4.9766,4.9816,4.9816,4.9816,4.9816,4.9841,5.0393,5.0645,4.9063,5.087,5.2251,5.1247,5.1624,5.1473,4.856,4.7029,4.5196,4.171,3.9699,3.8843,3.9878,4.2396,4.5395,4.8698,5.343,5.6668,5.656,5.7197,5.7652,5.7652,5.8145,5.8437,5.8398,5.8738,5.8687,5.8098,5.7437,5.7439,5.8353,5.9154,5.862,5.6612,5.5525,5.4283,5.2929,5.2929,5.2929,5.2929,5.2929,5.2929,5.2929,5.2929,5.2929,5.2929,5.2929,5.2929,5.2929,5.2929,5.2929,5.2929,5.2929,5.2929,5.2929,5.2929,5.3256,5.3708,5.3708,5.4084,5.4607,5.4336,5.4285,5.4185,5.3708,5.3557,5.3482,5.3055,5.2929,5.2929,5.2929,5.2929,5.2929,5.2929,5.2929,5.2998,5.341,5.4645,5.6248,5.8214,5.9058,5.9768,6.0742,6.0413,5.9639,5.8494,5.7925,5.7579,5.7169,5.5712,5.4236,5.2879,5.1695,5.0614,4.9654,4.959,4.959,4.959,4.959,4.959,4.959,5.0042,5.0268,5.0268,5.0745,5.0996,5.0996,5.0996,5.0996,5.0996,5.1548,5.1825,4.9866,5.1649,5.2854,5.0896,5.1046,5.0645,4.6677,4.4719,4.2811,3.9471,3.7688,3.7033,3.8231,4.0076,4.276,4.6645,5.0892,5.3851,5.4254,5.4658,5.5051,5.5366,5.568,5.6136,5.6704,5.7577,5.7797,5.7119,5.6379,5.6413,5.7484,5.7569,5.6871,5.5525,5.4686,5.3793,5.2929,5.2929,5.2929,5.2929,5.2929,5.2929,5.2929,5.2929,5.2929,5.2929,5.2929,5.2929,5.2929,5.2929,5.2929,5.2929,5.2929,5.2929,5.2929,5.2929,5.3457,5.416,5.416,5.4712,5.5415,5.5415,5.5039,5.4511,5.4235,5.3934,5.3658,5.3406,5.313,5.2929,5.2929,5.2929,5.2929,5.3136,5.3793,5.4376,5.4779,5.6209,5.7825,5.9121,5.983,6.0409,6.1073,6.0621,5.9806,5.8575,5.8451,5.8367,5.797,5.6947,5.5573,5.3904,5.2612,5.124,4.9744,4.959,4.959,4.959,4.959,4.959,4.959,5.0117,5.0419,5.0419,5.0996,5.1272,5.1272,5.1272,5.1272,5.1297,5.185,5.2101,5.0494,5.2126,5.303,5.0293,5.0167,4.9439,4.4418,4.2133,4.0302,3.7262,3.578,3.5399,3.6742,3.7814,3.9919,4.436,4.7856,5.0392,5.1528,5.1793,5.21,5.2771,5.3023,5.3546,5.466,5.5889,5.6379,5.571,5.498,5.5127,5.652,5.6025,5.5393,5.482,5.4174,5.3589,5.2929,5.2929,5.2929,5.2929,5.2929,5.2929,5.2929,5.2929,5.2929,5.2929,5.2929,5.2929,5.2929,5.2929,5.2929,5.2929,5.2929,5.2929,5.2929,5.2929,5.3557,5.4411,5.4607,5.5214,5.6068,5.6168,5.5616,5.4888,5.4787,5.4436,5.4034,5.3909,5.3582,5.3256,5.313,5.308,5.3193,5.3682,5.4779,5.5881,5.6574,5.7889,5.9114,5.983,6.0409,6.0892,6.1133,6.0621,5.9858,5.8871,5.8899,5.8989,5.8746,5.7945,5.6726,5.4964,5.3555,5.1948,5.0122,4.9967,4.9967,4.9967,4.9967,4.9967,4.9967,5.0494,5.077,5.077,5.1348,5.1624,5.1624,5.1624,5.1624,5.1649,5.2076,5.2277,5.1197,5.2427,5.303,5.0293,4.9289,4.7707,4.271,3.9521,3.7136,3.5328,3.4073,3.3646,3.4751,3.5877,3.7682,4.095,4.4194,4.6713,4.8076,4.8486,4.9091,5.0125,5.078,5.1611,5.2639,5.427,5.4887,5.4241,5.3521,5.37,5.5127,5.482,5.4511,5.4106,5.3725,5.3341,5.2929,5.2929,5.2929,5.2929,5.2929,5.2929,5.2929,5.2929,5.2929,5.2929,5.2929,5.2929,5.2929,5.2929,5.2929,5.2929,5.2929,5.2929,5.2929,5.2929,5.3281,5.3858,5.4386,5.4963,5.5541,5.6043,5.6143,5.5968,5.5465,5.529,5.5139,5.4637,5.4461,5.4285,5.3758,5.3632,5.3829,5.4682,5.5485,5.6574,5.8404,5.9183,5.983,6.0863,6.1133,6.1133,6.1193,6.0621,5.992,5.9183,5.8808,5.8746,5.9058,5.8242,5.7268,5.6124,5.4341,5.2634,5.1254,5.1122,5.1122,5.1122,5.1122,5.1122,5.1122,5.1649,5.195,5.195,5.2503,5.2779,5.2779,5.2779,5.2779,5.2779,5.2829,5.2854,5.0167,5.1724,5.2477,4.9364,4.8184,4.6476,4.148,3.8442,3.6232,3.4575,3.3621,3.3319,3.4098,3.4851,3.6276,3.9042,4.1595,4.3802,4.5532,4.6026,4.662,4.7734,4.8372,4.9261,5.049,5.2296,5.3361,5.3334,5.3067,5.311,5.37,5.3589,5.3452,5.3316,5.3204,5.3067,5.2929,5.2929,5.2929,5.2929,5.2929,5.2929,5.2929,5.2929,5.2929,5.2929,5.2929,5.2929,5.2929,5.2929,5.2929,5.2929,5.2929,5.2929,5.2929,5.2929,5.3256,5.3733,5.3959,5.4637,5.5415,5.5641,5.5942,5.6168,5.5942,5.5641,5.534,5.5114,5.4813,5.4511,5.4285,5.4309,5.4526,5.5125,5.6183,5.7478,5.9058,5.983,6.0409,6.1073,6.1193,6.1193,6.1193,6.0802,6.0226,5.9493,5.9521,5.9521,5.9431,5.8739,5.787,5.6776,5.4979,5.3165,5.1431,5.1272,5.1272,5.1272,5.1272,5.1272,5.1272,5.18,5.2101,5.2101,5.2653,5.2929,5.2929,5.2929,5.2929,5.2929,5.2929,5.2998,4.9113,5.087,5.1674,4.8485,4.6903,4.492,4.0249,3.7337,3.5253,3.3922,3.3345,3.3237,3.3596,3.3972,3.4896,3.702,3.8989,4.0875,4.2751,4.3609,4.439,4.5348,4.5912,4.683,4.8351,5.064,5.2235,5.2829,5.2929,5.2929,5.2929,5.2929,5.2929,5.2929,5.2929,5.2929,5.2929,5.2929,5.2929,5.2929,5.2929,5.2929,5.2929,5.2929,5.2929,5.2929,5.2929,5.2929,5.2929,5.2929,5.2929,5.2929,5.2929,5.2929,5.2929,5.2929,5.3155,5.3507,5.3658,5.4235,5.4938,5.529,5.5641,5.5993,5.6168,5.5942,5.5641,5.5641,5.5239,5.4813,5.4813,5.4822,5.5057,5.6001,5.7006,5.8214,5.9863,6.0531,6.0952,6.1224,6.1253,6.1193,6.1193,6.1013,6.0681,6.0137,6.0287,6.0348,6.0075,5.9363,5.8333,5.7102,5.5456,5.3734,5.1934,5.1774,5.1774,5.1774,5.1774,5.1774,5.1774,5.2151,5.2352,5.2352,5.2729,5.2929,5.2929,5.2929,5.2929,5.2929,5.2929,5.3204,4.8335,5.0017,5.0619,4.7832,4.5472,4.2811,3.8919,3.5906,3.3771,3.3194,3.3111,3.3111,3.3136,3.3093,3.3445,3.4575,3.6132,3.7863,3.9496,4.1182,4.2414,4.2992,4.3545,4.4468,4.6175,4.9339,5.1749,5.2854,5.2929,5.2929,5.2929,5.2929,5.2929,5.2929,5.2929,5.2929,5.2929,5.2929,5.2929,5.2929,5.2929,5.2929,5.2929,5.2929,5.2929,5.2929,5.2929,5.2929,5.2929,5.2929,5.2929,5.2929,5.2929,5.2929,5.2929,5.2929,5.2929,5.3005,5.3532,5.3708,5.3909,5.5013,5.539,5.5491,5.6043,5.6219,5.6194,5.6194,5.5817,5.539,5.539,5.5127,5.5339,5.7408,5.7989,5.8718,6.1106,6.1404,6.1253,6.1554,6.1404,6.1193,6.1193,6.1193,6.1193,6.1193,6.1193,6.1193,6.1193,5.9981,5.862,5.7167,5.5828,5.4418,5.2973,5.2904,5.2904,5.2904,5.2904,5.2904,5.2904,5.2929,5.2929,5.2929,5.2929,5.2929,5.2929,5.2929,5.2929,5.2929,5.2929,5.3316,4.502,4.6878,4.7857,4.5447,4.3489,4.1304,3.8165,3.5604,3.3746,3.3194,3.3111,3.3111,3.3111,3.3111,3.3319,3.4048,3.5228,3.6784,3.8843,4.0551,4.2082,4.3388,4.5045,4.6577,4.7857,4.9992,5.1749,5.2854,5.2929,5.2929,5.2929,5.2929,5.2929,5.2929,5.2929,5.2929,5.2929,5.2929,5.2929,5.2929,5.2929,5.2929,5.2929,5.2929,5.2929,5.2929,5.2929,5.2929,5.2929,5.2929,5.2929,5.2929,5.2929,5.2929,5.2929,5.2929,5.2929,5.2955,5.3105,5.3406,5.3758,5.411,5.4762,5.5415,5.5591,5.5917,5.6219,5.6219,5.6312,5.6302,5.5922,5.6463,5.7288,5.8058,5.8861,5.9955,6.1863,6.2045,6.2069,6.281,6.2336,6.1803,6.1803,6.1454,6.1193,6.1193,6.1193,6.1193,6.1193,6.0043,5.862,5.7167,5.5762,5.4418,5.2998,5.2929,5.2929,5.2929,5.2929,5.2929,5.2929,5.2929,5.2929,5.2929,5.2929,5.2929,5.2929,5.2929,5.2929,5.2929,5.3384,5.3793,4.1731,4.3564,4.446,4.271,4.1056,3.9297,3.7205,3.5183,3.373,3.3401,3.3283,3.3197,3.3197,3.3154,3.3194,3.352,3.4525,3.5884,3.7939,4.0199,4.2333,4.4217,4.6024,4.7481,4.836,5.0167,5.1749,5.2854,5.2929,5.2929,5.2929,5.2929,5.2929,5.2929,5.2929,5.2929,5.2929,5.2929,5.2929,5.2929,5.2929,5.2929,5.2929,5.2929,5.2929,5.2929,5.2929,5.2929,0.0,5.2929,5.2929,5.2929,5.2929,5.2929,5.2929,5.2929,5.2929,5.2929,5.2929,5.313,5.3432,5.3632,5.4461,5.539,5.539,5.5767,5.6219,5.6219,5.651,5.6798,5.6918,5.7625,5.8571,5.9435,6.017,6.1137,6.2776,6.2776,6.2709,6.3608,6.3068,6.2383,6.2122,6.1774,6.1454,6.1222,6.1193,6.1193,6.1193,6.0043,5.862,5.7167,5.5762,5.4418,5.2998,5.2929,5.2929,5.2929,5.2929,5.2929,5.2929,5.2929,5.2929,5.2929,5.2929,5.2929,5.2929,5.2929,5.2929,5.2929,5.3886,5.433,0.0,4.0124,4.0852,3.9772,3.8439,3.7042,3.6049,3.4652,0.0,3.3597,3.3428,3.3284,3.3335,3.3189,3.3043,3.3119,3.4073,3.5378,3.7061,4.0302,4.3243,4.5347,4.6577,4.7456,4.7983,4.9992,5.1749,5.2854,5.2929,5.2929,5.2929,5.2929,5.2929,5.2929,5.2929,5.2929,5.2929,5.2929,5.2929,5.2929,5.2929,5.2929,5.2929,5.2929,5.2929,5.2929,5.2929,5.2929,5.2929,5.2929,5.2929,5.2929,5.2929,5.2929,5.2929,5.2929,5.2929,5.2929,5.2929,5.2929,5.3005,5.3532,5.4411,5.529,5.5365,5.5767,5.6219,5.6219,5.651,5.7065,5.816,5.8656,5.9399,6.1351,6.1776,6.2171,6.3816,6.3661,6.3353,6.4087,6.3629,6.2935,6.2296,6.2122,6.189,6.128,6.1193,6.1193,6.1193,6.0043,5.8683,5.7167,5.5828,5.4485,5.3067,5.2929,5.2929,5.2929,5.2929,5.2929,5.2929,5.2929,5.2929,5.2929,5.2929,5.2929,5.2929,5.2929,5.2955,5.3005,5.4268,5.4894,3.3908,0.0,3.8668,3.8111,3.6792,3.5466,0.0,3.3564,3.2403,3.2403,3.224,3.2228,3.2659,3.2542,3.2692,3.3571,3.4625,3.6081,3.8165,4.2057,4.5221,4.6577,4.7732,4.8611,4.9138,5.0469,5.1749,5.2854,5.2929,5.2929,5.2929,5.2929,5.2929,5.2929,5.2929,5.2929,5.2929,5.2929,5.2929,5.2929,5.2929,5.2929,5.2929,5.2929,5.2929,5.2929,5.2929,5.2929,5.2929,5.2929,5.2929,5.2929,5.2929,5.2929,5.2929,5.2929,5.2929,5.2929,5.2929,5.2929,5.3005,5.3532,5.3884,5.426,5.5139,5.5767,5.6219,5.6219,5.6729,5.7523,5.8586,5.9712,6.0864,6.2015,6.2658,6.34,6.4523,6.4243,6.4139,6.5323,6.4593,6.3603,6.2964,6.2441,6.189,6.128,6.1193,6.1193,6.1193,6.0255,5.9024,5.7578,5.6471,5.518,5.3478,5.3067,5.2929,5.2929,5.2929,5.2929,5.2929,5.2929,5.2929,5.2929,5.2929,5.2929,5.2929,5.2929,5.313,5.3532,5.4446,5.5099,3.2469,3.4165,3.5674,3.5734,3.4958,3.4144,3.3964,3.3086,3.2315,3.2315,3.218,3.2199,3.272,3.2657,3.2887,3.4027,3.5279,3.7333,4.0978,4.4443,4.7004,4.8134,4.9012,4.964,4.9941,5.077,5.1523,5.2126,5.2176,5.2176,5.2176,5.2176,5.2176,5.2176,5.2176,5.2427,5.2929,5.2929,5.2929,5.2929,5.2929,5.2929,5.2929,5.2929,5.2929,5.2929,5.2929,5.2929,5.2929,5.2929,5.2929,5.2929,5.2929,5.2929,5.2929,5.2929,5.2929,5.2929,5.2929,5.2929,5.298,5.3256,5.3507,5.3858,5.4737,5.539,5.5892,5.6143,5.6801,5.7784,5.9332,6.0578,6.1813,6.3285,6.3872,6.4381,6.5261,6.4915,6.475,6.5823,6.5149,6.427,6.3632,6.3225,6.279,6.2151,6.2064,6.2064,6.2064,6.136,6.0256,5.8876,5.7721,5.6266,5.4335,5.3725,5.3247,5.2929,5.2929,5.2929,5.2929,5.2929,5.2929,5.2929,5.2929,5.2929,5.2929,5.3181,5.3432,5.3708,5.5007,5.5791,3.2495,3.2844,3.3039,3.3716,3.3611,3.3349,3.3467,3.3257,3.2934,3.2855,3.267,3.2691,3.326,3.3235,3.3597,3.4904,3.6518,3.9272,4.4041,4.6502,4.8234,4.9439,5.0017,5.0318,5.0419,5.087,5.1197,5.1272,5.1272,5.1272,5.1272,5.1272,5.1272,5.1272,5.1272,5.1724,5.2678,5.2678,5.2678,5.2678,5.2754,5.2804,5.2804,5.2879,5.2929,5.2929,5.2929,5.2929,5.2929,5.2929,5.2929,5.2929,5.2929,5.2929,5.2929,5.2929,5.2929,5.2929,5.2929,5.2929,5.2929,5.2929,5.3231,5.3708,5.4361,5.4888,5.539,5.6043,5.6801,5.7856,6.0027,6.122,6.2326,6.4454,6.4996,6.5187,6.5819,6.5441,6.5187,6.5819,6.5441,6.4793,6.4154,6.3975,6.3835,6.3196,6.308,6.308,6.308,6.2553,6.1696,6.0498,5.9082,5.7405,5.5377,5.4562,5.3751,5.303,5.298,5.2929,5.2929,5.2929,5.2929,5.2929,5.2929,5.298,5.3055,5.3482,5.3783,5.3984,5.5694,5.6559,3.2185,3.259,3.3034,3.4357,3.4331,3.4131,3.4835,3.4512,3.4005,3.3561,3.3309,3.3327,3.3856,3.4152,3.5025,3.7129,3.9829,4.2562,4.5028,4.6451,4.7832,4.9414,4.9665,4.9916,5.0368,5.0494,5.0745,5.1247,5.1272,5.1272,5.1272,5.1272,5.1272,5.1272,5.1272,5.1373,5.1523,5.1548,5.1548,5.1548,5.2,5.2226,5.2251,5.2703,5.2929,5.2929,5.2929,5.2929,5.2929,5.2929,5.2929,5.2929,5.2929,5.2929,5.2929,5.2929,5.2929,5.2929,5.2929,5.2929,5.2929,5.2929,5.298,5.3231,5.426,5.4637,5.4913,5.5917,5.6801,5.7856,6.0027,6.122,6.2326,6.4454,6.4996,6.5124,6.5475,6.5285,6.5124,6.5475,6.5222,6.4793,6.4154,6.3975,6.3835,6.3196,6.308,6.308,6.308,6.2769,6.2211,6.1437,5.9938,5.8222,5.6438,5.5147,5.4176,5.3627,5.3181,5.2929,5.2929,5.2929,5.2929,5.2929,5.2929,5.313,5.3582,5.3658,5.4185,5.5139,5.6076,5.6764,3.1824,3.2384,3.3038,3.4324,3.4673,3.4923,3.5557,3.5521,3.5182,3.4633,3.4199,3.4168,3.5027,3.5591,3.6988,4.0358,4.2879,4.4991,4.6696,4.7882,4.8849,4.981,4.9847,4.9884,4.9941,4.9967,5.0092,5.0343,5.0368,5.0368,5.0368,5.0368,5.0368,5.0368,5.0368,5.0368,5.0368,5.0368,5.067,5.1272,5.1548,5.1825,5.2126,5.2377,5.2653,5.2929,5.2929,5.2929,5.2929,5.2929,5.2929,5.2929,5.2929,5.2929,5.2929,5.2929,5.2929,5.2929,5.2929,5.2929,5.2929,5.2929,5.313,5.3507,5.431,5.4762,5.5189,5.5993,5.6801,5.7856,6.0027,6.122,6.2326,6.4454,6.4996,6.5124,6.5412,6.5222,6.5187,6.5694,6.5378,6.4944,6.4843,6.4658,6.4444,6.4154,6.4125,6.4125,6.4125,6.397,6.3665,6.2974,6.1578,5.9883,5.7918,5.6472,5.5117,5.3778,5.3758,5.3808,5.3808,5.3808,5.3808,5.3808,5.3808,5.3934,5.416,5.4461,5.4888,5.539,5.6484,5.7123,3.1654,3.2111,3.2777,3.3927,3.4868,3.5678,3.6358,3.6724,3.6802,3.6384,3.594,3.5887,3.675,3.7639,3.9346,4.2811,4.4956,4.6682,4.7932,4.9076,4.9873,5.0053,5.0129,5.0001,4.9654,4.959,4.959,4.959,4.959,4.959,4.959,4.959,4.959,4.959,4.959,4.959,4.959,4.959,5.0042,5.0896,5.1021,5.1297,5.1724,5.185,5.2226,5.2729,5.2729,5.2804,5.2929,5.2929,5.2929,5.2929,5.2929,5.2929,5.2929,5.2929,5.2929,5.2929,5.2929,5.2929,5.2955,5.308,5.3381,5.3833,5.4536,5.5039,5.5491,5.6068,5.6801,5.7856,6.0027,6.122,6.2326,6.4454,6.4996,6.506,6.5348,6.5158,6.5187,6.5694,6.5378,6.5094,6.5348,6.5187,6.4996,6.4996,6.4996,6.4996,6.4996,6.4996,6.4793,6.4299,6.2951,6.1156,5.8816,5.7399,5.5941,5.4345,5.4456,5.4561,5.4561,5.4561,5.4561,5.4561,5.4561,5.4637,5.4762,5.5189,5.544,5.5591,5.6815,5.7379,3.1797,3.1823,3.2137,3.3352,3.4868,3.6358,3.7508,3.8606,3.9337,3.9311,3.9259,3.9259,3.9337,4.0697,4.2188,4.3253,4.5348,4.7121,4.7983,4.9051,4.9848,5.0053,5.0129,5.0001,4.9654,4.959,4.959,4.959,4.959,4.959,4.959,4.959,4.959,4.959,4.959,4.959,4.959,4.959,4.964,4.9715,5.0243,5.0494,5.0569,5.1096,5.1649,5.2176,5.2176,5.2452,5.2929,5.2929,5.2929,5.2929,5.2929,5.2929,5.2929,5.2929,5.2929,5.2929,5.2929,5.2929,5.3005,5.3482,5.3658,5.3909,5.4988,5.5365,5.5491,5.6068,5.6801,5.7856,6.0027,6.122,6.2326,6.4454,6.4996,6.4996,6.506,6.506,6.4996,6.506,6.506,6.4996,6.506,6.506,6.4996,6.4996,6.4996,6.4996,6.4996,6.4996,6.4967,6.4909,6.3465,6.1259,5.8228,5.6781,5.5959,5.5837,5.5051,5.4561,5.4561,5.4561,5.4561,5.4561,5.4561,5.4813,5.534,5.5365,5.5641,5.6143,5.6993,5.7379,3.1797,3.1797,3.2006,3.2829,3.458,3.641,3.7612,3.9337,4.0775,4.1115,4.1481,4.1507,4.0801,4.1794,4.3023,4.4038,4.5887,4.7626,4.8989,4.9897,5.0499,5.0689,5.0741,5.0614,5.027,5.0232,5.0168,4.9937,4.9912,4.9783,4.959,4.959,4.959,4.959,4.959,4.959,4.959,4.959,4.959,4.959,4.9816,5.0092,5.0419,5.0645,5.1046,5.1599,5.195,5.2226,5.2452,5.2779,5.2929,5.2929,5.2929,5.2929,5.2929,5.2929,5.2929,5.2929,5.2929,5.2929,5.3005,5.3532,5.3934,5.4386,5.5164,5.5616,5.5942,5.6143,5.6801,5.7856,6.0027,6.122,6.2326,6.4454,6.4996,6.4996,6.4996,6.4996,6.506,6.5285,6.5158,6.506,6.5285,6.5158,6.4996,6.4996,6.4996,6.4996,6.4996,6.4996,6.4996,6.4996,6.3614,6.1824,5.9819,5.835,5.7281,5.6831,5.6053,5.5591,5.5591,5.5591,5.5591,5.5591,5.5591,5.5691,5.5892,5.5892,5.6163,5.6583,5.7163,5.7523,3.1902,3.1797,3.1928,3.2542,3.4293,3.6305,3.8057,4.02,4.2056,4.2814,4.3284,4.3206,4.2056,4.2631,4.3598,4.4565,4.613,4.7937,4.9662,5.042,5.0871,5.1068,5.112,5.0994,5.0652,5.0588,5.0487,5.0129,5.0129,4.9912,4.959,4.959,4.959,4.959,4.959,4.959,4.959,4.959,4.959,4.959,4.959,4.9791,5.0167,5.0167,5.0469,5.1021,5.1398,5.1774,5.2126,5.2528,5.2779,5.2929,5.2929,5.2929,5.2929,5.2929,5.2929,5.2929,5.2929,5.2929,5.303,5.3758,5.4235,5.4687,5.544,5.5917,5.6219,5.6219,5.6801,5.7856,6.0027,6.122,6.2326,6.4454,6.4996,6.4996,6.4996,6.4996,6.506,6.5285,6.5158,6.5031,6.5285,6.5158,6.4996,6.4996,6.4996,6.4996,6.4996,6.4996,6.4996,6.4868,6.3749,6.247,6.1152,5.9542,5.8302,5.7569,5.6703,5.6219,5.6219,5.6219,5.6219,5.6219,5.6219,5.6219,5.6219,5.6365,5.651,5.6801,5.7307,5.7667,3.2137,3.1823,3.1954,3.2568,3.4031,3.6096,3.8972,4.1402,4.3363,4.4513,4.4694,4.4408,4.3232,4.3493,4.4068,4.4617,4.613,4.7937,4.9636,5.0394,5.0871,5.1042,5.112,5.0994,5.0652,5.0588,5.0487,5.0129,5.0129,4.9976,4.9654,4.959,4.959,4.959,4.959,4.959,4.959,4.959,4.959,4.959,4.959,4.959,4.959,4.959,4.9891,5.0419,5.0419,5.1046,5.2076,5.2101,5.2427,5.2929,5.2929,5.2929,5.2929,5.2929,5.2929,5.2929,5.2929,5.2929,5.3105,5.421,5.4561,5.4762,5.5867,5.6194,5.6194,5.6194,5.6801,5.7856,6.0027,6.122,6.2326,6.4454,6.4996,6.4996,6.4996,6.4996,6.4996,6.4996,6.4996,6.4996,6.4996,6.4996,6.4996,6.4996,6.4996,6.4996,6.4996,6.4996,6.4868,6.4547,6.3871,6.299,6.1923,6.0123,5.8656,5.7927,5.6848,5.6219,5.6219,5.6219,5.6219,5.6219,5.6219,5.6219,5.6219,5.6583,5.6801,5.6801,5.7569,5.7927,3.2411,3.2437,3.2777,3.4162,3.6436,3.8867,4.0932,4.2552,4.4278,4.6656,4.6525,4.548,4.3912,4.4095,4.4488,4.4173,4.5924,4.7806,4.9139,5.0159,5.0838,5.0897,5.1236,5.1408,5.1283,5.1283,5.1157,5.0804,5.0804,5.0677,5.0334,5.027,5.027,5.027,5.027,5.0168,4.9912,4.9912,4.9847,4.959,4.959,4.959,4.959,4.959,4.969,4.9866,5.0243,5.0619,5.0971,5.1774,5.2427,5.2929,5.2929,5.2929,5.2929,5.2929,5.2929,5.2929,5.2929,5.2929,5.303,5.3733,5.3959,5.411,5.4838,5.5315,5.5641,5.5641,5.6497,5.7856,6.0027,6.122,6.2326,6.4454,6.4996,6.4996,6.4996,6.4996,6.4996,6.4996,6.4996,6.4996,6.4996,6.4996,6.4996,6.4996,6.4996,6.4996,6.4996,6.4996,6.4996,6.4868,6.4647,6.4001,6.2659,6.1057,5.9611,5.8426,5.6993,5.6219,5.6219,5.6219,5.6219,5.6219,5.6219,5.6219,5.6219,5.6583,5.6946,5.7235,5.7713,5.807,3.271,3.3338,3.4188,3.6149,3.8658,4.1246,4.3676,4.4748,4.5794,4.778,4.7623,4.6761,4.548,4.5642,4.5884,4.568,4.6843,4.8303,4.9643,5.0439,5.105,5.144,5.1785,5.2077,5.2377,5.228,5.1996,5.156,5.1372,5.1094,5.0588,5.0588,5.0588,5.0588,5.0588,5.0423,5.0129,5.0129,4.9912,4.959,4.959,4.959,4.959,4.959,4.959,4.9615,5.0167,5.0419,5.0494,5.1649,5.2302,5.2628,5.2854,5.2929,5.2929,5.2929,5.2929,5.2929,5.2929,5.2929,5.3005,5.3532,5.3708,5.3808,5.4386,5.4787,5.5114,5.534,5.6192,5.7546,5.9947,6.122,6.2326,6.4454,6.4996,6.4996,6.4996,6.4996,6.4996,6.4996,6.4996,6.4996,6.4996,6.4996,6.4996,6.4996,6.4996,6.4996,6.4996,6.4996,6.4996,6.4996,6.4996,6.4454,6.3216,6.1694,6.0303,5.8991,5.7354,5.6438,5.6438,5.6292,5.6219,5.6219,5.6219,5.6219,5.6219,5.6801,5.7163,5.7379,5.7953,5.8284,3.3057,3.4402,3.6018,3.837,4.0801,4.3493,4.6813,4.7519,4.7649,4.8172,4.8303,4.8172,4.7597,4.7779,4.8069,4.8356,4.8637,4.9351,5.0775,5.1023,5.1401,5.2489,5.2652,5.2924,5.3555,5.3248,5.2761,5.2148,5.175,5.1252,5.0561,5.0612,5.06,5.06,5.0689,5.055,5.0168,5.0193,5.0001,4.9654,4.9654,4.9654,4.959,4.959,4.959,4.9615,5.0117,5.0368,5.0494,5.1523,5.2026,5.2151,5.2653,5.2879,5.2929,5.2929,5.2929,5.2929,5.2929,5.2929,5.3005,5.3482,5.3632,5.3733,5.426,5.4461,5.4612,5.5164,5.5913,5.7106,5.9797,6.1152,6.2259,6.439,6.4932,6.4996,6.4996,6.4996,6.4996,6.4996,6.4996,6.4996,6.4996,6.4996,6.4996,6.4996,6.4996,6.4996,6.4996,6.4996,6.4996,6.4996,6.4996,6.4583,6.3545,6.2164,6.0879,5.9804,5.7973,5.6946,5.6874,5.6438,5.6219,5.6219,5.6219,5.6219,5.6292,5.7019,5.7451,5.7451,5.8167,5.8523,3.3379,3.5245,3.7299,4.0069,4.352,4.6761,4.8852,4.9008,4.8747,4.8878,4.9218,4.9348,4.8799,4.9165,4.956,4.9538,5.0019,5.0602,5.1432,5.1878,5.2268,5.2462,5.2935,5.3269,5.3408,5.3003,5.2447,5.1831,5.1263,5.0688,5.008,5.0523,5.0783,5.0783,5.12,5.122,5.0867,5.0867,5.055,5.0001,5.0001,4.9847,4.959,4.959,4.959,4.9615,4.9715,5.0017,5.0444,5.067,5.1297,5.2126,5.2226,5.2553,5.2929,5.2929,5.2929,5.2929,5.2929,5.2929,5.2955,5.3055,5.308,5.313,5.3231,5.3557,5.4009,5.4587,5.5609,5.6965,5.9173,6.051,6.1829,6.3712,6.4583,6.4996,6.4996,6.4996,6.4996,6.4996,6.4996,6.4996,6.4996,6.4996,6.4996,6.4996,6.4996,6.4996,6.4996,6.4996,6.4996,6.4996,6.4996,6.4647,6.3843,6.2934,6.1868,6.0537,5.8938,5.7804,5.721,5.6558,5.6219,5.6219,5.6219,5.6365,5.6656,5.7163,5.7523,5.7784,5.831,5.8523,3.3511,3.6089,3.9116,4.3493,4.6604,4.8799,4.9688,4.9662,4.9479,4.9479,4.9808,5.012,5.0009,5.058,5.1204,5.1565,5.1655,5.1866,5.2487,5.2826,5.3086,5.3371,5.3713,5.3998,5.4284,5.381,5.3273,5.2589,5.198,5.1363,5.0771,5.097,5.1081,5.125,5.1356,5.1335,5.112,5.112,5.0741,5.0129,5.0129,4.9912,4.959,4.959,4.959,4.959,4.959,4.9766,5.0042,5.0318,5.077,5.1348,5.19,5.2277,5.2578,5.2829,5.2929,5.2929,5.2929,5.2929,5.2929,5.2929,5.2929,5.2929,5.2929,5.313,5.3507,5.4336,5.5188,5.6348,5.842,5.9707,6.0947,6.2868,6.4102,6.4804,6.4996,6.4996,6.4996,6.4996,6.4996,6.4996,6.4996,6.4996,6.4996,6.4996,6.4996,6.4996,6.4996,6.4996,6.4996,6.4996,6.4996,6.4775,6.4196,6.3488,6.2536,6.1315,5.9611,5.8373,5.7641,5.6848,5.651,5.651,5.6656,5.6874,5.7091,5.7451,5.7713,5.7927,5.8284,5.8523,3.3598,3.7124,4.1385,4.7043,4.9191,4.9949,5.0132,5.0028,4.9897,4.9897,5.0199,5.0532,5.0842,5.1719,5.2704,5.3473,5.3343,5.3275,5.3885,5.385,5.3967,5.4492,5.455,5.4754,5.525,5.4797,5.4166,5.3528,5.291,5.2313,5.1738,5.1498,5.1444,5.151,5.1281,5.1023,5.0872,5.1002,5.0739,5.0041,5.0014,4.9873,4.959,4.959,4.959,4.959,4.959,4.959,4.9615,5.0092,5.0343,5.0519,5.1548,5.2026,5.2176,5.2729,5.2929,5.2929,5.2929,5.2929,5.2929,5.2929,5.2929,5.2929,5.2929,5.2929,5.3155,5.426,5.4819,5.5542,5.7636,5.8868,6.0054,6.2109,6.3451,6.4354,6.4868,6.4996,6.4996,6.4996,6.4996,6.4996,6.4996,6.4996,6.4996,6.4996,6.4996,6.4996,6.4996,6.4996,6.4996,6.4996,6.4996,6.4868,6.4612,6.4066,6.3188,6.2058,6.0261,5.8868,5.807,5.7307,5.6874,5.6874,5.7235,5.7451,5.7523,5.7784,5.7927,5.7999,5.8355,5.8523,3.3828,3.8873,4.433,4.859,4.9766,5.0159,5.1152,5.0603,4.9897,4.9897,5.0379,5.0756,5.0721,5.2228,5.3585,5.4147,5.4614,5.5136,5.576,5.5334,5.5006,5.5096,5.5096,5.5126,5.5215,5.4672,5.4071,5.3463,5.293,5.2337,5.1736,5.1681,5.1388,5.0922,5.0875,5.0597,5.0072,5.0594,5.0519,4.9859,4.9684,4.9654,4.959,4.959,4.959,4.959,4.959,4.959,4.9615,4.9665,4.9992,5.0494,5.1147,5.1674,5.2176,5.2729,5.2929,5.2929,5.2929,5.2929,5.2929,5.2929,5.2929,5.2929,5.2929,5.2929,5.3155,5.426,5.4819,5.5496,5.7046,5.8232,5.9542,6.1436,6.2498,6.3479,6.474,6.4996,6.4996,6.4996,6.4996,6.4996,6.4996,6.4996,6.4996,6.4996,6.4996,6.4996,6.4996,6.4996,6.4996,6.4996,6.4996,6.4996,6.4932,6.4839,6.4196,6.282,6.126,5.975,5.8426,5.7739,5.7307,5.7307,5.7379,5.7523,5.7856,5.7856,5.807,5.8452,5.8452,5.8523,3.5466,4.0376,4.4973,4.859,4.9923,5.0603,5.1413,5.0969,5.0394,5.0394,5.0651,5.0806,5.0755,5.2603,5.428,5.4813,5.5224,5.5671,5.6115,5.5598,5.5179,5.5179,5.5179,5.5179,5.5179,5.4824,5.4385,5.3964,5.3547,5.3126,5.2701,5.2256,5.1794,5.1338,5.086,5.0333,4.9897,5.0159,5.014,4.9819,4.9659,4.959,4.959,4.959,4.959,4.959,4.959,4.959,4.959,4.959,4.9741,5.0042,5.0946,5.1423,5.1749,5.2603,5.2929,5.2929,5.2929,5.2929,5.2929,5.2929,5.2929,5.2929,5.2929,5.2929,5.3155,5.426,5.4703,5.5097,5.6352,5.7426,5.8612,6.062,6.1694,6.2792,6.4583,6.4996,6.4996,6.4996,6.4996,6.4996,6.4996,6.4996,6.4996,6.4996,6.4996,6.4996,6.4996,6.4996,6.4996,6.4996,6.4996,6.4996,6.4996,6.4996,6.4454,6.3282,6.1935,6.0715,5.9482,5.8497,5.8025,5.8025,5.8025,5.8096,5.8212,5.8212,5.8284,5.8523,5.8523,5.8523,3.6322,4.0454,4.4061,4.72,4.8852,4.9871,5.0577,5.042,5.0211,5.0498,5.0623,5.0753,5.0989,5.2765,5.4364,5.4687,5.5078,5.5402,5.5658,5.5239,5.494,5.494,5.5089,5.5179,5.5179,5.5006,5.4773,5.4539,5.4333,5.4126,5.3919,5.3049,5.2283,5.171,5.0775,5.0009,4.9453,4.9489,4.9567,4.9819,4.9507,4.9464,4.959,4.959,4.959,4.959,4.959,4.959,4.959,4.959,4.959,4.969,5.067,5.1147,5.1398,5.2352,5.2804,5.2929,5.2929,5.2929,5.2929,5.2929,5.2929,5.2929,5.2929,5.2929,5.3155,5.426,5.4561,5.4813,5.5917,5.6801,5.7927,6.0096,6.122,6.2392,6.4518,6.4996,6.4996,6.4996,6.4996,6.4996,6.4996,6.4996,6.4996,6.4996,6.4996,6.4996,6.4996,6.4996,6.4996,6.4996,6.4996,6.4996,6.4996,6.506,6.4711,6.3741,6.2735,6.1706,6.0632,5.9525,5.885,5.8638,5.8497,5.8523,5.8523,5.8523,5.8523,5.8523,5.8523,5.8523,3.5227,3.821,4.1274,4.4172,4.5846,4.6996,4.812,4.8329,4.8616,4.9714,5.0009,5.0375,5.1375,5.2652,5.3523,5.3337,5.3843,5.4261,5.4311,5.4281,5.4251,5.4251,5.482,5.5179,5.5179,5.5209,5.5179,5.5128,5.5128,5.5128,5.5078,5.4023,5.289,5.1731,5.0628,4.9438,4.8277,4.8205,4.8753,4.9794,4.9128,4.9088,4.959,4.959,4.959,4.959,4.959,4.959,4.959,4.959,4.959,4.9665,5.0243,5.0795,5.1348,5.1925,5.2477,5.2929,5.2929,5.2929,5.2929,5.2929,5.2929,5.2929,5.2929,5.2929,5.3155,5.426,5.4561,5.4813,5.5917,5.6801,5.7927,6.0096,6.122,6.2392,6.4518,6.4996,6.4996,6.4996,6.4996,6.4996,6.4996,6.4996,6.4996,6.4996,6.4996,6.4996,6.4996,6.4996,6.4996,6.4996,6.4996,6.4996,6.4996,6.5285,6.5129,6.4396,6.3952,6.3075,6.1706,6.0551,5.9681,5.9008,5.8638,5.8523,5.8523,5.8523,5.8523,5.8523,5.8523,5.8523,3.2838,3.5383,3.8266,4.0801,4.2866,4.467,4.6186,4.7388,4.8512,4.9662,5.0569,5.1468,5.2547,5.3534,5.4218,5.446,5.5029,5.5478,5.5478,5.5478,5.5299,5.488,5.5418,5.5658,5.5239,5.5179,5.5179,5.5179,5.5179,5.5179,5.5179,5.4282,5.3314,5.2298,5.1155,4.9897,4.8548,4.8213,4.8282,4.8717,4.8749,4.8887,4.9088,4.9439,4.959,4.959,4.959,4.959,4.959,4.959,4.959,4.964,5.0193,5.0544,5.0845,5.1774,5.2226,5.2452,5.2804,5.2929,5.2929,5.2929,5.2929,5.2929,5.2929,5.2929,5.3155,5.426,5.4561,5.4813,5.5917,5.6801,5.807,6.0742,6.2631,6.4066,6.4839,6.4996,6.4996,6.4996,6.4996,6.4996,6.4996,6.4996,6.4996,6.4996,6.4996,6.4996,6.4996,6.4996,6.4996,6.4996,6.4996,6.5124,6.5285,6.5412,6.5412,6.5129,6.4717,6.398,6.283,6.1531,6.0468,5.9804,5.892,5.8523,5.8523,5.8523,5.8523,5.8523,5.8523,5.8523,3.1225,3.3378,3.573,3.7665,3.9756,4.1716,4.3258,4.5088,4.6944,4.8669,5.0169,5.1744,5.3442,5.4335,5.489,5.5176,5.5359,5.5508,5.5508,5.5718,5.5688,5.5239,5.5957,5.6316,5.5867,5.5628,5.5538,5.5538,5.5329,5.5179,5.5179,5.4487,5.3524,5.2326,5.1183,4.9983,4.8837,4.8269,4.8077,4.8257,4.8353,4.8598,4.8951,4.9202,4.9414,4.959,4.959,4.959,4.959,4.959,4.959,4.964,4.9992,5.0243,5.0544,5.1473,5.195,5.2176,5.2729,5.2929,5.2929,5.2929,5.2929,5.2929,5.2929,5.2929,5.3155,5.426,5.4561,5.4813,5.5917,5.7328,5.9035,6.1247,6.3451,6.4996,6.4996,6.4996,6.4996,6.4996,6.4996,6.4996,6.4996,6.4996,6.4996,6.4996,6.4996,6.4996,6.4996,6.4996,6.4996,6.4996,6.5124,6.5222,6.5475,6.5727,6.5853,6.5853,6.5698,6.5065,6.4001,6.2498,6.1288,6.0384,5.9131,5.8523,5.8523,5.8523,5.8523,5.8523,5.8523,5.8523,0.0,0.0,0.0,3.4868,3.6462,3.8083,3.9207,4.1272,4.3755,4.66,4.8759,5.098,5.389,5.4993,5.5445,5.5355,5.473,5.4281,5.4281,5.482,5.5239,5.5209,5.6346,5.7124,5.7094,5.6526,5.6218,5.6218,5.5568,5.5179,5.5179,5.4641,5.3495,5.1785,5.0601,4.9673,4.9125,4.823,4.7962,4.8446,4.787,4.815,4.9153,4.8951,4.9063,4.959,4.959,4.959,4.959,4.959,4.959,4.959,4.959,4.9916,5.0469,5.1071,5.1624,5.2176,5.2729,5.2929,5.2929,5.2929,5.2929,5.2929,5.2929,5.2929,5.3155,5.426,5.4561,5.4813,5.5917,5.8418,6.0784,6.1586,6.3451,6.4996,6.4996,6.4996,6.4996,6.4996,6.4996,6.4996,6.4996,6.4996,6.4996,6.4996,6.4996,6.4996,6.4996,6.4996,6.4996,6.4996,6.5285,6.5475,6.5538,6.6103,6.6506,6.6506,6.6814,6.6414,6.506,6.359,6.2136,6.0728,5.9272,5.8523,5.8523,5.8523,5.8523,5.8523,5.8523,5.8523,2.9012,0.0,0.0,0.0,0.0,0.0,3.5678,3.8579,4.1977,4.4879,4.7931,5.1117,5.4478,5.5994,5.7053,5.7922,5.6675,5.5628,5.5628,5.6166,5.6406,5.6008,5.7064,5.7633,5.7154,5.6526,5.6218,5.6218,5.5568,5.5179,5.5179,5.4641,5.3838,5.273,5.1731,5.0851,5.0039,4.8899,4.8309,4.829,4.7812,4.7947,4.8658,4.8775,4.9063,4.959,4.959,4.959,4.959,4.959,4.959,4.959,4.959,4.969,4.9941,5.0921,5.1373,5.1649,5.2603,5.2929,5.2929,5.2929,5.2929,5.2929,5.2929,5.2929,5.3155,5.426,5.4561,5.4955,5.6641,5.8868,6.0784,6.1586,6.3451,6.4996,6.4996,6.4996,6.4996,6.4996,6.4996,6.4996,6.4996,6.4996,6.4996,6.4996,6.4996,6.4996,6.4996,6.4996,6.4996,6.4996,6.5285,6.5601,6.5819,6.6257,6.6629,6.6876,6.6937,6.6414,6.506,6.359,6.2136,6.0728,5.9272,5.8523,5.8523,5.8523,5.8523,5.8523,5.8523,5.8523,2.8708,2.9431,3.01,3.01,0.0,0.0,3.3247,3.607,3.9442,4.2343,4.5502,4.8763,5.2128,5.3774,5.4948,5.6146,5.5453,5.5197,5.6406,5.6645,5.6585,5.6226,5.7334,5.7962,5.7573,5.6944,5.6555,5.6555,5.5718,5.5179,5.5179,5.4845,5.4385,5.3629,5.2808,5.1948,5.0962,4.9729,4.8957,4.8579,4.7955,4.8068,4.88,4.8821,4.928,5.004,4.9847,4.9783,4.9783,4.9654,4.959,4.959,4.959,4.959,4.9741,5.087,5.1272,5.1448,5.2553,5.2929,5.2929,5.2929,5.2929,5.2929,5.2929,5.308,5.3432,5.431,5.4888,5.5606,5.6984,5.8727,6.0372,6.1288,6.3122,6.4583,6.474,6.4932,6.4996,6.4996,6.4996,6.4996,6.4996,6.4996,6.4996,6.4996,6.4996,6.4996,6.4996,6.4996,6.4996,6.4996,6.5441,6.5819,6.5945,6.6444,6.6814,6.6999,6.6999,6.6414,6.506,6.359,6.2136,6.0728,5.9272,5.8523,5.8523,5.8523,5.8523,5.8523,5.8523,5.8523,2.9004,2.9614,2.9996,2.9918,3.0727,0.0,3.1432,3.3666,3.6515,3.9285,4.1967,4.4831,4.7956,4.9446,5.063,5.1817,5.225,5.3446,5.6354,5.6346,5.6128,5.6218,5.7334,5.8112,5.8112,5.7573,5.7184,5.7094,5.5927,5.5179,5.5179,5.5179,5.4976,5.4355,5.3808,5.2992,5.1839,5.0712,4.9816,4.9301,4.8321,4.8477,4.962,4.929,4.9724,5.0778,5.0359,5.0168,5.0129,4.9719,4.959,4.959,4.959,4.959,4.9741,5.087,5.1272,5.1448,5.2553,5.2929,5.2929,5.2929,5.2929,5.2929,5.3005,5.3331,5.3833,5.4486,5.5415,5.6365,5.7163,5.8329,5.9681,6.0742,6.2431,6.3908,6.4289,6.474,6.4996,6.4996,6.4996,6.4996,6.4996,6.4996,6.4996,6.4996,6.4996,6.4996,6.4996,6.4996,6.4996,6.4996,6.5567,6.5945,6.6007,6.6568,6.6937,6.6999,6.6999,6.6414,6.506,6.359,6.2136,6.0728,5.9272,5.8523,5.8523,5.8523,5.8523,5.8523,5.8523,5.8523,2.8482,2.9022,2.9327,2.8856,2.9248,0.0,2.917,3.1287,3.3927,3.5887,3.858,4.1504,4.4442,4.5944,4.7157,4.8646,4.9646,5.1279,5.4351,5.5119,5.5598,5.6158,5.7334,5.8112,5.8112,5.7992,5.7693,5.7124,5.5927,5.5179,5.5179,5.5179,5.5027,5.4722,5.4304,5.3733,5.2837,5.1839,5.1072,5.0544,4.9586,4.9743,5.0916,5.0592,5.0899,5.1757,5.1157,5.0778,5.0487,4.9847,4.959,4.959,4.959,4.959,4.9741,5.087,5.1272,5.1448,5.2553,5.2929,5.2929,5.2929,5.2929,5.3005,5.3432,5.3632,5.3909,5.4938,5.5691,5.6292,5.6801,5.7759,5.8841,5.9707,6.1531,6.3131,6.3516,6.4325,6.4996,6.4996,6.4996,6.4996,6.4996,6.4996,6.4996,6.4996,6.4996,6.4996,6.4996,6.4996,6.4996,6.4996,6.5348,6.5664,6.5945,6.6382,6.6691,6.6999,6.6999,6.6414,6.506,6.359,6.2136,6.0728,5.9272,5.8523,5.8523,5.8523,5.8523,5.8523,5.8523,5.8523,2.9213,2.9693,2.9964,2.9074,2.9274,0.0,0.0,3.0163,3.2254,3.3692,3.5748,3.7891,4.0086,4.1231,4.2221,4.3342,4.4951,4.6868,4.928,5.2275,5.467,5.6068,5.6735,5.7274,5.7573,5.7603,5.7453,5.7124,5.6496,5.6017,5.5688,5.5688,5.5487,5.5006,5.4875,5.4436,5.3681,5.2914,5.2272,5.1731,5.0934,5.1233,5.2358,5.2215,5.2548,5.3234,5.2412,5.1757,5.1283,5.0423,5.0104,5.0104,4.9719,4.9766,5.0117,5.0971,5.1448,5.18,5.2628,5.2929,5.2929,5.2929,5.2929,5.303,5.3557,5.411,5.4712,5.5566,5.5993,5.6292,5.6729,5.7328,5.8089,5.9079,6.0825,6.2375,6.3056,6.4131,6.4996,6.4996,6.4996,6.4996,6.4996,6.4996,6.4996,6.4996,6.4996,6.4996,6.4996,6.4996,6.4996,6.4996,6.5285,6.5538,6.5756,6.6195,6.6568,6.6753,6.6937,6.6414,6.506,6.359,6.1801,5.9621,5.885,5.8523,5.8523,5.8523,5.8523,5.8523,5.8523,5.8523,2.9944,3.0294,3.0398,2.9415,2.9457,2.9474,0.0,0.0,0.0,3.1679,3.2857,3.411,3.5375,3.6223,3.7016,3.7746,3.981,4.2038,4.3965,4.8152,5.201,5.4658,5.5245,5.5743,5.6489,5.6892,5.7034,5.6915,5.6915,5.6645,5.6068,5.6158,5.5867,5.5209,5.5179,5.4976,5.4406,5.386,5.3308,5.2861,5.2411,5.2792,5.3866,5.4007,5.4344,5.4793,5.3812,5.2991,5.228,5.122,5.0778,5.0741,5.0102,5.0082,5.0559,5.1197,5.1724,5.2176,5.2729,5.2929,5.2929,5.2929,5.308,5.3331,5.3733,5.4662,5.5641,5.6093,5.6219,5.6292,5.6583,5.6848,5.7328,5.847,6.0165,6.1734,6.2526,6.3936,6.4996,6.4996,6.4996,6.4996,6.4996,6.4996,6.4996,6.4996,6.4996,6.4996,6.4996,6.4996,6.4996,6.4996,6.5222,6.5412,6.5475,6.607,6.6444,6.6506,6.6814,6.6414,6.506,6.3357,6.1193,5.8594,5.8523,5.8523,5.8523,5.8523,5.8523,5.8523,5.8523,5.8523,2.9379,2.9467,2.9301,2.8682,2.8577,2.8412,2.7725,0.0,2.8734,2.8856,0.0,3.0131,3.0786,0.0,0.0,3.3619,3.5737,3.8259,4.1071,4.2495,4.5084,4.997,5.1736,5.3162,5.4657,5.6229,5.6855,5.6316,5.6286,5.5987,5.5329,5.5867,5.5867,5.5209,5.5179,5.5027,5.4751,5.4385,5.4045,5.3762,5.4052,5.4529,5.5198,5.5803,5.6132,5.6106,5.5119,5.4144,5.3268,5.2006,5.1471,5.146,5.0959,5.076,5.0963,5.1758,5.2051,5.2176,5.2729,5.2929,5.2929,5.2929,5.3582,5.4386,5.4461,5.5239,5.6118,5.6194,5.6219,5.6219,5.6292,5.6292,5.6583,5.7379,5.9219,6.0988,6.1721,6.3516,6.4996,6.4996,6.4996,6.4996,6.4996,6.4996,6.4996,6.4996,6.4996,6.4996,6.4996,6.4996,6.4996,6.4996,6.506,6.5187,6.5475,6.5819,6.6195,6.6506,6.6814,6.6414,6.506,6.2392,6.015,5.8523,5.8523,5.8523,5.8523,5.8523,5.8523,5.8523,5.8523,5.8523,3.1365,3.1261,3.113,3.0529,3.0137,2.9666,2.8752,2.8987,2.9301,2.8996,0.0,0.0,0.0,0.0,0.0,0.0,3.3729,3.5495,3.7204,3.8339,4.1106,4.6794,4.8577,5.0379,5.3057,5.5313,5.6286,5.5658,5.5598,5.5478,5.5209,5.5807,5.5867,5.5209,5.5179,5.5158,5.5057,5.4926,5.4951,5.5234,5.5397,5.6025,5.6947,5.7266,5.7412,5.7416,5.6594,5.5588,5.4501,5.3207,5.2746,5.2818,5.3071,5.2801,5.2414,5.3082,5.3531,5.3772,5.3826,5.3835,5.3768,5.3384,5.3867,5.4561,5.4561,5.534,5.6219,5.6219,5.6219,5.6219,5.6219,5.6219,5.6438,5.7235,5.9079,6.0852,6.1654,6.3451,6.4996,6.4996,6.4996,6.4996,6.4996,6.4996,6.4996,6.4996,6.4996,6.4996,6.4996,6.4996,6.4996,6.4996,6.4996,6.506,6.5158,6.5694,6.607,6.6195,6.6007,6.5192,6.3814,6.1761,6.0039,5.8523,5.8523,5.8523,5.8523,5.8523,5.8523,5.8523,5.8523,5.8523,3.3326,3.3169,3.2986,3.2215,3.1757,3.1104,2.9823,2.9823,2.997,2.9588,3.0163,0.0,0.0,0.0,3.142,3.1447,0.0,3.3376,3.3961,3.4874,3.7481,4.2935,4.5541,4.7961,5.0877,5.3396,5.4639,5.4062,5.4232,5.4461,5.464,5.5448,5.5688,5.5209,5.5179,5.5179,5.5179,5.5179,5.5538,5.6218,5.6346,5.7034,5.8141,5.8321,5.8381,5.8305,5.7693,5.6821,5.5703,5.4501,5.4079,5.4183,5.5025,5.5024,5.4564,5.5055,5.5456,5.5631,5.5366,5.4994,5.4485,5.3861,5.4075,5.4561,5.4561,5.534,5.6219,5.6219,5.6219,5.6219,5.6219,5.6219,5.6438,5.7235,5.9079,6.0852,6.1654,6.3451,6.4996,6.4996,6.4996,6.4996,6.4996,6.4996,6.4996,6.4996,6.4996,6.4996,6.4996,6.4996,6.4996,6.4996,6.4996,6.4996,6.4996,6.5567,6.5945,6.6132,6.5504,6.449,6.3169,6.1761,6.0288,5.885,5.8735,5.8594,5.8523,5.8523,5.8523,5.8523,5.8523,5.8523,3.4502,3.4345,3.4084,3.2934,3.2646,3.2202,3.0466,3.0074,3.01,3.0074,3.01,3.0309,3.0869,3.1444,3.1627,3.1116,3.147,0.0,0.0,3.1914,3.345,3.7479,4.2558,4.6244,4.7528,4.9999,5.1413,5.1078,5.1804,5.2576,5.3204,5.4521,5.5209,5.5179,5.5179,5.5179,5.5179,5.5179,5.5538,5.6248,5.6765,5.7423,5.8141,5.877,5.8936,5.8694,5.8335,5.764,5.6766,5.5761,5.5381,5.5519,5.6396,5.7085,5.7676,5.7813,5.766,5.7432,5.7432,5.6298,5.4887,5.4174,5.4283,5.4561,5.4561,5.534,5.6219,5.6219,5.6219,5.6219,5.6219,5.6219,5.6438,5.7235,5.9079,6.0852,6.1654,6.3451,6.4996,6.4996,6.4996,6.4996,6.4996,6.4996,6.4996,6.4996,6.4996,6.4996,6.4996,6.4996,6.4996,6.4996,6.4996,6.4996,6.4996,6.5285,6.579,6.6444,6.5853,6.5002,6.3915,6.2498,6.1043,5.9595,5.9228,5.8876,5.8523,5.8523,5.8523,5.8523,5.8523,5.8523,3.6881,3.6436,3.6123,3.6149,3.526,3.4162,3.3169,3.296,3.2751,3.1993,3.215,3.2489,3.2672,3.2542,3.2228,3.1615,3.1667,3.1667,0.0,3.1287,3.2239,3.4874,3.9059,4.2251,4.36,4.5834,4.7299,4.7436,4.8,4.8985,5.0557,5.2665,5.3862,5.3862,5.5149,5.5628,5.5179,5.5179,5.5718,5.6795,5.7004,5.7693,5.877,5.9009,5.9045,5.8936,5.8828,5.836,5.7696,5.6878,5.6623,5.6795,5.7971,5.884,5.9364,5.9379,5.9341,5.9093,5.8186,5.6807,5.5194,5.4552,5.4465,5.4561,5.4561,5.534,5.6219,5.6219,5.6219,5.6219,5.6219,5.6219,5.6438,5.7235,5.9079,6.0852,6.1654,6.3451,6.4996,6.4996,6.4996,6.4996,6.4996,6.4996,6.4996,6.4996,6.4996,6.4996,6.4996,6.4996,6.4996,6.4996,6.4996,6.4996,6.4996,6.5285,6.579,6.6444,6.5853,6.5192,6.456,6.3225,6.1761,6.0303,5.9734,5.9131,5.8523,5.8523,5.8523,5.8523,5.8523,5.8523,3.8658,3.837,3.8266,3.8475,3.7821,3.6854,3.5861,3.5652,3.526,3.3901,3.3927,3.4136,3.3927,3.3561,3.3117,3.2502,0.0,3.1862,0.0,3.1156,3.1744,3.3001,3.6273,3.909,4.0712,4.2625,4.3963,4.4503,4.4995,4.6352,4.882,5.1169,5.2815,5.3533,5.5269,5.5867,5.5209,5.5179,5.5837,5.7094,5.7094,5.7812,5.9099,5.9099,5.9099,5.9099,5.9099,5.8828,5.8335,5.7749,5.7611,5.7757,5.9041,5.9912,6.0375,6.0939,6.1106,6.0805,5.9369,5.7706,5.6064,5.522,5.474,5.4561,5.4561,5.534,5.6219,5.6219,5.6219,5.6219,5.6219,5.6219,5.6438,5.7235,5.9079,6.0852,6.1654,6.3451,6.4996,6.4996,6.4996,6.4996,6.4996,6.4996,6.4996,6.4996,6.4996,6.4996,6.4996,6.4996,6.4996,6.4996,6.4996,6.4996,6.4996,6.5441,6.5882,6.6319,6.607,6.5727,6.529,6.3944,6.247,6.1029,6.0192,5.9412,5.8523,5.8523,5.8523,5.8523,5.8523,5.8523]}]]